GFSSW_500_temp_000.txt.gz
Temp
-10 -10 -9 -10 -10 -11 -11 -11 -11 -10 -10 -10 -10 -11 -12 -11 -12 -11 -11 -12 -12 -10 -10 -11 -11 -12 -11 -11 -11 -11 -10 -9 -9 -10 -10 -11 -11 -11 -11 -10 -11 -12 -12 -12 -11
-11 -11 -11 -10 -10 -10 -11 -11 -11 -10 -11 -11 -11 -11 -11 -11 -11 -11 -12 -12 -12 -11 -11 -11 -11 -12 -11 -11 -11 -11 -10 -10 -10 -11 -10 -11 -10 -11 -10 -10 -10 -11 -12 -12 -11
-11 -11 -11 -11 -10 -10 -10 -10 -11 -11 -11 -11 -10 -10 -11 -10 -10 -10 -12 -13 -12 -12 -12 -12 -12 -11 -11 -11 -11 -11 -10 -11 -11 -11 -11 -10 -10 -11 -10 -10 -11 -11 -11 -12 -11
-10 -10 -10 -10 -10 -10 -10 -10 -10 -10 -10 -11 -11 -11 -11 -10 -9 -10 -12 -12 -13 -13 -12 -12 -12 -12 -11 -11 -12 -11 -11 -12 -11 -12 -11 -9 -9 -10 -11 -10 -11 -10 -12 -11 -11
-10 -10 -10 -10 -10 -10 -10 -10 -10 -10 -10 -10 -10 -10 -11 -10 -9 -11 -11 -12 -12 -13 -13 -12 -12 -12 -12 -12 -12 -11 -11 -12 -12 -12 -10 -9 -10 -11 -9 -11 -11 -11 -12 -11 -11
-10 -10 -10 -10 -9 -10 -10 -10 -10 -10 -10 -10 -10 -10 -10 -8 -10 -11 -11 -12 -12 -13 -13 -13 -13 -13 -12 -12 -12 -11 -12 -12 -11 -11 -10 -10 -10 -11 -10 -12 -11 -11 -11 -11 -11
-9 -9 -9 -9 -9 -9 -9 -10 -10 -10 -10 -10 -10 -10 -9 -8 -11 -11 -11 -11 -12 -12 -13 -13 -13 -13 -12 -12 -12 -12 -11 -12 -11 -11 -9 -11 -10 -10 -11 -11 -11 -10 -10 -11 -10
-10 -10 -9 -9 -9 -9 -9 -9 -9 -9 -10 -10 -10 -10 -8 -9 -11 -11 -12 -12 -12 -12 -12 -12 -13 -13 -12 -13 -12 -12 -12 -11 -11 -10 -10 -11 -9 -10 -10 -11 -10 -10 -10 -10 -9
-9 -9 -9 -9 -9 -9 -9 -9 -9 -9 -10 -10 -10 -10 -8 -9 -10 -12 -12 -12 -13 -12 -12 -12 -12 -12 -12 -12 -12 -11 -10 -10 -10 -11 -11 -11 -11 -10 -10 -11 -9 -10 -9 -10 -10
-8 -8 -8 -8 -8 -9 -9 -10 -10 -9 -9 -10 -10 -10 -9 -9 -11 -11 -12 -12 -13 -13 -13 -12 -12 -11 -10 -10 -9 -10 -10 -11 -11 -11 -12 -12 -11 -11 -10 -11 -10 -10 -10 -10 -10
-8 -8 -8 -8 -8 -8 -8 -9 -10 -10 -10 -11 -10 -10 -10 -10 -10 -11 -12 -12 -13 -13 -12 -12 -12 -9 -10 -10 -11 -11 -12 -11 -11 -11 -12 -12 -11 -11 -10 -11 -10 -10 -10 -10 -10
-8 -8 -9 -9 -10 -11 -13 -13 -12 -11 -11 -12 -12 -10 -11 -11 -10 -11 -11 -12 -12 -12 -13 -13 -10 -11 -11 -11 -12 -12 -12 -11 -11 -12 -12 -12 -11 -11 -10 -11 -11 -11 -11 -10 -10
-9 -11 -14 -16 -17 -18 -17 -18 -18 -17 -15 -13 -14 -12 -12 -12 -10 -12 -12 -12 -12 -13 -12 -12 -11 -13 -12 -12 -12 -12 -12 -11 -11 -13 -12 -12 -12 -11 -10 -11 -11 -11 -11 -10 -9
-15 -18 -19 -19 -20 -20 -21 -22 -22 -22 -21 -18 -17 -16 -14 -12 -10 -13 -13 -12 -12 -12 -12 -12 -12 -12 -12 -12 -13 -12 -13 -13 -13 -13 -12 -13 -10 -10 -10 -10 -11 -10 -11 -10 -10
-20 -20 -21 -21 -22 -23 -23 -23 -23 -23 -22 -22 -21 -18 -17 -14 -12 -13 -13 -14 -12 -12 -12 -10 -11 -11 -11 -11 -13 -12 -14 -12 -13 -12 -12 -12 -11 -8 -10 -10 -10 -11 -10 -10 -10
-21 -21 -22 -23 -24 -24 -24 -24 -24 -24 -23 -23 -22 -21 -19 -17 -14 -13 -13 -14 -13 -13 -12 -12 -12 -13 -11 -12 -12 -13 -13 -13 -13 -11 -9 -10 -11 -8 -10 -11 -11 -10 -10 -10 -10
-22 -22 -23 -24 -24 -24 -24 -24 -24 -24 -24 -23 -24 -23 -23 -19 -17 -15 -14 -13 -12 -12 -11 -11 -12 -12 -12 -12 -12 -12 -13 -13 -12 -12 -11 -10 -10 -9 -11 -10 -10 -10 -11 -10 -11
-23 -23 -24 -24 -24 -24 -25 -25 -24 -24 -25 -25 -23 -24 -22 -22 -19 -17 -14 -13 -13 -13 -12 -11 -11 -11 -11 -11 -11 -11 -12 -12 -12 -12 -11 -10 -10 -10 -11 -11 -11 -11 -10 -11 -10
-24 -24 -24 -24 -25 -25 -25 -25 -25 -26 -26 -25 -24 -24 -24 -22 -21 -18 -15 -15 -14 -13 -13 -12 -12 -12 -12 -12 -12 -11 -11 -12 -12 -12 -11 -10 -9 -10 -11 -10 -11 -11 -11 -11 -10
-24 -25 -25 -26 -26 -26 -26 -26 -26 -26 -26 -25 -24 -24 -23 -21 -21 -20 -18 -16 -15 -14 -13 -13 -13 -12 -12 -12 -12 -12 -12 -12 -11 -10 -10 -10 -9 -10 -11 -10 -11 -12 -12 -11 -11
-26 -26 -26 -27 -26 -26 -27 -26 -26 -26 -25 -25 -25 -24 -22 -21 -20 -21 -20 -17 -15 -14 -13 -13 -13 -13 -13 -10 -11 -11 -11 -11 -12 -11 -10 -10 -9 -10 -11 -11 -11 -12 -12 -12 -11
-26 -26 -27 -27 -27 -27 -26 -26 -26 -26 -26 -25 -25 -24 -23 -22 -20 -20 -20 -19 -16 -15 -13 -13 -13 -13 -12 -12 -12 -11 -11 -11 -10 -9 -9 -10 -10 -11 -11 -11 -12 -12 -11 -12 -11
-26 -26 -27 -27 -27 -27 -27 -27 -27 -27 -26 -26 -25 -25 -23 -23 -21 -20 -20 -19 -18 -15 -14 -13 -13 -13 -12 -12 -12 -11 -11 -10 -11 -11 -10 -10 -10 -11 -11 -11 -12 -12 -12 -12 -11
-26 -26 -27 -27 -27 -27 -27 -27 -27 -27 -26 -26 -26 -25 -24 -23 -22 -20 -19 -19 -19 -16 -15 -13 -12 -12 -11 -11 -10 -10 -11 -11 -11 -11 -10 -9 -11 -12 -11 -10 -12 -12 -11 -12 -10
-26 -26 -26 -27 -27 -27 -27 -27 -27 -27 -27 -26 -26 -25 -24 -24 -24 -20 -19 -19 -19 -18 -15 -13 -12 -12 -12 -12 -11 -11 -11 -11 -11 -10 -10 -10 -11 -12 -11 -11 -12 -12 -11 -11 -10
-26 -26 -26 -26 -27 -27 -26 -26 -26 -27 -26 -26 -26 -25 -24 -24 -24 -23 -20 -19 -18 -18 -15 -14 -13 -12 -12 -12 -12 -11 -11 -11 -11 -11 -10 -11 -11 -12 -12 -11 -13 -12 -12 -12 -10
-25 -26 -26 -26 -26 -26 -26 -26 -26 -26 -26 -26 -26 -26 -25 -24 -24 -24 -20 -18 -19 -18 -16 -14 -13 -12 -12 -13 -12 -12 -11 -11 -11 -11 -11 -11 -11 -12 -12 -12 -12 -12 -11 -11 -11

GFSSW_500_temp_003.txt.gz
Temp
-10 -10 -10 -10 -10 -10 -10 -11 -11 -10 -10 -10 -10 -11 -11 -12 -12 -11 -11 -12 -12 -11 -11 -10 -11 -11 -11 -11 -11 -11 -10 -9 -9 -9 -10 -10 -10 -10 -10 -10 -10 -11 -12 -12 -12
-11 -10 -10 -10 -10 -10 -11 -11 -11 -11 -11 -10 -11 -11 -11 -11 -11 -12 -12 -12 -12 -11 -11 -11 -11 -11 -11 -11 -11 -11 -10 -9 -10 -11 -10 -11 -11 -10 -10 -10 -10 -11 -12 -12 -11
-11 -10 -11 -11 -11 -10 -10 -10 -11 -11 -12 -11 -11 -10 -11 -10 -11 -12 -12 -12 -12 -11 -11 -11 -12 -11 -11 -11 -11 -10 -9 -10 -10 -11 -11 -11 -10 -10 -10 -9 -11 -12 -12 -12 -11
-10 -10 -10 -10 -10 -10 -10 -10 -10 -11 -11 -11 -11 -11 -11 -11 -10 -10 -11 -12 -12 -12 -12 -12 -12 -11 -11 -11 -11 -11 -10 -10 -10 -11 -10 -11 -10 -9 -11 -10 -11 -12 -12 -11 -11
-10 -10 -10 -10 -10 -10 -10 -10 -10 -10 -10 -10 -10 -11 -11 -11 -10 -11 -10 -11 -12 -12 -12 -12 -12 -13 -12 -12 -12 -10 -10 -11 -11 -11 -11 -11 -9 -9 -9 -10 -12 -12 -12 -12 -10
-10 -10 -10 -10 -10 -10 -10 -10 -10 -10 -10 -10 -10 -10 -10 -10 -11 -11 -11 -11 -11 -12 -12 -13 -13 -13 -13 -12 -12 -11 -10 -11 -11 -11 -11 -11 -10 -9 -9 -11 -12 -12 -11 -11 -11
-10 -9 -9 -9 -9 -9 -9 -9 -9 -9 -10 -10 -10 -10 -9 -9 -11 -11 -11 -11 -11 -12 -12 -13 -13 -13 -12 -12 -11 -11 -11 -11 -11 -11 -11 -11 -9 -9 -11 -11 -12 -11 -11 -11 -11
-10 -10 -9 -9 -9 -9 -9 -9 -9 -9 -9 -9 -9 -9 -8 -9 -10 -11 -11 -12 -12 -12 -12 -13 -13 -13 -12 -12 -12 -12 -11 -11 -11 -11 -12 -12 -8 -10 -11 -11 -11 -11 -11 -11 -11
-10 -9 -9 -9 -9 -9 -9 -9 -9 -9 -9 -9 -9 -9 -9 -9 -10 -11 -11 -11 -12 -12 -12 -13 -13 -12 -12 -12 -12 -11 -10 -10 -11 -10 -12 -12 -10 -10 -11 -11 -11 -12 -12 -11 -11
-9 -9 -9 -9 -9 -9 -9 -9 -8 -9 -9 -9 -9 -9 -9 -9 -9 -11 -12 -11 -12 -12 -12 -12 -12 -12 -11 -11 -9 -10 -10 -10 -10 -11 -12 -12 -10 -11 -11 -11 -11 -12 -11 -11 -11
-10 -9 -9 -9 -9 -9 -9 -9 -9 -8 -8 -9 -8 -8 -9 -10 -9 -10 -11 -11 -12 -12 -11 -12 -12 -10 -10 -11 -11 -11 -11 -11 -11 -11 -12 -12 -12 -11 -11 -11 -12 -11 -11 -11 -11
-10 -10 -10 -10 -10 -9 -10 -11 -11 -11 -10 -11 -10 -9 -9 -10 -8 -10 -10 -11 -12 -12 -12 -12 -10 -10 -12 -12 -12 -12 -12 -11 -11 -11 -13 -12 -12 -12 -11 -11 -12 -11 -10 -10 -11
-10 -10 -11 -13 -14 -15 -16 -18 -17 -17 -14 -16 -16 -13 -12 -10 -9 -11 -11 -12 -12 -13 -12 -11 -9 -12 -13 -12 -12 -12 -12 -12 -12 -12 -13 -13 -12 -11 -11 -11 -11 -11 -10 -10 -11
-13 -15 -17 -20 -20 -20 -20 -21 -20 -20 -20 -19 -18 -18 -16 -14 -12 -12 -12 -12 -12 -12 -12 -12 -12 -11 -12 -12 -13 -12 -13 -12 -13 -13 -12 -13 -11 -10 -10 -11 -11 -10 -10 -11 -11
-18 -20 -21 -21 -22 -22 -22 -22 -22 -22 -22 -21 -20 -20 -19 -18 -16 -15 -15 -14 -13 -12 -13 -10 -11 -11 -11 -11 -13 -12 -13 -13 -13 -13 -12 -11 -11 -8 -10 -10 -10 -11 -11 -11 -10
-21 -22 -22 -22 -23 -23 -23 -23 -23 -23 -22 -23 -22 -22 -22 -21 -20 -18 -17 -16 -15 -14 -12 -12 -12 -12 -11 -12 -13 -13 -13 -13 -13 -13 -11 -10 -10 -9 -10 -10 -10 -10 -10 -10 -10
-22 -22 -23 -23 -23 -24 -24 -24 -24 -23 -24 -24 -24 -24 -24 -22 -23 -22 -19 -17 -15 -14 -13 -12 -11 -12 -12 -12 -13 -13 -13 -13 -12 -12 -10 -11 -11 -10 -10 -10 -10 -10 -10 -10 -10
-23 -23 -24 -24 -25 -25 -25 -25 -24 -25 -25 -25 -24 -25 -24 -23 -23 -23 -21 -19 -17 -15 -14 -13 -12 -11 -11 -11 -11 -12 -12 -12 -12 -12 -12 -11 -10 -10 -11 -11 -11 -10 -10 -10 -10
-24 -25 -25 -25 -26 -26 -26 -26 -26 -26 -26 -25 -26 -25 -25 -24 -23 -22 -22 -19 -18 -17 -15 -14 -13 -13 -12 -12 -12 -12 -11 -12 -12 -12 -11 -11 -10 -10 -10 -10 -10 -11 -11 -11 -10
-25 -25 -26 -27 -27 -26 -26 -27 -26 -26 -26 -26 -26 -26 -25 -24 -23 -22 -22 -20 -19 -19 -16 -13 -13 -12 -13 -13 -12 -12 -12 -12 -12 -12 -11 -10 -10 -10 -11 -11 -11 -11 -11 -11 -10
-26 -26 -26 -27 -27 -27 -27 -27 -26 -26 -26 -26 -26 -25 -25 -24 -23 -22 -22 -21 -21 -19 -16 -15 -13 -13 -14 -11 -11 -11 -11 -11 -12 -12 -11 -10 -10 -11 -12 -11 -11 -11 -11 -10 -10
-25 -26 -26 -27 -28 -27 -27 -27 -26 -26 -26 -26 -26 -25 -25 -24 -23 -22 -22 -21 -21 -19 -17 -17 -14 -14 -11 -12 -12 -12 -12 -12 -12 -11 -11 -10 -11 -11 -11 -11 -11 -11 -10 -10 -10
-25 -26 -26 -27 -27 -27 -27 -27 -27 -26 -26 -27 -26 -26 -25 -24 -23 -22 -22 -21 -21 -20 -18 -17 -15 -14 -14 -13 -12 -12 -12 -12 -12 -12 -10 -10 -12 -11 -12 -11 -11 -11 -10 -10 -11
-25 -26 -26 -27 -27 -27 -27 -27 -27 -27 -27 -27 -26 -26 -25 -25 -25 -22 -21 -21 -20 -20 -19 -16 -15 -13 -13 -12 -11 -11 -11 -12 -12 -11 -10 -10 -12 -12 -11 -11 -11 -11 -10 -11 -11
-25 -25 -26 -26 -26 -26 -27 -27 -27 -27 -27 -27 -26 -25 -25 -25 -24 -24 -23 -21 -20 -20 -18 -16 -15 -14 -13 -13 -12 -12 -12 -12 -11 -10 -10 -11 -12 -12 -12 -11 -11 -11 -11 -11 -11
-25 -25 -25 -26 -26 -26 -26 -26 -26 -26 -26 -26 -26 -26 -25 -25 -25 -25 -24 -21 -21 -20 -17 -17 -16 -14 -14 -13 -13 -13 -12 -11 -12 -11 -11 -12 -13 -12 -12 -11 -11 -11 -11 -11 -11
-25 -25 -25 -25 -26 -26 -26 -26 -26 -26 -26 -26 -26 -26 -26 -25 -25 -25 -24 -22 -21 -20 -18 -18 -17 -16 -15 -14 -14 -13 -12 -11 -12 -11 -11 -12 -13 -13 -12 -11 -11 -12 -11 -11 -11

GFSSW_500_temp_006.txt.gz
Temp
-10 -10 -10 -10 -10 -11 -11 -11 -11 -11 -11 -10 -10 -11 -11 -11 -11 -11 -11 -12 -12 -12 -11 -11 -12 -11 -10 -10 -11 -11 -10 -10 -9 -9 -10 -11 -11 -10 -10 -10 -9 -9 -10 -11 -12
-11 -11 -10 -10 -10 -10 -10 -11 -11 -11 -11 -11 -10 -10 -11 -11 -12 -11 -12 -12 -12 -11 -12 -12 -12 -12 -11 -11 -11 -10 -10 -9 -10 -10 -10 -11 -10 -11 -10 -9 -9 -10 -10 -12 -11
-11 -11 -10 -10 -10 -10 -10 -10 -11 -11 -11 -11 -11 -11 -11 -11 -11 -12 -12 -13 -12 -11 -12 -12 -12 -12 -11 -11 -11 -10 -9 -10 -10 -10 -11 -11 -11 -11 -9 -9 -10 -11 -11 -12 -12
-10 -10 -11 -10 -10 -10 -10 -10 -10 -10 -10 -10 -11 -11 -11 -11 -11 -10 -12 -12 -12 -12 -13 -12 -12 -11 -12 -11 -11 -11 -10 -11 -11 -10 -11 -11 -11 -11 -10 -9 -10 -10 -11 -12 -11
-10 -10 -10 -10 -10 -10 -10 -10 -10 -10 -10 -10 -10 -10 -11 -11 -11 -11 -11 -12 -12 -12 -12 -12 -12 -12 -11 -11 -11 -10 -10 -11 -11 -11 -11 -10 -10 -10 -10 -9 -10 -11 -12 -12 -12
-10 -10 -10 -10 -10 -10 -10 -10 -10 -10 -10 -10 -10 -10 -10 -10 -11 -11 -11 -11 -11 -12 -12 -12 -12 -12 -11 -11 -11 -10 -11 -11 -12 -11 -11 -11 -10 -10 -9 -9 -11 -11 -12 -12 -12
-10 -10 -10 -10 -10 -10 -9 -9 -9 -9 -9 -9 -10 -10 -10 -10 -11 -11 -11 -11 -10 -11 -11 -12 -12 -13 -12 -12 -11 -11 -11 -11 -11 -12 -11 -12 -9 -9 -10 -10 -11 -11 -11 -11 -12
-11 -11 -10 -10 -10 -10 -10 -9 -9 -9 -9 -9 -9 -9 -9 -10 -10 -11 -11 -11 -11 -11 -11 -11 -12 -12 -12 -12 -11 -11 -11 -10 -11 -11 -11 -12 -7 -9 -10 -11 -11 -11 -11 -11 -11
-11 -11 -10 -10 -10 -10 -10 -10 -9 -9 -9 -9 -9 -9 -8 -9 -10 -11 -11 -11 -11 -11 -11 -11 -11 -11 -11 -11 -11 -10 -9 -10 -11 -12 -12 -11 -8 -10 -11 -11 -11 -11 -11 -11 -12
-11 -11 -11 -10 -10 -10 -10 -10 -10 -10 -9 -9 -9 -9 -9 -9 -9 -10 -10 -11 -11 -11 -11 -11 -11 -11 -11 -10 -9 -10 -10 -10 -11 -12 -11 -11 -10 -10 -12 -12 -11 -10 -10 -11 -11
-11 -11 -11 -10 -10 -10 -10 -10 -10 -9 -9 -9 -9 -10 -10 -9 -8 -9 -9 -10 -11 -11 -11 -11 -12 -10 -9 -10 -10 -11 -11 -11 -11 -11 -12 -13 -12 -10 -12 -12 -10 -11 -10 -10 -11
-11 -11 -11 -11 -10 -10 -10 -11 -11 -11 -10 -11 -11 -10 -10 -9 -9 -9 -9 -9 -11 -11 -12 -12 -11 -8 -11 -11 -11 -12 -11 -11 -11 -12 -13 -12 -12 -11 -11 -11 -11 -10 -10 -10 -11
-11 -11 -12 -13 -14 -14 -16 -17 -16 -16 -13 -15 -14 -13 -12 -12 -10 -11 -10 -10 -10 -11 -12 -12 -8 -12 -11 -11 -11 -11 -11 -11 -12 -13 -13 -12 -11 -11 -11 -10 -10 -10 -10 -11 -11
-12 -14 -16 -18 -19 -20 -21 -21 -21 -21 -19 -18 -18 -18 -17 -16 -15 -13 -13 -12 -11 -11 -13 -12 -11 -11 -12 -11 -11 -11 -12 -13 -13 -13 -12 -14 -11 -10 -10 -10 -10 -11 -10 -10 -10
-17 -19 -21 -21 -22 -22 -22 -22 -22 -22 -22 -22 -21 -21 -20 -19 -18 -17 -16 -15 -12 -12 -15 -9 -11 -11 -11 -9 -11 -10 -13 -13 -13 -13 -14 -12 -12 -9 -10 -11 -11 -11 -10 -10 -10
-20 -22 -23 -23 -23 -23 -23 -23 -23 -23 -23 -23 -23 -23 -23 -22 -21 -21 -19 -17 -15 -15 -15 -12 -12 -12 -10 -11 -11 -13 -13 -13 -12 -13 -13 -11 -12 -10 -11 -10 -11 -11 -11 -10 -9
-23 -23 -24 -24 -25 -25 -24 -24 -25 -24 -25 -25 -25 -24 -24 -24 -23 -22 -21 -20 -18 -18 -15 -14 -12 -11 -12 -12 -12 -12 -13 -12 -12 -12 -11 -12 -12 -11 -11 -11 -10 -10 -10 -10 -10
-24 -24 -25 -25 -25 -26 -26 -26 -26 -26 -26 -26 -26 -25 -25 -25 -25 -23 -23 -21 -20 -20 -18 -16 -14 -11 -11 -11 -11 -10 -11 -11 -11 -12 -11 -12 -11 -11 -11 -11 -9 -10 -10 -10 -11
-24 -25 -25 -25 -26 -26 -26 -26 -26 -26 -26 -26 -26 -26 -27 -26 -25 -23 -24 -22 -21 -21 -19 -20 -15 -14 -12 -12 -11 -11 -11 -11 -12 -13 -11 -13 -10 -12 -11 -10 -10 -11 -11 -11 -11
-25 -25 -26 -26 -26 -27 -26 -26 -26 -26 -26 -26 -26 -26 -26 -27 -26 -24 -23 -22 -22 -21 -21 -19 -17 -15 -13 -13 -12 -11 -12 -12 -12 -13 -11 -11 -11 -12 -12 -11 -11 -11 -11 -11 -11
-25 -25 -26 -26 -27 -27 -27 -27 -26 -26 -26 -26 -26 -26 -26 -26 -25 -24 -23 -22 -22 -22 -20 -19 -17 -18 -16 -13 -11 -12 -12 -12 -12 -12 -12 -11 -11 -12 -12 -11 -11 -12 -11 -11 -11
-25 -25 -25 -26 -26 -27 -27 -27 -27 -26 -26 -26 -26 -26 -26 -25 -25 -24 -22 -22 -21 -22 -21 -20 -18 -17 -15 -13 -13 -13 -12 -11 -11 -11 -11 -11 -11 -12 -11 -11 -11 -11 -11 -11 -11
-24 -25 -25 -25 -26 -26 -27 -27 -27 -27 -27 -26 -26 -26 -26 -25 -25 -25 -23 -22 -22 -21 -21 -20 -19 -17 -18 -17 -14 -13 -12 -12 -12 -12 -11 -11 -12 -12 -12 -12 -12 -11 -11 -11 -11
-24 -24 -25 -25 -26 -26 -26 -26 -27 -27 -27 -27 -26 -26 -26 -25 -25 -24 -23 -22 -22 -22 -20 -20 -20 -18 -17 -13 -14 -13 -12 -13 -12 -12 -11 -10 -12 -12 -13 -12 -12 -12 -12 -11 -11
-24 -24 -25 -25 -26 -26 -26 -26 -27 -26 -27 -26 -26 -26 -26 -26 -26 -24 -23 -23 -21 -21 -21 -20 -20 -18 -17 -17 -14 -14 -13 -13 -12 -11 -11 -11 -13 -12 -13 -12 -12 -12 -12 -11 -11
-24 -24 -25 -25 -25 -26 -26 -26 -27 -26 -26 -26 -26 -26 -26 -26 -26 -24 -23 -23 -21 -21 -21 -19 -20 -18 -17 -16 -14 -14 -14 -14 -12 -12 -12 -11 -12 -13 -13 -12 -12 -12 -12 -12 -11
-23 -24 -24 -24 -25 -25 -26 -26 -26 -26 -26 -26 -26 -26 -26 -26 -25 -25 -23 -22 -22 -22 -20 -20 -20 -18 -17 -17 -16 -15 -15 -13 -12 -12 -12 -12 -12 -12 -13 -12 -12 -12 -12 -12 -11

GFSSW_500_temp_009.txt.gz
Temp
-11 -11 -10 -10 -10 -10 -10 -10 -10 -10 -10 -10 -10 -10 -10 -11 -11 -10 -11 -11 -11 -11 -11 -11 -11 -11 -10 -10 -10 -10 -10 -9 -9 -10 -10 -11 -10 -10 -11 -10 -10 -10 -10 -10 -10
-10 -10 -10 -10 -10 -11 -10 -10 -10 -10 -10 -10 -10 -10 -10 -10 -11 -11 -12 -12 -12 -12 -12 -11 -12 -11 -11 -10 -10 -10 -10 -9 -10 -10 -11 -11 -11 -11 -11 -11 -10 -10 -10 -11 -11
-10 -10 -10 -10 -10 -10 -10 -10 -11 -10 -10 -10 -10 -11 -11 -11 -10 -11 -11 -11 -12 -12 -12 -12 -12 -12 -11 -11 -11 -10 -9 -10 -11 -11 -11 -11 -11 -10 -11 -11 -11 -10 -9 -10 -11
-11 -11 -10 -10 -10 -10 -10 -10 -10 -10 -10 -10 -11 -11 -11 -11 -11 -10 -10 -11 -12 -12 -12 -12 -12 -11 -11 -10 -11 -11 -10 -11 -10 -11 -11 -11 -11 -11 -11 -12 -11 -10 -10 -10 -11
-11 -11 -11 -11 -11 -10 -10 -10 -10 -10 -10 -10 -10 -10 -11 -11 -11 -11 -10 -10 -11 -11 -12 -11 -12 -12 -11 -11 -12 -11 -10 -11 -10 -11 -11 -11 -11 -10 -12 -11 -10 -10 -9 -11 -11
-11 -11 -11 -11 -10 -10 -10 -10 -10 -10 -10 -10 -10 -10 -10 -10 -11 -11 -11 -11 -11 -11 -12 -12 -11 -12 -11 -12 -12 -11 -11 -11 -11 -10 -11 -10 -10 -10 -10 -10 -10 -11 -10 -11 -11
-11 -11 -11 -10 -10 -10 -10 -10 -10 -10 -10 -10 -10 -10 -10 -9 -11 -11 -11 -11 -11 -11 -12 -12 -12 -13 -11 -11 -11 -11 -12 -11 -10 -10 -10 -13 -10 -9 -10 -11 -10 -10 -10 -11 -12
-12 -11 -11 -11 -11 -11 -11 -10 -10 -10 -10 -10 -10 -9 -9 -10 -10 -10 -11 -11 -11 -11 -11 -12 -12 -12 -12 -12 -12 -12 -12 -10 -8 -10 -10 -13 -8 -8 -10 -10 -11 -12 -11 -11 -10
-12 -12 -11 -11 -11 -11 -11 -11 -11 -10 -10 -10 -10 -9 -9 -9 -10 -10 -10 -10 -11 -11 -11 -12 -12 -12 -12 -12 -12 -11 -9 -8 -9 -10 -10 -13 -10 -10 -12 -11 -11 -11 -11 -11 -10
-12 -12 -11 -11 -11 -11 -11 -11 -11 -11 -10 -10 -10 -10 -10 -9 -9 -9 -9 -10 -11 -11 -11 -11 -11 -11 -11 -11 -9 -9 -10 -10 -10 -10 -12 -13 -12 -12 -12 -12 -11 -11 -12 -11 -9
-12 -11 -11 -11 -11 -11 -11 -11 -11 -11 -10 -11 -10 -10 -10 -10 -9 -9 -9 -9 -10 -11 -11 -11 -12 -10 -9 -10 -10 -10 -11 -10 -10 -10 -13 -13 -13 -12 -13 -12 -11 -11 -10 -10 -10
-11 -11 -11 -11 -10 -10 -11 -11 -11 -12 -11 -12 -12 -11 -10 -11 -10 -10 -10 -9 -9 -10 -11 -12 -10 -8 -11 -10 -11 -11 -11 -10 -10 -11 -13 -13 -12 -11 -11 -11 -10 -10 -10 -10 -10
-11 -11 -11 -11 -13 -14 -15 -16 -16 -17 -12 -14 -15 -14 -14 -12 -12 -11 -11 -10 -10 -10 -10 -11 -8 -12 -10 -11 -11 -10 -10 -10 -10 -11 -13 -12 -11 -10 -10 -9 -10 -10 -10 -10 -10
-11 -12 -15 -18 -18 -20 -20 -21 -21 -22 -17 -19 -18 -17 -17 -16 -15 -13 -13 -12 -11 -10 -12 -11 -10 -10 -11 -11 -11 -10 -10 -10 -11 -11 -12 -13 -10 -10 -9 -9 -10 -11 -11 -10 -10
-15 -19 -21 -22 -22 -23 -23 -23 -23 -23 -22 -23 -22 -21 -21 -19 -19 -18 -16 -15 -13 -13 -14 -9 -9 -10 -11 -9 -12 -8 -13 -12 -12 -11 -12 -11 -10 -9 -9 -10 -11 -10 -10 -10 -10
-21 -22 -23 -23 -24 -25 -25 -24 -24 -24 -23 -24 -24 -24 -24 -24 -24 -22 -21 -17 -16 -16 -15 -10 -11 -11 -10 -11 -12 -12 -13 -13 -12 -11 -11 -11 -12 -8 -11 -11 -11 -11 -10 -10 -10
-23 -24 -24 -25 -25 -25 -25 -26 -25 -24 -24 -24 -25 -25 -24 -25 -25 -24 -24 -23 -21 -19 -16 -12 -12 -11 -11 -12 -12 -13 -14 -13 -12 -11 -9 -11 -11 -9 -11 -11 -11 -10 -10 -11 -10
-24 -24 -25 -25 -26 -26 -26 -26 -25 -25 -26 -25 -26 -25 -26 -26 -25 -25 -25 -24 -24 -23 -21 -17 -15 -12 -10 -10 -11 -12 -11 -10 -10 -11 -11 -12 -9 -10 -11 -11 -11 -10 -11 -10 -11
-24 -24 -24 -25 -26 -26 -26 -25 -25 -26 -26 -26 -25 -25 -25 -25 -25 -24 -25 -24 -23 -22 -20 -21 -16 -14 -13 -13 -14 -12 -14 -9 -13 -13 -13 -12 -12 -11 -11 -11 -10 -11 -11 -11 -11
-23 -24 -24 -25 -25 -26 -26 -26 -26 -26 -26 -26 -25 -25 -25 -25 -25 -25 -25 -23 -23 -22 -22 -20 -20 -17 -16 -14 -14 -15 -11 -13 -11 -13 -12 -12 -12 -12 -12 -11 -11 -11 -11 -11 -11
-24 -24 -24 -25 -25 -25 -26 -26 -26 -26 -26 -26 -26 -25 -25 -25 -25 -25 -24 -24 -23 -22 -21 -21 -20 -18 -18 -18 -14 -13 -15 -13 -13 -14 -13 -13 -12 -12 -12 -11 -12 -13 -12 -12 -12
-24 -24 -24 -25 -25 -25 -26 -26 -26 -26 -26 -26 -26 -26 -25 -25 -25 -25 -23 -24 -23 -22 -21 -22 -20 -19 -18 -18 -16 -14 -15 -12 -13 -13 -13 -12 -12 -11 -12 -12 -11 -12 -11 -12 -12
-23 -23 -24 -25 -25 -26 -26 -26 -26 -26 -26 -26 -26 -26 -25 -25 -25 -24 -24 -23 -23 -22 -21 -22 -19 -19 -16 -18 -18 -17 -16 -15 -13 -14 -14 -13 -12 -12 -12 -11 -11 -12 -11 -12 -12
-23 -23 -24 -25 -25 -25 -26 -26 -26 -26 -26 -26 -26 -26 -25 -25 -25 -24 -24 -23 -22 -22 -22 -21 -19 -17 -17 -17 -17 -16 -16 -15 -14 -14 -13 -11 -13 -13 -12 -12 -12 -12 -12 -12 -12
-23 -23 -23 -24 -24 -25 -25 -25 -26 -26 -26 -26 -26 -26 -25 -25 -25 -24 -24 -23 -23 -22 -21 -21 -19 -17 -16 -16 -17 -16 -15 -15 -15 -15 -14 -12 -12 -13 -13 -12 -12 -12 -12 -13 -12
-23 -23 -24 -23 -24 -25 -25 -25 -25 -26 -26 -26 -26 -25 -25 -25 -25 -24 -24 -23 -22 -22 -22 -21 -18 -18 -16 -16 -16 -16 -16 -15 -15 -15 -13 -13 -12 -12 -13 -13 -13 -13 -13 -13 -12
-22 -23 -23 -23 -23 -24 -25 -25 -25 -25 -25 -25 -25 -25 -25 -25 -24 -24 -23 -22 -21 -21 -21 -20 -19 -19 -17 -16 -16 -16 -16 -15 -15 -14 -13 -13 -14 -13 -13 -11 -12 -12 -13 -13 -12

GFSSW_500_temp_012.txt.gz
Temp
-10 -10 -10 -10 -10 -10 -10 -10 -10 -10 -10 -10 -10 -10 -10 -10 -10 -10 -10 -11 -10 -10 -10 -10 -10 -10 -10 -10 -10 -10 -9 -9 -9 -9 -9 -9 -10 -10 -10 -10 -10 -10 -10 -10 -10
-10 -10 -10 -10 -10 -10 -10 -10 -9 -9 -10 -10 -10 -10 -10 -10 -10 -10 -10 -11 -11 -11 -11 -11 -11 -11 -11 -11 -11 -11 -10 -9 -9 -10 -10 -10 -10 -10 -10 -10 -10 -10 -10 -11 -11
-10 -10 -10 -10 -10 -10 -10 -10 -10 -10 -10 -10 -10 -10 -10 -10 -10 -10 -10 -10 -11 -11 -12 -12 -11 -12 -11 -11 -11 -11 -9 -9 -9 -10 -10 -10 -10 -10 -10 -10 -10 -10 -10 -9 -10
-11 -11 -11 -10 -10 -10 -10 -10 -10 -10 -11 -10 -10 -10 -10 -10 -10 -9 -9 -10 -10 -11 -11 -11 -12 -12 -11 -11 -12 -11 -10 -10 -10 -10 -11 -10 -10 -10 -10 -10 -10 -10 -10 -10 -10
-11 -11 -11 -11 -11 -11 -11 -11 -10 -11 -11 -11 -11 -11 -11 -10 -10 -10 -10 -10 -10 -10 -11 -11 -11 -12 -11 -12 -12 -11 -10 -11 -10 -11 -11 -11 -10 -10 -10 -10 -11 -10 -11 -10 -10
-11 -11 -11 -11 -11 -11 -11 -11 -11 -11 -10 -10 -10 -11 -11 -10 -11 -11 -10 -10 -10 -11 -11 -11 -11 -12 -12 -12 -13 -11 -11 -11 -11 -11 -11 -12 -11 -10 -9 -10 -10 -10 -10 -10 -10
-11 -11 -11 -11 -11 -11 -11 -11 -11 -11 -10 -10 -10 -10 -10 -10 -11 -11 -11 -11 -11 -11 -11 -11 -11 -12 -11 -12 -11 -12 -12 -11 -11 -11 -10 -12 -10 -10 -9 -9 -10 -10 -10 -10 -10
-12 -12 -12 -12 -12 -11 -11 -11 -11 -11 -11 -11 -10 -10 -10 -10 -10 -10 -10 -10 -11 -11 -11 -11 -12 -12 -11 -11 -12 -12 -13 -11 -8 -10 -8 -12 -12 -9 -10 -11 -11 -11 -11 -11 -10
-12 -12 -12 -12 -12 -12 -11 -11 -11 -11 -11 -11 -11 -10 -10 -10 -10 -10 -10 -10 -11 -11 -11 -11 -12 -12 -12 -12 -12 -12 -11 -10 -7 -9 -11 -12 -12 -8 -11 -12 -11 -12 -11 -10 -10
-12 -12 -11 -11 -11 -11 -11 -11 -11 -11 -11 -11 -11 -11 -11 -10 -10 -10 -10 -10 -10 -10 -11 -11 -11 -12 -11 -11 -9 -9 -10 -8 -9 -10 -11 -12 -12 -10 -11 -12 -12 -12 -11 -9 -10
-12 -12 -11 -11 -11 -11 -11 -11 -11 -11 -11 -11 -11 -11 -11 -10 -10 -10 -10 -10 -10 -10 -10 -11 -12 -10 -9 -11 -11 -11 -11 -10 -10 -11 -11 -12 -13 -11 -10 -11 -11 -11 -10 -10 -10
-11 -11 -11 -10 -10 -11 -10 -11 -12 -12 -11 -11 -11 -12 -11 -12 -11 -10 -10 -10 -10 -10 -10 -12 -10 -9 -11 -11 -11 -11 -11 -11 -10 -11 -12 -13 -13 -11 -10 -9 -10 -10 -11 -10 -10
-11 -11 -11 -12 -14 -16 -17 -18 -18 -18 -13 -13 -15 -13 -14 -14 -12 -11 -12 -11 -11 -11 -11 -11 -9 -11 -11 -11 -11 -10 -10 -10 -10 -11 -11 -14 -12 -10 -9 -10 -9 -10 -10 -10 -10
-12 -13 -15 -20 -22 -23 -23 -23 -23 -22 -19 -19 -19 -18 -17 -17 -15 -15 -14 -13 -12 -12 -13 -11 -10 -11 -11 -10 -11 -10 -10 -11 -11 -11 -11 -13 -11 -8 -9 -9 -10 -10 -11 -10 -9
-16 -18 -21 -23 -24 -25 -25 -24 -24 -23 -22 -23 -23 -23 -22 -20 -20 -19 -17 -16 -14 -14 -15 -10 -10 -11 -10 -9 -12 -9 -12 -12 -12 -12 -11 -11 -11 -8 -10 -10 -10 -10 -10 -10 -10
-19 -21 -23 -23 -24 -24 -25 -25 -24 -24 -23 -23 -23 -23 -22 -23 -22 -23 -21 -20 -18 -17 -15 -11 -12 -11 -10 -10 -12 -11 -13 -12 -12 -12 -13 -9 -10 -8 -9 -11 -10 -10 -11 -11 -11
-20 -22 -23 -24 -24 -25 -25 -25 -24 -23 -23 -23 -23 -23 -24 -23 -23 -23 -23 -23 -22 -22 -17 -13 -14 -11 -11 -11 -13 -11 -14 -13 -13 -12 -8 -9 -11 -8 -10 -10 -10 -11 -10 -11 -10
-21 -22 -23 -24 -24 -24 -25 -25 -24 -24 -24 -25 -24 -24 -24 -24 -24 -24 -24 -23 -23 -23 -20 -17 -16 -14 -11 -10 -11 -11 -11 -11 -10 -10 -8 -10 -9 -10 -10 -10 -10 -10 -11 -10 -11
-21 -22 -23 -24 -24 -24 -24 -24 -25 -25 -25 -25 -24 -24 -24 -23 -24 -24 -24 -24 -23 -23 -21 -21 -17 -16 -15 -12 -14 -11 -16 -11 -13 -14 -13 -11 -11 -11 -10 -11 -11 -10 -11 -10 -11
-21 -22 -23 -24 -24 -25 -25 -25 -25 -26 -25 -25 -25 -25 -24 -24 -24 -23 -24 -23 -23 -23 -22 -21 -19 -17 -15 -16 -13 -15 -13 -13 -13 -14 -13 -12 -11 -11 -12 -12 -11 -10 -10 -10 -11
-22 -22 -23 -23 -24 -24 -25 -25 -25 -26 -27 -26 -25 -25 -25 -24 -24 -23 -24 -24 -23 -24 -23 -22 -21 -19 -18 -17 -14 -14 -12 -14 -14 -13 -13 -12 -11 -12 -11 -11 -11 -11 -10 -11 -11
-22 -21 -23 -24 -24 -24 -25 -25 -26 -26 -26 -26 -26 -25 -25 -24 -24 -24 -23 -24 -22 -22 -22 -23 -21 -20 -19 -18 -17 -15 -12 -14 -13 -12 -12 -12 -12 -12 -11 -11 -12 -12 -11 -11 -11
-21 -22 -22 -23 -24 -24 -25 -25 -25 -26 -25 -26 -26 -25 -25 -25 -24 -23 -24 -24 -23 -23 -23 -22 -21 -20 -20 -19 -18 -17 -15 -14 -15 -14 -13 -13 -12 -13 -11 -12 -11 -12 -11 -11 -12
-21 -22 -23 -24 -24 -24 -24 -25 -25 -26 -25 -25 -26 -25 -25 -25 -25 -24 -24 -23 -23 -23 -22 -22 -21 -20 -19 -19 -18 -18 -17 -15 -15 -14 -14 -12 -13 -11 -12 -11 -11 -12 -11 -11 -12
-21 -22 -22 -23 -23 -24 -24 -24 -25 -25 -25 -25 -25 -25 -24 -24 -24 -25 -24 -23 -23 -22 -22 -21 -20 -20 -19 -18 -18 -17 -17 -16 -15 -14 -13 -13 -13 -12 -13 -12 -11 -10 -11 -12 -12
-21 -22 -22 -22 -23 -23 -24 -24 -24 -25 -25 -25 -25 -24 -25 -24 -24 -24 -23 -23 -22 -22 -21 -21 -20 -20 -18 -17 -16 -16 -16 -16 -15 -14 -13 -13 -13 -13 -12 -12 -10 -11 -12 -12 -13
-21 -21 -21 -22 -23 -23 -24 -24 -24 -24 -25 -25 -25 -24 -24 -24 -24 -23 -22 -22 -22 -22 -20 -20 -20 -20 -18 -17 -17 -16 -16 -15 -15 -14 -13 -13 -13 -14 -13 -12 -11 -12 -13 -13 -12

GFSSW_500_temp_015.txt.gz
Temp
-11 -11 -10 -10 -10 -10 -10 -10 -10 -10 -10 -10 -10 -10 -10 -10 -10 -10 -9 -10 -10 -10 -10 -10 -10 -10 -10 -10 -10 -10 -8 -8 -8 -8 -8 -10 -9 -10 -11 -10 -10 -9 -10 -9 -9
-11 -11 -11 -11 -11 -11 -11 -10 -10 -10 -10 -10 -10 -10 -10 -10 -10 -10 -11 -11 -10 -10 -10 -10 -10 -10 -10 -10 -11 -11 -9 -9 -9 -9 -9 -9 -10 -10 -11 -10 -9 -10 -10 -10 -10
-11 -11 -10 -10 -10 -11 -11 -10 -10 -10 -10 -10 -10 -10 -9 -9 -10 -10 -10 -10 -10 -10 -11 -11 -11 -11 -11 -11 -11 -10 -8 -9 -9 -10 -10 -10 -10 -11 -10 -9 -10 -10 -10 -9 -10
-11 -11 -11 -11 -11 -11 -11 -11 -11 -11 -11 -11 -10 -10 -10 -9 -9 -9 -9 -10 -10 -10 -10 -10 -10 -11 -11 -11 -11 -11 -10 -10 -10 -11 -11 -10 -10 -10 -11 -10 -10 -9 -9 -10 -10
-11 -11 -11 -11 -11 -11 -11 -11 -11 -11 -11 -11 -11 -11 -11 -10 -9 -10 -9 -9 -10 -10 -10 -10 -10 -11 -11 -11 -12 -11 -10 -11 -11 -12 -11 -11 -11 -10 -10 -10 -10 -10 -10 -10 -10
-11 -11 -11 -11 -11 -11 -11 -11 -11 -11 -11 -11 -11 -11 -11 -10 -11 -11 -10 -10 -9 -9 -10 -10 -10 -11 -11 -12 -12 -11 -12 -11 -12 -11 -11 -11 -11 -11 -10 -10 -10 -10 -10 -10 -10
-12 -11 -11 -11 -11 -11 -11 -11 -11 -11 -11 -11 -11 -11 -10 -10 -11 -11 -11 -10 -10 -10 -10 -11 -11 -11 -11 -11 -11 -11 -12 -11 -11 -10 -10 -12 -10 -9 -10 -10 -9 -10 -10 -9 -10
-12 -12 -12 -12 -12 -12 -12 -12 -11 -11 -11 -11 -11 -11 -10 -11 -10 -11 -11 -11 -11 -11 -11 -10 -11 -11 -11 -11 -11 -11 -12 -10 -8 -9 -9 -12 -7 -9 -10 -10 -10 -10 -10 -10 -9
-12 -12 -12 -12 -12 -12 -12 -12 -11 -11 -11 -11 -11 -11 -11 -11 -11 -11 -11 -10 -11 -11 -11 -11 -11 -11 -12 -11 -11 -10 -10 -9 -8 -9 -10 -13 -8 -10 -10 -10 -10 -10 -10 -9 -9
-12 -12 -12 -11 -11 -11 -11 -11 -11 -11 -11 -11 -11 -11 -11 -11 -11 -11 -11 -11 -11 -11 -11 -11 -11 -11 -11 -11 -9 -10 -10 -9 -8 -10 -11 -12 -11 -11 -11 -10 -10 -10 -9 -9 -9
-12 -12 -11 -11 -11 -11 -10 -11 -11 -10 -10 -11 -11 -11 -11 -11 -11 -11 -11 -11 -11 -10 -11 -11 -11 -10 -10 -11 -10 -11 -10 -10 -10 -11 -12 -11 -11 -12 -9 -10 -10 -10 -9 -10 -10
-12 -11 -11 -12 -11 -11 -13 -15 -17 -16 -12 -16 -12 -12 -12 -14 -11 -11 -11 -11 -11 -11 -11 -11 -10 -10 -11 -11 -11 -11 -11 -9 -10 -12 -12 -10 -11 -12 -9 -9 -9 -9 -9 -10 -10
-12 -12 -13 -14 -16 -18 -21 -22 -23 -22 -22 -21 -20 -17 -17 -16 -14 -13 -13 -12 -12 -12 -12 -11 -10 -10 -11 -11 -11 -11 -10 -10 -10 -12 -11 -11 -12 -11 -10 -9 -9 -9 -10 -10 -10
-13 -14 -16 -17 -19 -22 -23 -24 -25 -24 -23 -23 -23 -22 -20 -19 -16 -17 -16 -15 -14 -14 -14 -11 -11 -10 -10 -10 -11 -10 -11 -11 -11 -12 -11 -12 -11 -9 -9 -9 -9 -10 -10 -9 -9
-15 -16 -17 -19 -21 -23 -23 -24 -25 -25 -23 -22 -22 -23 -23 -22 -21 -20 -18 -18 -16 -16 -15 -11 -12 -12 -11 -10 -12 -9 -11 -11 -12 -12 -12 -11 -11 -8 -10 -9 -9 -10 -9 -9 -9
-17 -17 -19 -20 -22 -23 -23 -24 -24 -24 -24 -23 -23 -23 -23 -22 -22 -22 -22 -21 -20 -20 -15 -13 -14 -13 -12 -12 -11 -11 -12 -12 -13 -12 -12 -9 -10 -7 -9 -9 -10 -10 -10 -9 -9
-18 -18 -19 -21 -22 -23 -23 -23 -24 -24 -24 -24 -24 -25 -24 -23 -23 -23 -23 -22 -22 -22 -18 -16 -16 -13 -13 -12 -12 -11 -12 -12 -12 -13 -8 -10 -10 -8 -9 -10 -10 -10 -10 -9 -9
-18 -19 -20 -21 -22 -23 -24 -23 -24 -24 -25 -25 -24 -24 -24 -23 -23 -23 -23 -23 -23 -23 -21 -20 -18 -15 -14 -13 -12 -12 -13 -12 -11 -10 -8 -9 -10 -8 -10 -10 -9 -10 -10 -9 -10
-19 -20 -20 -21 -22 -23 -24 -24 -24 -25 -24 -24 -25 -24 -23 -24 -22 -23 -23 -24 -23 -23 -22 -22 -17 -18 -16 -15 -16 -13 -13 -10 -12 -13 -11 -10 -11 -10 -10 -10 -10 -9 -10 -10 -10
-19 -20 -20 -21 -22 -23 -24 -24 -24 -25 -25 -25 -25 -24 -23 -24 -24 -23 -23 -23 -23 -23 -23 -22 -20 -20 -18 -15 -13 -14 -13 -15 -14 -13 -11 -10 -11 -11 -11 -10 -9 -10 -10 -11 -10
-19 -19 -20 -21 -22 -23 -23 -24 -24 -25 -25 -25 -26 -26 -24 -25 -24 -24 -24 -23 -23 -23 -23 -22 -21 -20 -20 -17 -15 -14 -15 -14 -14 -13 -11 -11 -11 -12 -12 -12 -10 -10 -10 -10 -11
-19 -20 -20 -21 -22 -23 -24 -24 -24 -24 -25 -25 -25 -25 -24 -24 -24 -24 -24 -23 -23 -23 -23 -23 -22 -20 -21 -20 -17 -15 -15 -15 -14 -12 -13 -12 -11 -12 -12 -12 -12 -11 -11 -10 -11
-19 -20 -20 -21 -22 -23 -24 -24 -24 -25 -25 -25 -25 -25 -24 -24 -24 -24 -24 -24 -23 -23 -23 -23 -22 -21 -21 -20 -20 -17 -15 -15 -15 -15 -13 -13 -12 -12 -13 -12 -12 -11 -10 -11 -11
-19 -20 -21 -22 -22 -23 -23 -24 -24 -24 -25 -25 -25 -24 -24 -24 -24 -24 -23 -24 -23 -23 -23 -23 -22 -22 -21 -20 -20 -18 -17 -17 -16 -15 -13 -12 -13 -12 -13 -12 -12 -11 -11 -12 -12
-19 -20 -20 -21 -21 -22 -23 -24 -24 -24 -24 -24 -25 -24 -24 -24 -24 -24 -24 -24 -24 -23 -23 -23 -23 -22 -21 -20 -20 -19 -17 -17 -15 -14 -12 -12 -13 -12 -13 -11 -11 -11 -11 -12 -11
-19 -19 -20 -21 -21 -22 -22 -23 -24 -24 -24 -24 -24 -24 -24 -24 -24 -24 -24 -23 -23 -23 -22 -22 -22 -22 -22 -20 -18 -18 -18 -16 -13 -11 -11 -13 -14 -13 -11 -13 -12 -11 -11 -11 -11
-19 -20 -20 -20 -21 -21 -22 -23 -24 -23 -24 -24 -24 -23 -24 -24 -23 -24 -23 -23 -23 -23 -22 -21 -21 -22 -20 -20 -18 -18 -17 -16 -14 -12 -12 -13 -13 -12 -12 -11 -12 -11 -11 -12 -11

GFSSW_500_temp_021.txt.gz
Temp
-12 -12 -11 -11 -11 -11 -11 -11 -11 -11 -10 -10 -10 -10 -10 -10 -10 -10 -10 -11 -12 -12 -12 -11 -11 -10 -10 -10 -10 -9 -8 -8 -8 -9 -9 -10 -9 -10 -10 -10 -8 -8 -9 -8 -8
-12 -11 -11 -11 -11 -11 -11 -11 -11 -11 -11 -11 -10 -10 -10 -10 -10 -9 -11 -11 -12 -12 -12 -12 -11 -11 -11 -11 -10 -9 -8 -8 -9 -9 -10 -10 -9 -10 -11 -9 -9 -9 -9 -9 -9
-12 -12 -12 -12 -12 -11 -11 -11 -11 -11 -11 -11 -11 -11 -10 -10 -10 -10 -10 -11 -11 -12 -12 -12 -12 -11 -11 -11 -11 -10 -8 -9 -9 -10 -10 -11 -9 -10 -9 -9 -10 -10 -10 -9 -10
-12 -12 -12 -12 -12 -12 -12 -11 -11 -11 -11 -11 -11 -11 -11 -10 -10 -10 -10 -11 -11 -11 -12 -12 -12 -12 -11 -10 -11 -10 -9 -9 -10 -11 -11 -10 -11 -10 -11 -9 -9 -9 -10 -10 -10
-12 -12 -12 -12 -12 -12 -12 -12 -12 -12 -12 -11 -11 -11 -11 -11 -11 -11 -10 -11 -11 -11 -11 -12 -12 -12 -12 -11 -11 -10 -10 -10 -10 -10 -10 -11 -10 -9 -10 -10 -10 -10 -10 -10 -10
-13 -13 -13 -12 -12 -12 -12 -12 -12 -12 -12 -12 -12 -11 -11 -11 -11 -11 -11 -10 -10 -11 -11 -11 -11 -12 -12 -11 -11 -11 -11 -11 -11 -11 -10 -10 -10 -9 -8 -9 -10 -10 -9 -9 -10
-13 -13 -12 -12 -12 -12 -12 -12 -12 -12 -12 -11 -11 -11 -11 -11 -11 -11 -11 -11 -11 -11 -11 -12 -12 -12 -11 -11 -11 -11 -11 -11 -10 -10 -10 -11 -9 -8 -9 -10 -10 -11 -11 -11 -10
-13 -13 -13 -13 -13 -12 -12 -12 -12 -12 -12 -12 -12 -11 -11 -11 -11 -11 -11 -11 -11 -11 -11 -11 -12 -11 -12 -11 -11 -11 -11 -10 -10 -11 -11 -12 -6 -8 -9 -10 -10 -10 -10 -10 -10
-13 -13 -13 -13 -13 -13 -12 -12 -12 -12 -11 -11 -11 -11 -11 -11 -11 -11 -11 -11 -12 -12 -11 -11 -11 -11 -12 -11 -11 -11 -10 -9 -10 -10 -11 -11 -6 -8 -10 -10 -10 -10 -10 -10 -9
-14 -13 -13 -13 -13 -13 -12 -12 -12 -12 -12 -12 -11 -11 -11 -11 -11 -11 -11 -11 -11 -12 -12 -12 -12 -11 -12 -11 -10 -10 -10 -10 -10 -10 -11 -11 -8 -9 -9 -10 -10 -10 -10 -9 -9
-14 -13 -13 -13 -13 -13 -12 -12 -13 -13 -13 -12 -12 -12 -11 -12 -11 -11 -11 -11 -11 -11 -12 -12 -12 -11 -11 -11 -11 -11 -11 -11 -11 -11 -11 -10 -10 -9 -10 -10 -9 -9 -8 -8 -8
-14 -14 -13 -13 -13 -13 -13 -13 -13 -14 -15 -16 -18 -20 -20 -20 -18 -17 -15 -13 -12 -12 -12 -12 -12 -12 -12 -12 -11 -11 -12 -11 -12 -12 -12 -10 -10 -9 -9 -9 -9 -8 -8 -8 -8
-14 -14 -14 -14 -14 -14 -14 -15 -16 -17 -19 -21 -22 -22 -23 -23 -22 -22 -22 -20 -17 -14 -13 -12 -12 -12 -12 -12 -12 -11 -11 -11 -12 -12 -11 -10 -9 -9 -9 -9 -9 -8 -8 -8 -8
-15 -15 -15 -15 -15 -16 -16 -17 -18 -19 -21 -22 -23 -23 -23 -23 -23 -23 -24 -24 -23 -20 -18 -16 -14 -13 -13 -12 -12 -11 -11 -11 -12 -12 -11 -11 -9 -9 -9 -8 -8 -9 -9 -9 -9
-15 -15 -15 -16 -16 -17 -17 -18 -19 -21 -23 -24 -24 -23 -23 -23 -23 -24 -23 -23 -23 -22 -22 -17 -16 -15 -13 -14 -13 -11 -12 -11 -11 -11 -11 -11 -11 -7 -9 -8 -9 -9 -9 -10 -10
-15 -15 -15 -16 -17 -17 -18 -19 -21 -22 -23 -24 -24 -23 -23 -23 -23 -23 -23 -23 -23 -23 -23 -19 -20 -18 -16 -15 -14 -13 -12 -12 -12 -12 -11 -10 -10 -7 -8 -9 -9 -10 -10 -10 -9
-16 -16 -16 -17 -18 -18 -19 -20 -21 -23 -24 -24 -24 -24 -24 -23 -24 -23 -23 -22 -23 -23 -22 -21 -22 -19 -17 -16 -15 -14 -13 -13 -13 -12 -10 -10 -10 -7 -9 -9 -9 -10 -10 -9 -8
-16 -16 -17 -18 -18 -19 -20 -20 -22 -23 -24 -25 -24 -24 -24 -23 -23 -23 -23 -23 -22 -22 -22 -23 -22 -21 -19 -17 -16 -15 -14 -13 -12 -11 -10 -10 -9 -8 -8 -8 -10 -9 -9 -9 -8
-16 -17 -17 -18 -19 -20 -20 -21 -23 -23 -24 -24 -25 -24 -25 -24 -24 -23 -23 -23 -23 -23 -23 -22 -22 -22 -21 -19 -18 -16 -14 -14 -13 -12 -10 -10 -9 -8 -8 -9 -10 -9 -9 -9 -9
-17 -17 -18 -19 -19 -20 -20 -21 -23 -23 -24 -24 -24 -25 -25 -25 -25 -25 -24 -24 -24 -23 -23 -23 -23 -23 -23 -21 -19 -17 -17 -16 -14 -13 -11 -10 -9 -8 -8 -10 -11 -10 -10 -9 -10
-17 -17 -18 -19 -20 -20 -21 -22 -23 -24 -24 -24 -25 -25 -25 -25 -25 -25 -24 -24 -24 -23 -23 -23 -22 -22 -23 -22 -20 -19 -18 -16 -15 -13 -10 -10 -9 -9 -9 -10 -10 -10 -10 -9 -10
-17 -17 -18 -19 -20 -20 -21 -21 -23 -24 -24 -24 -24 -24 -25 -25 -25 -24 -24 -24 -24 -23 -23 -23 -23 -22 -22 -22 -22 -21 -19 -16 -14 -12 -11 -10 -9 -10 -10 -10 -11 -10 -10 -10 -10
-17 -17 -17 -18 -19 -20 -21 -22 -23 -24 -24 -24 -24 -24 -24 -24 -24 -24 -24 -24 -24 -24 -23 -23 -22 -22 -22 -22 -22 -21 -19 -17 -14 -13 -11 -10 -9 -12 -12 -12 -11 -11 -11 -11 -10
-18 -18 -18 -19 -19 -20 -21 -22 -23 -24 -23 -24 -24 -24 -24 -24 -24 -24 -24 -24 -24 -24 -23 -23 -23 -23 -22 -22 -22 -21 -20 -18 -15 -12 -11 -10 -10 -12 -12 -12 -12 -11 -11 -11 -11
-18 -18 -18 -19 -20 -21 -21 -21 -22 -23 -23 -24 -24 -24 -24 -24 -24 -23 -23 -23 -24 -23 -23 -23 -23 -23 -23 -22 -22 -22 -20 -18 -14 -12 -11 -10 -11 -13 -12 -13 -12 -11 -11 -12 -11
-18 -19 -19 -19 -20 -20 -21 -21 -21 -23 -23 -23 -24 -24 -24 -23 -23 -23 -23 -23 -23 -23 -23 -23 -22 -23 -23 -22 -22 -22 -21 -18 -15 -12 -11 -11 -13 -13 -13 -13 -12 -11 -11 -12 -12
-18 -19 -19 -19 -20 -20 -21 -21 -22 -21 -23 -23 -23 -23 -23 -23 -23 -23 -23 -23 -23 -23 -23 -22 -22 -22 -22 -22 -22 -21 -20 -18 -16 -13 -11 -12 -13 -13 -13 -13 -12 -11 -12 -13 -13

GFSSW_500_temp_024.txt.gz
Temp
-13 -13 -12 -12 -12 -11 -11 -11 -11 -11 -11 -11 -11 -11 -11 -10 -10 -10 -11 -11 -12 -12 -11 -11 -11 -11 -10 -10 -9 -9 -8 -8 -8 -9 -10 -10 -9 -9 -9 -8 -7 -7 -8 -8 -8
-12 -12 -12 -12 -12 -12 -12 -12 -11 -11 -11 -11 -11 -11 -11 -10 -10 -11 -10 -11 -12 -12 -11 -12 -12 -12 -11 -11 -10 -10 -9 -8 -9 -9 -10 -11 -10 -10 -9 -9 -8 -8 -9 -9 -9
-12 -12 -12 -12 -12 -12 -12 -12 -12 -12 -11 -11 -11 -11 -11 -11 -11 -11 -10 -10 -11 -11 -11 -12 -12 -13 -12 -11 -11 -10 -9 -9 -9 -10 -11 -11 -10 -10 -9 -9 -9 -10 -10 -9 -9
-13 -13 -12 -12 -12 -12 -12 -12 -12 -12 -12 -11 -11 -11 -11 -11 -11 -11 -11 -11 -11 -11 -10 -11 -11 -12 -11 -11 -12 -11 -10 -10 -10 -11 -11 -11 -10 -10 -9 -9 -10 -10 -9 -9 -9
-13 -13 -13 -13 -13 -13 -13 -12 -12 -12 -12 -12 -11 -11 -11 -12 -11 -11 -11 -11 -11 -11 -11 -11 -12 -12 -11 -10 -12 -11 -11 -11 -11 -11 -11 -11 -10 -9 -8 -8 -9 -9 -9 -9 -9
-13 -13 -13 -13 -13 -13 -13 -13 -12 -12 -12 -12 -12 -12 -12 -12 -12 -12 -11 -11 -11 -11 -11 -11 -11 -12 -12 -12 -11 -11 -11 -12 -12 -11 -12 -11 -10 -10 -8 -10 -9 -9 -9 -10 -9
-14 -14 -13 -13 -13 -13 -13 -13 -13 -13 -12 -12 -12 -12 -12 -12 -11 -12 -12 -12 -11 -11 -11 -11 -11 -11 -11 -11 -11 -12 -12 -11 -11 -11 -11 -11 -10 -8 -9 -10 -9 -10 -10 -10 -10
-14 -14 -14 -14 -13 -13 -13 -13 -13 -13 -13 -12 -12 -12 -12 -12 -12 -12 -12 -11 -12 -11 -11 -11 -12 -12 -11 -11 -11 -11 -12 -11 -10 -11 -11 -11 -8 -9 -10 -10 -10 -10 -10 -10 -10
-14 -14 -14 -14 -14 -14 -13 -13 -13 -13 -12 -12 -12 -12 -12 -12 -12 -11 -11 -12 -12 -12 -12 -12 -12 -11 -12 -11 -11 -11 -11 -11 -11 -11 -11 -11 -7 -9 -10 -11 -10 -10 -9 -9 -9
-15 -14 -14 -14 -14 -13 -13 -13 -13 -13 -12 -12 -12 -12 -12 -12 -12 -12 -11 -11 -11 -11 -12 -12 -12 -12 -11 -11 -11 -10 -10 -10 -10 -11 -12 -11 -9 -10 -10 -10 -9 -9 -9 -8 -8
-15 -15 -14 -14 -14 -13 -13 -13 -14 -14 -13 -13 -13 -12 -12 -12 -12 -12 -12 -11 -11 -11 -11 -12 -12 -12 -12 -12 -12 -12 -11 -11 -11 -11 -11 -10 -10 -10 -10 -9 -9 -9 -9 -9 -8
-15 -15 -14 -14 -14 -14 -14 -13 -13 -13 -14 -14 -14 -14 -15 -15 -16 -18 -18 -15 -15 -13 -12 -13 -11 -12 -12 -12 -12 -12 -12 -12 -12 -11 -11 -10 -10 -10 -9 -9 -9 -9 -9 -8 -8
-15 -15 -15 -15 -14 -14 -14 -14 -14 -14 -15 -15 -16 -17 -20 -21 -23 -23 -22 -21 -21 -20 -16 -16 -14 -13 -13 -13 -12 -12 -12 -12 -11 -11 -11 -11 -10 -10 -9 -9 -8 -8 -8 -8 -8
-15 -16 -15 -15 -15 -15 -15 -15 -15 -16 -16 -17 -19 -21 -23 -23 -24 -23 -22 -22 -23 -22 -23 -22 -20 -17 -15 -14 -13 -12 -12 -12 -12 -12 -11 -12 -9 -9 -9 -8 -8 -8 -9 -8 -9
-16 -15 -15 -15 -15 -16 -16 -16 -16 -17 -18 -19 -21 -23 -24 -24 -23 -23 -23 -22 -23 -23 -24 -23 -22 -20 -19 -16 -15 -13 -13 -12 -12 -12 -12 -11 -11 -8 -9 -8 -8 -9 -9 -9 -10
-15 -15 -16 -16 -16 -16 -17 -17 -17 -18 -20 -21 -23 -24 -24 -24 -24 -23 -23 -22 -23 -23 -23 -23 -23 -23 -22 -19 -18 -16 -14 -14 -13 -12 -12 -11 -12 -9 -9 -9 -9 -9 -9 -10 -10
-15 -15 -15 -16 -16 -17 -17 -18 -19 -20 -21 -22 -23 -24 -24 -24 -24 -24 -23 -23 -23 -23 -23 -23 -23 -23 -23 -21 -19 -17 -16 -15 -14 -13 -11 -11 -11 -8 -9 -9 -9 -10 -10 -10 -10
-15 -15 -16 -16 -16 -17 -18 -19 -19 -20 -22 -23 -23 -24 -24 -24 -24 -24 -24 -24 -23 -23 -23 -23 -23 -23 -23 -22 -20 -18 -16 -15 -13 -12 -11 -11 -10 -8 -9 -9 -9 -10 -9 -10 -9
-16 -16 -16 -17 -17 -17 -18 -19 -20 -21 -22 -23 -24 -24 -24 -25 -25 -25 -24 -24 -23 -23 -23 -23 -23 -23 -22 -22 -22 -19 -17 -17 -16 -13 -12 -11 -10 -8 -9 -10 -10 -11 -10 -10 -9
-16 -16 -17 -17 -17 -18 -19 -20 -20 -21 -22 -23 -24 -24 -24 -24 -25 -25 -25 -24 -24 -24 -23 -23 -23 -23 -23 -22 -21 -21 -19 -18 -16 -13 -12 -11 -10 -9 -9 -10 -10 -10 -10 -9 -9
-16 -17 -17 -18 -18 -19 -19 -20 -21 -21 -22 -23 -24 -24 -24 -24 -25 -25 -25 -25 -24 -24 -24 -24 -23 -23 -23 -23 -23 -22 -20 -18 -16 -14 -11 -11 -10 -10 -10 -9 -10 -10 -10 -10 -10
-16 -17 -17 -18 -18 -19 -19 -20 -21 -22 -22 -23 -24 -24 -25 -24 -24 -25 -25 -25 -25 -24 -24 -24 -23 -23 -23 -23 -23 -22 -21 -19 -16 -14 -12 -11 -10 -10 -10 -10 -11 -11 -11 -10 -10
-17 -17 -17 -18 -18 -19 -20 -20 -21 -21 -22 -23 -24 -24 -24 -24 -24 -24 -25 -25 -24 -24 -24 -24 -23 -23 -23 -23 -23 -22 -22 -20 -17 -14 -12 -11 -11 -12 -10 -10 -10 -10 -11 -11 -11
-17 -18 -18 -18 -18 -18 -20 -21 -21 -22 -22 -23 -24 -24 -24 -24 -24 -23 -24 -23 -24 -24 -24 -24 -23 -23 -23 -23 -23 -22 -22 -20 -17 -14 -12 -11 -11 -12 -11 -12 -11 -11 -12 -11 -11
-18 -18 -18 -18 -19 -19 -20 -21 -21 -22 -22 -23 -24 -23 -23 -23 -23 -23 -23 -23 -24 -24 -24 -24 -23 -23 -23 -23 -23 -22 -21 -20 -17 -13 -12 -11 -10 -14 -13 -13 -13 -12 -12 -11 -11
-18 -18 -19 -18 -19 -19 -20 -21 -21 -22 -22 -23 -23 -23 -23 -23 -23 -23 -23 -23 -23 -24 -24 -24 -23 -23 -23 -23 -23 -22 -21 -19 -17 -13 -12 -11 -12 -13 -13 -13 -13 -13 -12 -11 -11
-18 -19 -19 -18 -19 -19 -20 -21 -21 -22 -23 -23 -23 -23 -22 -22 -22 -22 -22 -22 -22 -22 -23 -23 -23 -23 -23 -23 -22 -22 -22 -20 -18 -15 -12 -11 -13 -15 -14 -13 -13 -13 -13 -11 -12

GFSSW_500_temp_027.txt.gz
Temp
-13 -13 -13 -13 -13 -12 -12 -12 -12 -11 -11 -11 -11 -11 -11 -11 -11 -10 -11 -11 -12 -12 -12 -12 -11 -11 -11 -11 -10 -10 -9 -8 -8 -8 -8 -9 -9 -9 -9 -9 -8 -8 -8 -8 -8
-13 -13 -13 -13 -13 -12 -12 -12 -12 -12 -11 -11 -11 -11 -11 -11 -11 -11 -10 -11 -11 -11 -11 -11 -12 -11 -11 -11 -11 -10 -9 -9 -9 -9 -9 -10 -9 -9 -9 -9 -9 -9 -9 -8 -8
-13 -13 -13 -13 -13 -13 -12 -12 -12 -12 -11 -11 -11 -12 -11 -11 -11 -11 -11 -11 -11 -11 -11 -11 -11 -12 -11 -11 -11 -11 -9 -9 -9 -9 -10 -11 -10 -10 -10 -10 -10 -9 -9 -8 -9
-13 -13 -13 -13 -13 -13 -13 -13 -12 -12 -12 -12 -12 -12 -12 -11 -11 -11 -11 -11 -11 -11 -11 -11 -11 -12 -12 -11 -11 -11 -11 -11 -10 -10 -11 -11 -10 -9 -9 -10 -10 -10 -10 -9 -9
-14 -14 -14 -14 -14 -14 -13 -13 -13 -13 -13 -13 -12 -12 -12 -12 -12 -11 -11 -12 -12 -12 -11 -11 -11 -12 -12 -12 -12 -11 -11 -11 -11 -11 -11 -11 -10 -10 -9 -10 -10 -11 -10 -10 -10
-14 -14 -14 -14 -14 -14 -14 -13 -13 -13 -13 -13 -13 -13 -12 -12 -12 -12 -12 -12 -12 -12 -12 -11 -11 -11 -11 -11 -11 -11 -11 -11 -11 -11 -11 -11 -10 -10 -8 -10 -10 -10 -10 -10 -10
-14 -14 -14 -14 -14 -14 -14 -13 -13 -13 -13 -13 -12 -13 -13 -12 -12 -12 -12 -12 -12 -12 -12 -12 -12 -12 -11 -11 -11 -11 -11 -11 -11 -11 -11 -12 -11 -8 -9 -9 -9 -9 -9 -9 -9
-14 -14 -14 -14 -14 -14 -14 -13 -13 -13 -13 -13 -13 -13 -13 -13 -13 -12 -12 -12 -12 -12 -12 -12 -12 -12 -12 -11 -11 -11 -11 -11 -10 -12 -11 -12 -9 -9 -10 -10 -9 -9 -9 -9 -9
-15 -15 -15 -15 -14 -14 -14 -13 -13 -13 -12 -12 -12 -12 -13 -12 -12 -12 -12 -12 -12 -12 -12 -12 -12 -12 -12 -12 -12 -11 -11 -10 -11 -11 -11 -12 -9 -10 -10 -10 -9 -9 -9 -9 -9
-15 -15 -15 -14 -14 -14 -14 -14 -13 -13 -13 -13 -13 -13 -12 -12 -12 -12 -12 -12 -12 -12 -12 -12 -12 -12 -12 -12 -12 -11 -11 -11 -11 -11 -11 -11 -9 -11 -10 -10 -10 -9 -9 -9 -9
-15 -15 -15 -15 -14 -14 -14 -14 -14 -14 -14 -14 -13 -13 -13 -13 -13 -12 -12 -12 -12 -12 -12 -12 -12 -12 -12 -12 -12 -12 -12 -12 -12 -11 -12 -11 -10 -10 -10 -10 -9 -9 -9 -9 -9
-14 -14 -15 -15 -15 -14 -14 -14 -14 -14 -15 -14 -14 -14 -13 -13 -13 -13 -13 -14 -14 -14 -13 -12 -12 -12 -12 -12 -12 -12 -12 -12 -12 -12 -12 -11 -10 -10 -10 -9 -9 -9 -9 -9 -8
-15 -15 -15 -15 -14 -14 -14 -14 -14 -14 -15 -15 -14 -15 -14 -14 -14 -15 -17 -18 -20 -21 -21 -20 -16 -15 -13 -13 -13 -13 -13 -12 -12 -12 -12 -11 -11 -10 -10 -9 -9 -9 -9 -9 -9
-15 -15 -15 -14 -14 -14 -14 -14 -14 -15 -15 -16 -16 -16 -16 -17 -17 -19 -20 -22 -23 -22 -22 -21 -21 -20 -19 -17 -16 -15 -14 -13 -12 -13 -12 -12 -10 -10 -9 -9 -9 -9 -9 -9 -8
-15 -15 -15 -15 -15 -15 -15 -15 -15 -16 -16 -17 -17 -17 -18 -18 -19 -22 -22 -23 -23 -22 -22 -22 -23 -23 -24 -22 -21 -18 -16 -14 -13 -13 -12 -12 -11 -9 -10 -9 -9 -9 -9 -9 -9
-15 -15 -15 -15 -15 -16 -16 -16 -16 -17 -17 -18 -18 -18 -19 -22 -23 -23 -23 -23 -23 -22 -22 -22 -23 -23 -24 -24 -24 -21 -19 -17 -15 -13 -12 -12 -12 -10 -10 -10 -10 -10 -9 -9 -9
-15 -15 -15 -16 -16 -16 -16 -17 -17 -18 -18 -19 -19 -20 -22 -23 -23 -24 -24 -24 -24 -23 -22 -22 -23 -23 -24 -24 -23 -23 -21 -19 -18 -15 -12 -12 -12 -10 -10 -10 -10 -10 -10 -10 -9
-15 -15 -16 -16 -16 -16 -17 -17 -18 -19 -19 -20 -20 -22 -23 -24 -24 -24 -24 -24 -24 -23 -23 -23 -23 -23 -23 -24 -24 -23 -22 -20 -19 -17 -12 -13 -11 -11 -11 -10 -10 -10 -10 -9 -10
-16 -16 -16 -16 -16 -17 -17 -18 -18 -19 -20 -20 -21 -22 -23 -24 -24 -24 -25 -25 -25 -24 -24 -23 -23 -23 -24 -24 -23 -23 -22 -21 -20 -17 -14 -12 -11 -11 -10 -11 -11 -11 -10 -10 -10
-16 -16 -16 -17 -17 -17 -18 -18 -19 -19 -20 -21 -21 -22 -23 -24 -24 -24 -25 -25 -25 -24 -24 -24 -23 -23 -23 -23 -23 -23 -23 -22 -21 -18 -15 -12 -12 -11 -11 -11 -11 -11 -10 -10 -10
-16 -16 -17 -17 -18 -18 -18 -19 -19 -20 -21 -21 -22 -23 -24 -24 -25 -24 -25 -25 -25 -25 -24 -24 -24 -23 -23 -23 -23 -22 -22 -22 -21 -18 -15 -13 -12 -11 -11 -10 -11 -11 -10 -10 -10
-17 -17 -17 -17 -18 -18 -18 -19 -20 -21 -21 -22 -22 -23 -24 -24 -24 -24 -25 -25 -24 -24 -24 -24 -24 -24 -23 -23 -22 -22 -22 -22 -21 -19 -15 -13 -13 -12 -11 -11 -11 -11 -10 -10 -10
-17 -17 -17 -17 -18 -18 -19 -19 -20 -21 -22 -22 -22 -23 -23 -23 -23 -23 -24 -24 -24 -24 -24 -24 -24 -23 -24 -23 -23 -23 -23 -22 -21 -19 -16 -14 -13 -13 -12 -11 -11 -11 -11 -11 -10
-17 -17 -17 -17 -18 -18 -19 -19 -20 -21 -22 -22 -22 -23 -22 -23 -24 -23 -23 -24 -24 -24 -24 -24 -24 -24 -23 -23 -23 -22 -22 -22 -22 -19 -17 -13 -15 -14 -13 -12 -11 -11 -11 -11 -11
-17 -17 -17 -17 -18 -18 -19 -19 -20 -21 -22 -23 -23 -23 -22 -22 -22 -23 -23 -23 -23 -23 -24 -24 -23 -23 -24 -24 -23 -23 -22 -22 -21 -20 -17 -15 -15 -14 -13 -12 -11 -11 -12 -12 -12
-17 -17 -17 -18 -19 -19 -19 -20 -20 -21 -22 -23 -23 -23 -22 -21 -22 -22 -22 -22 -22 -22 -23 -24 -24 -23 -23 -23 -23 -23 -23 -22 -21 -20 -17 -16 -15 -16 -14 -13 -12 -11 -12 -12 -12
-17 -18 -18 -18 -19 -19 -19 -20 -20 -21 -22 -23 -23 -22 -21 -21 -21 -22 -21 -21 -22 -22 -22 -23 -23 -23 -23 -23 -23 -22 -22 -22 -21 -19 -18 -15 -15 -15 -15 -14 -13 -13 -13 -12 -12

GFSSW_500_temp_030.txt.gz
Temp
-13 -12 -12 -12 -12 -12 -12 -12 -12 -12 -12 -12 -11 -11 -11 -11 -11 -10 -10 -10 -10 -10 -11 -12 -11 -11 -11 -11 -10 -10 -9 -8 -8 -8 -9 -9 -9 -9 -9 -9 -9 -9 -9 -8 -8
-13 -13 -13 -13 -12 -12 -12 -12 -12 -12 -12 -12 -12 -11 -11 -11 -11 -11 -10 -10 -10 -10 -11 -11 -11 -11 -11 -11 -10 -10 -9 -8 -9 -9 -9 -9 -10 -9 -9 -9 -9 -9 -9 -9 -8
-14 -13 -13 -13 -13 -13 -13 -13 -12 -12 -12 -12 -12 -12 -12 -12 -12 -11 -11 -11 -11 -11 -11 -11 -11 -12 -11 -11 -10 -10 -9 -9 -9 -10 -10 -10 -9 -10 -9 -9 -9 -9 -9 -9 -9
-14 -14 -13 -13 -13 -13 -13 -13 -13 -13 -13 -12 -12 -12 -12 -12 -12 -11 -12 -12 -12 -11 -11 -11 -11 -11 -11 -11 -11 -11 -10 -10 -10 -10 -11 -11 -11 -10 -10 -10 -10 -9 -9 -9 -9
-14 -14 -14 -14 -14 -14 -14 -14 -13 -13 -13 -13 -13 -13 -12 -12 -12 -12 -12 -12 -12 -12 -11 -11 -11 -11 -11 -11 -11 -11 -10 -11 -11 -11 -10 -11 -10 -10 -10 -10 -10 -10 -9 -9 -9
-14 -14 -14 -14 -14 -14 -14 -14 -14 -13 -13 -13 -13 -13 -13 -13 -12 -12 -12 -12 -12 -12 -12 -12 -12 -12 -11 -11 -11 -11 -11 -11 -11 -12 -12 -12 -11 -12 -9 -10 -10 -10 -10 -10 -10
-14 -14 -14 -14 -14 -14 -14 -14 -13 -13 -13 -13 -13 -13 -13 -12 -12 -12 -12 -12 -12 -12 -12 -12 -12 -12 -11 -11 -11 -11 -11 -11 -11 -11 -11 -12 -12 -9 -9 -10 -10 -10 -10 -10 -10
-15 -15 -15 -15 -15 -14 -14 -14 -13 -13 -13 -13 -13 -13 -13 -13 -13 -13 -13 -13 -12 -12 -12 -12 -12 -12 -12 -12 -12 -12 -12 -11 -10 -11 -10 -12 -10 -8 -10 -10 -11 -10 -10 -10 -10
-15 -15 -15 -15 -15 -14 -14 -14 -13 -13 -13 -13 -13 -13 -13 -13 -13 -13 -13 -13 -13 -13 -13 -13 -12 -12 -12 -12 -12 -12 -11 -11 -11 -11 -11 -12 -10 -8 -10 -11 -9 -10 -10 -10 -10
-14 -14 -14 -14 -14 -14 -14 -14 -13 -13 -13 -13 -13 -13 -13 -13 -13 -13 -13 -13 -13 -13 -12 -12 -12 -13 -13 -12 -12 -11 -12 -12 -12 -12 -13 -12 -10 -10 -10 -11 -10 -10 -9 -9 -9
-14 -14 -14 -14 -14 -14 -14 -14 -14 -13 -13 -14 -13 -13 -14 -14 -13 -13 -13 -13 -13 -13 -13 -12 -12 -12 -12 -13 -13 -12 -12 -12 -11 -12 -12 -11 -10 -10 -10 -10 -10 -10 -10 -9 -9
-15 -15 -15 -14 -14 -14 -14 -14 -14 -14 -14 -14 -14 -14 -14 -14 -14 -14 -14 -14 -13 -13 -13 -12 -12 -13 -12 -12 -12 -12 -12 -12 -12 -12 -12 -12 -10 -11 -11 -10 -10 -9 -9 -9 -9
-15 -15 -15 -15 -15 -15 -14 -14 -15 -15 -15 -15 -15 -15 -15 -15 -15 -15 -15 -14 -14 -14 -15 -15 -17 -16 -14 -14 -13 -13 -12 -12 -12 -12 -12 -12 -11 -10 -10 -10 -10 -10 -9 -9 -9
-14 -15 -15 -15 -15 -15 -15 -15 -15 -15 -15 -15 -15 -16 -16 -16 -16 -16 -16 -16 -17 -18 -18 -18 -20 -20 -20 -18 -17 -16 -15 -14 -14 -12 -12 -12 -11 -11 -10 -10 -10 -10 -9 -9 -10
-15 -15 -15 -15 -15 -15 -15 -15 -15 -15 -16 -16 -16 -17 -17 -17 -17 -18 -18 -19 -20 -20 -21 -20 -22 -22 -22 -22 -23 -21 -20 -22 -16 -14 -12 -12 -13 -10 -11 -10 -9 -10 -10 -10 -9
-15 -15 -15 -15 -15 -15 -15 -15 -16 -16 -17 -17 -18 -18 -18 -19 -19 -20 -21 -22 -22 -22 -23 -22 -22 -22 -22 -23 -23 -24 -23 -23 -22 -21 -17 -12 -15 -11 -11 -10 -10 -10 -10 -10 -9
-15 -15 -15 -15 -15 -15 -15 -16 -16 -17 -17 -18 -18 -19 -20 -20 -21 -22 -23 -23 -23 -23 -23 -23 -22 -22 -22 -22 -24 -24 -24 -23 -22 -22 -19 -14 -18 -11 -11 -11 -11 -10 -10 -10 -9
-15 -15 -16 -16 -16 -16 -16 -16 -17 -18 -18 -19 -19 -20 -21 -21 -22 -23 -24 -24 -24 -23 -23 -23 -23 -23 -23 -22 -23 -23 -24 -23 -21 -20 -20 -20 -19 -11 -11 -12 -11 -11 -10 -10 -9
-16 -16 -16 -16 -16 -16 -16 -17 -17 -18 -19 -19 -20 -21 -21 -22 -23 -24 -24 -24 -24 -24 -23 -23 -23 -23 -22 -23 -24 -23 -23 -23 -22 -21 -20 -19 -18 -12 -11 -12 -12 -10 -10 -10 -9
-16 -16 -16 -16 -16 -17 -17 -17 -18 -18 -19 -20 -21 -21 -22 -22 -23 -23 -24 -24 -24 -24 -24 -24 -23 -23 -23 -22 -23 -23 -23 -22 -22 -21 -20 -18 -17 -12 -12 -12 -12 -10 -9 -9 -10
-16 -16 -17 -17 -17 -17 -17 -18 -18 -18 -19 -21 -21 -22 -22 -22 -23 -23 -23 -24 -24 -24 -24 -24 -24 -23 -23 -23 -23 -22 -22 -22 -22 -21 -19 -18 -17 -15 -13 -12 -11 -11 -11 -11 -10
-16 -16 -17 -17 -17 -18 -18 -18 -19 -19 -20 -21 -22 -22 -22 -22 -22 -23 -24 -24 -24 -24 -24 -24 -23 -23 -23 -23 -22 -22 -22 -22 -22 -21 -20 -19 -17 -15 -13 -12 -12 -11 -10 -11 -11
-17 -17 -17 -17 -17 -18 -18 -19 -19 -19 -20 -22 -22 -22 -21 -22 -21 -23 -23 -23 -23 -23 -24 -23 -23 -23 -24 -23 -22 -22 -22 -22 -21 -21 -21 -20 -19 -16 -14 -13 -11 -12 -11 -10 -10
-17 -17 -17 -17 -17 -18 -18 -19 -19 -19 -21 -22 -23 -22 -21 -21 -22 -22 -22 -22 -22 -23 -23 -24 -23 -23 -23 -23 -23 -22 -22 -23 -22 -22 -21 -20 -19 -18 -15 -13 -12 -12 -11 -11 -11
-17 -17 -17 -17 -17 -17 -18 -19 -19 -20 -21 -22 -22 -21 -21 -21 -21 -22 -22 -21 -21 -22 -22 -23 -23 -23 -23 -23 -23 -23 -23 -22 -22 -22 -22 -21 -20 -18 -16 -14 -13 -12 -12 -12 -11
-17 -17 -17 -17 -18 -18 -18 -19 -19 -20 -20 -21 -20 -20 -21 -21 -21 -21 -21 -21 -21 -22 -22 -22 -23 -23 -23 -24 -23 -23 -23 -23 -22 -22 -22 -20 -17 -16 -14 -14 -14 -12 -12 -12 -11
-17 -17 -18 -17 -18 -18 -19 -19 -19 -20 -20 -21 -20 -21 -21 -21 -21 -21 -21 -21 -21 -21 -21 -21 -22 -23 -23 -23 -23 -23 -23 -23 -23 -22 -21 -19 -19 -17 -16 -16 -13 -13 -12 -12 -12

GFSSW_500_temp_033.txt.gz
Temp
-13 -13 -13 -13 -13 -13 -13 -13 -13 -12 -12 -12 -12 -11 -11 -11 -11 -11 -10 -10 -10 -10 -11 -11 -11 -11 -11 -10 -10 -10 -9 -8 -8 -8 -9 -9 -9 -9 -9 -9 -10 -9 -9 -8 -8
-13 -13 -13 -13 -13 -13 -13 -13 -13 -12 -12 -12 -12 -12 -11 -12 -11 -11 -11 -10 -10 -10 -10 -10 -11 -11 -11 -11 -11 -11 -9 -8 -9 -9 -9 -9 -9 -9 -10 -10 -10 -10 -9 -8 -8
-13 -13 -13 -13 -13 -13 -13 -13 -13 -13 -13 -12 -12 -12 -12 -12 -12 -11 -11 -11 -11 -11 -10 -10 -10 -10 -10 -11 -11 -11 -10 -9 -9 -10 -10 -9 -9 -10 -10 -11 -9 -11 -9 -9 -9
-14 -14 -14 -14 -13 -13 -13 -13 -13 -13 -13 -12 -12 -12 -12 -12 -12 -12 -12 -11 -11 -11 -11 -11 -11 -10 -10 -11 -11 -12 -10 -10 -10 -11 -12 -9 -10 -10 -10 -10 -9 -11 -11 -10 -10
-14 -14 -14 -14 -14 -14 -14 -13 -13 -13 -13 -13 -13 -12 -12 -12 -12 -12 -12 -12 -12 -12 -11 -11 -11 -11 -11 -11 -12 -10 -10 -11 -11 -12 -12 -10 -10 -10 -10 -10 -10 -10 -11 -10 -9
-15 -15 -15 -14 -14 -14 -14 -14 -14 -14 -13 -13 -13 -13 -13 -13 -12 -12 -12 -12 -12 -12 -12 -12 -11 -11 -11 -11 -11 -10 -11 -11 -11 -11 -11 -10 -9 -11 -10 -10 -10 -10 -10 -10 -10
-14 -14 -14 -14 -14 -14 -14 -14 -14 -14 -14 -13 -13 -13 -13 -13 -13 -12 -12 -12 -12 -12 -12 -12 -12 -12 -11 -11 -11 -11 -11 -10 -11 -10 -10 -11 -10 -11 -9 -11 -11 -11 -10 -10 -10
-14 -14 -14 -14 -14 -14 -14 -14 -14 -14 -14 -13 -13 -13 -13 -13 -13 -12 -12 -12 -12 -12 -12 -12 -12 -12 -12 -12 -11 -11 -11 -11 -9 -11 -10 -12 -10 -9 -10 -10 -11 -11 -11 -11 -10
-14 -14 -14 -14 -14 -13 -13 -13 -13 -13 -13 -13 -13 -13 -13 -13 -13 -13 -13 -12 -12 -12 -12 -12 -12 -12 -12 -12 -12 -12 -11 -11 -10 -11 -11 -12 -10 -9 -10 -11 -11 -11 -11 -11 -11
-14 -15 -15 -14 -14 -14 -14 -14 -14 -14 -14 -14 -14 -14 -14 -13 -13 -13 -13 -13 -13 -13 -13 -13 -13 -13 -12 -13 -12 -12 -12 -12 -11 -11 -12 -12 -11 -9 -10 -11 -12 -12 -11 -11 -11
-14 -14 -14 -14 -14 -14 -14 -14 -14 -14 -14 -14 -14 -14 -14 -14 -13 -13 -14 -14 -13 -13 -13 -13 -13 -13 -13 -13 -12 -13 -12 -12 -11 -12 -14 -13 -11 -9 -10 -10 -11 -11 -11 -10 -10
-14 -14 -14 -14 -14 -14 -14 -14 -14 -14 -14 -14 -14 -15 -15 -15 -15 -14 -14 -14 -14 -14 -14 -14 -14 -14 -13 -13 -13 -13 -13 -12 -12 -12 -16 -13 -12 -10 -10 -11 -10 -10 -11 -11 -10
-14 -14 -14 -14 -14 -14 -14 -14 -14 -14 -14 -15 -15 -15 -15 -15 -15 -15 -15 -15 -15 -15 -15 -15 -14 -15 -14 -13 -13 -13 -13 -13 -13 -13 -15 -12 -12 -11 -11 -11 -10 -10 -10 -10 -10
-14 -15 -15 -14 -14 -15 -15 -14 -14 -14 -14 -15 -15 -15 -15 -16 -16 -15 -16 -16 -16 -16 -16 -16 -16 -16 -16 -15 -15 -14 -14 -14 -13 -13 -13 -12 -13 -11 -11 -11 -10 -11 -10 -10 -9
-15 -15 -15 -15 -15 -15 -15 -15 -15 -15 -16 -15 -15 -16 -16 -16 -16 -17 -17 -17 -18 -18 -18 -18 -20 -22 -22 -21 -22 -19 -18 -18 -16 -15 -15 -15 -16 -11 -11 -11 -11 -11 -11 -10 -10
-15 -15 -15 -15 -15 -15 -15 -15 -15 -15 -16 -16 -17 -17 -17 -18 -18 -19 -19 -20 -20 -21 -23 -23 -23 -22 -22 -22 -22 -22 -22 -22 -21 -21 -21 -15 -17 -13 -12 -12 -11 -11 -10 -10 -10
-15 -16 -16 -16 -15 -15 -15 -15 -15 -16 -16 -17 -17 -18 -19 -19 -20 -21 -23 -24 -24 -23 -23 -23 -22 -22 -21 -23 -23 -23 -23 -22 -21 -21 -20 -20 -19 -18 -13 -14 -14 -13 -11 -10 -10
-16 -16 -16 -16 -16 -16 -16 -15 -16 -17 -17 -18 -18 -19 -19 -20 -21 -23 -24 -24 -23 -24 -24 -23 -22 -22 -21 -22 -23 -22 -22 -22 -22 -21 -20 -20 -19 -18 -16 -17 -15 -12 -11 -10 -10
-16 -16 -16 -16 -16 -16 -16 -16 -16 -17 -17 -18 -19 -20 -21 -23 -21 -23 -23 -24 -24 -24 -24 -23 -23 -22 -23 -22 -21 -23 -23 -23 -23 -22 -20 -20 -19 -19 -18 -17 -15 -12 -11 -11 -10
-16 -16 -16 -16 -16 -16 -16 -17 -17 -17 -18 -18 -19 -20 -21 -21 -21 -23 -24 -24 -23 -24 -25 -24 -23 -23 -24 -22 -22 -21 -22 -23 -22 -21 -21 -20 -19 -17 -18 -17 -15 -13 -11 -11 -10
-16 -16 -16 -16 -16 -16 -17 -17 -17 -17 -18 -19 -20 -21 -21 -21 -21 -21 -22 -22 -23 -23 -23 -25 -23 -23 -24 -23 -22 -21 -22 -21 -21 -21 -21 -19 -18 -17 -18 -16 -16 -13 -11 -11 -10
-16 -16 -16 -16 -17 -17 -17 -17 -18 -18 -18 -19 -20 -21 -21 -21 -21 -21 -21 -23 -23 -22 -23 -23 -22 -22 -22 -23 -22 -23 -22 -22 -22 -21 -21 -20 -17 -18 -17 -16 -16 -13 -11 -11 -10
-16 -16 -16 -17 -17 -17 -17 -18 -18 -19 -19 -20 -20 -21 -20 -20 -20 -21 -21 -22 -21 -22 -22 -22 -22 -22 -22 -23 -23 -23 -23 -22 -22 -21 -20 -20 -17 -17 -17 -17 -14 -12 -12 -11 -11
-16 -16 -16 -17 -17 -18 -18 -18 -18 -19 -19 -20 -20 -20 -20 -20 -20 -20 -21 -21 -21 -22 -22 -22 -22 -22 -22 -22 -21 -22 -22 -22 -21 -21 -21 -20 -18 -16 -17 -17 -17 -13 -12 -12 -12
-16 -16 -16 -17 -17 -18 -18 -18 -19 -19 -19 -20 -20 -20 -20 -20 -20 -21 -21 -21 -21 -21 -21 -21 -21 -23 -22 -21 -23 -22 -23 -23 -22 -21 -21 -21 -20 -17 -17 -17 -17 -12 -12 -12 -12
-16 -16 -16 -17 -17 -18 -18 -18 -19 -19 -20 -20 -20 -20 -20 -20 -20 -20 -20 -21 -21 -21 -21 -21 -21 -22 -22 -22 -22 -24 -23 -23 -23 -20 -22 -22 -21 -20 -18 -18 -16 -13 -13 -13 -12
-16 -16 -16 -16 -17 -18 -18 -18 -20 -20 -20 -20 -20 -20 -20 -21 -21 -20 -20 -20 -21 -21 -21 -21 -21 -22 -22 -22 -23 -24 -23 -23 -23 -21 -21 -20 -21 -21 -21 -18 -17 -14 -13 -12 -12

GFSSW_500_temp_036.txt.gz
Temp
-13 -13 -13 -13 -13 -13 -13 -13 -13 -13 -13 -13 -12 -12 -12 -11 -11 -11 -10 -10 -10 -11 -11 -10 -10 -10 -10 -11 -10 -11 -10 -8 -8 -8 -8 -9 -11 -11 -11 -11 -10 -9 -9 -8 -8
-13 -13 -13 -13 -13 -13 -13 -13 -13 -13 -13 -13 -12 -12 -12 -12 -12 -10 -11 -11 -10 -11 -11 -10 -10 -10 -10 -10 -11 -11 -10 -8 -9 -9 -9 -9 -10 -11 -11 -10 -10 -10 -9 -8 -9
-13 -13 -13 -13 -14 -13 -13 -13 -13 -13 -13 -13 -12 -12 -12 -12 -12 -11 -11 -11 -11 -11 -11 -10 -11 -10 -10 -11 -10 -11 -9 -10 -9 -10 -10 -10 -9 -12 -11 -10 -9 -10 -10 -9 -8
-14 -14 -14 -14 -14 -13 -14 -13 -13 -13 -13 -13 -13 -13 -12 -12 -11 -12 -12 -12 -11 -11 -11 -11 -11 -11 -10 -10 -11 -11 -9 -10 -10 -10 -11 -11 -11 -11 -9 -9 -9 -11 -11 -9 -9
-14 -14 -14 -14 -14 -14 -14 -13 -13 -13 -13 -13 -13 -13 -13 -13 -11 -12 -12 -12 -12 -12 -12 -11 -11 -11 -11 -11 -11 -10 -9 -10 -10 -11 -12 -11 -10 -10 -10 -10 -10 -11 -11 -10 -10
-13 -14 -14 -14 -14 -14 -14 -14 -14 -14 -14 -14 -14 -13 -13 -13 -13 -12 -12 -12 -12 -12 -12 -12 -12 -12 -11 -11 -11 -11 -10 -10 -10 -11 -12 -10 -10 -11 -10 -9 -10 -10 -10 -10 -9
-14 -14 -14 -14 -14 -14 -14 -14 -14 -14 -13 -13 -13 -13 -13 -13 -13 -12 -12 -12 -12 -12 -12 -12 -12 -12 -12 -12 -12 -12 -11 -10 -10 -10 -10 -11 -11 -11 -9 -9 -10 -11 -10 -11 -12
-14 -14 -14 -14 -14 -14 -14 -14 -14 -13 -13 -13 -13 -13 -12 -13 -12 -12 -12 -12 -12 -12 -12 -12 -12 -12 -12 -12 -12 -12 -11 -10 -9 -11 -10 -12 -11 -10 -10 -10 -10 -11 -11 -11 -11
-14 -14 -14 -14 -14 -14 -14 -14 -13 -13 -13 -13 -13 -13 -13 -13 -12 -12 -12 -12 -12 -12 -12 -12 -12 -12 -12 -12 -12 -12 -11 -12 -11 -11 -11 -12 -11 -10 -10 -10 -10 -11 -11 -11 -11
-14 -14 -14 -14 -14 -14 -14 -14 -14 -14 -14 -14 -14 -14 -14 -13 -13 -13 -13 -13 -13 -13 -13 -12 -12 -12 -12 -12 -12 -12 -13 -12 -12 -11 -13 -13 -12 -11 -10 -10 -10 -11 -11 -12 -11
-14 -14 -14 -14 -14 -14 -14 -14 -14 -14 -14 -14 -14 -14 -14 -14 -14 -14 -14 -14 -13 -13 -13 -13 -13 -13 -13 -13 -13 -13 -13 -12 -12 -11 -15 -15 -15 -10 -11 -11 -11 -10 -11 -11 -11
-14 -14 -14 -14 -14 -14 -14 -14 -14 -14 -14 -14 -14 -14 -14 -14 -14 -14 -14 -14 -14 -14 -14 -14 -14 -14 -14 -14 -14 -14 -13 -12 -12 -12 -14 -13 -13 -10 -11 -10 -11 -11 -11 -11 -11
-15 -15 -15 -15 -14 -14 -14 -14 -14 -14 -14 -14 -14 -15 -15 -15 -15 -15 -15 -15 -15 -15 -15 -15 -15 -15 -15 -14 -14 -14 -14 -13 -13 -13 -13 -12 -13 -12 -10 -11 -11 -11 -10 -10 -11
-15 -15 -15 -15 -15 -15 -15 -15 -14 -14 -14 -14 -15 -15 -15 -15 -14 -15 -15 -15 -16 -16 -16 -16 -16 -16 -16 -16 -16 -15 -15 -15 -14 -14 -13 -13 -13 -13 -11 -11 -11 -11 -11 -10 -10
-16 -16 -16 -15 -15 -15 -15 -15 -15 -15 -15 -15 -15 -15 -15 -15 -15 -16 -16 -16 -16 -16 -17 -17 -18 -19 -19 -19 -20 -19 -20 -19 -17 -16 -15 -13 -15 -11 -11 -11 -11 -11 -12 -11 -11
-16 -16 -16 -16 -16 -16 -16 -15 -15 -15 -15 -15 -16 -15 -15 -17 -17 -17 -18 -19 -21 -22 -22 -22 -22 -22 -22 -21 -20 -21 -21 -21 -21 -21 -20 -13 -17 -12 -12 -12 -12 -14 -14 -12 -11
-16 -16 -16 -16 -16 -16 -16 -16 -16 -16 -16 -16 -16 -17 -17 -18 -19 -20 -21 -22 -22 -23 -23 -22 -22 -21 -21 -21 -21 -21 -21 -21 -21 -21 -20 -17 -20 -16 -13 -13 -15 -15 -14 -13 -11
-16 -16 -16 -16 -16 -16 -16 -16 -16 -16 -16 -17 -17 -17 -18 -21 -21 -22 -22 -22 -22 -22 -23 -23 -23 -22 -21 -21 -20 -20 -21 -21 -21 -21 -20 -20 -20 -18 -16 -17 -16 -15 -15 -14 -13
-15 -16 -16 -16 -16 -16 -16 -17 -16 -17 -17 -17 -17 -18 -20 -21 -21 -22 -22 -22 -22 -22 -23 -23 -23 -22 -22 -21 -21 -21 -22 -21 -22 -21 -21 -20 -20 -19 -17 -16 -15 -15 -15 -15 -15
-15 -16 -16 -16 -16 -16 -17 -17 -17 -17 -17 -18 -18 -18 -20 -21 -21 -20 -22 -22 -22 -22 -23 -23 -21 -23 -22 -23 -22 -22 -22 -21 -22 -20 -20 -20 -20 -20 -18 -18 -16 -16 -16 -16 -14
-15 -15 -15 -16 -16 -16 -17 -17 -17 -17 -18 -18 -18 -19 -20 -20 -20 -20 -20 -20 -21 -21 -22 -22 -21 -21 -22 -22 -23 -22 -21 -21 -21 -21 -21 -20 -20 -19 -18 -18 -17 -16 -16 -16 -14
-15 -15 -15 -15 -16 -16 -17 -17 -17 -18 -18 -18 -19 -19 -19 -20 -20 -20 -20 -20 -22 -21 -21 -21 -21 -21 -21 -21 -22 -21 -21 -21 -22 -21 -21 -20 -18 -19 -18 -18 -17 -16 -15 -15 -12
-15 -15 -15 -16 -16 -16 -17 -17 -18 -18 -18 -19 -19 -19 -20 -19 -20 -20 -20 -20 -20 -21 -21 -21 -21 -21 -21 -21 -22 -22 -21 -21 -21 -20 -20 -20 -19 -19 -18 -17 -17 -15 -15 -13 -12
-15 -15 -15 -16 -16 -17 -18 -18 -18 -18 -19 -19 -19 -19 -19 -19 -20 -20 -20 -20 -20 -21 -21 -21 -21 -21 -21 -21 -21 -21 -21 -21 -21 -21 -20 -21 -19 -19 -17 -17 -17 -16 -15 -15 -13
-16 -16 -16 -16 -16 -17 -18 -18 -18 -19 -19 -19 -20 -20 -20 -20 -20 -21 -20 -20 -20 -21 -20 -21 -20 -21 -21 -21 -21 -21 -21 -21 -20 -22 -21 -21 -21 -19 -17 -17 -17 -17 -16 -15 -13
-16 -16 -16 -16 -16 -17 -18 -18 -18 -19 -19 -20 -20 -20 -20 -20 -20 -20 -20 -20 -20 -20 -20 -20 -21 -21 -21 -20 -21 -21 -21 -21 -20 -21 -21 -22 -21 -20 -19 -18 -18 -16 -15 -14 -13
-16 -16 -16 -16 -16 -17 -17 -18 -18 -19 -20 -20 -20 -20 -20 -20 -20 -20 -20 -20 -20 -20 -20 -20 -20 -21 -21 -21 -21 -21 -21 -21 -20 -22 -22 -22 -21 -21 -21 -18 -16 -15 -15 -14 -13

GFSSW_500_temp_042.txt.gz
Temp
-12 -13 -13 -13 -13 -13 -13 -13 -13 -13 -13 -13 -13 -13 -13 -13 -13 -12 -13 -13 -12 -12 -12 -12 -12 -12 -11 -11 -10 -10 -9 -7 -8 -8 -8 -9 -8 -9 -9 -9 -10 -9 -8 -9 -8
-13 -13 -13 -13 -14 -14 -14 -13 -13 -13 -13 -13 -13 -13 -13 -13 -13 -13 -13 -13 -13 -12 -12 -12 -12 -11 -11 -10 -10 -10 -9 -8 -9 -10 -9 -10 -8 -9 -9 -9 -10 -9 -7 -9 -8
-13 -13 -13 -13 -14 -14 -14 -14 -14 -14 -13 -13 -13 -13 -13 -13 -13 -13 -13 -13 -12 -12 -12 -12 -12 -12 -11 -11 -10 -10 -9 -10 -9 -10 -10 -11 -10 -9 -9 -9 -9 -10 -9 -9 -10
-14 -14 -14 -14 -14 -14 -14 -14 -14 -14 -14 -14 -14 -14 -13 -13 -13 -13 -13 -13 -12 -12 -12 -12 -12 -12 -11 -11 -11 -10 -10 -10 -10 -10 -10 -11 -11 -10 -9 -9 -9 -9 -9 -8 -9
-14 -14 -14 -14 -14 -14 -14 -14 -15 -15 -14 -14 -14 -14 -14 -14 -14 -14 -13 -13 -13 -13 -12 -12 -12 -12 -12 -12 -11 -10 -10 -10 -10 -10 -10 -11 -12 -10 -10 -10 -9 -9 -9 -8 -7
-14 -14 -14 -14 -14 -14 -14 -14 -14 -14 -14 -14 -14 -14 -14 -14 -14 -14 -13 -13 -13 -13 -13 -13 -12 -12 -12 -12 -12 -11 -11 -10 -10 -10 -10 -11 -10 -11 -10 -11 -10 -9 -9 -9 -9
-14 -14 -14 -14 -14 -14 -14 -14 -14 -14 -14 -13 -14 -14 -14 -14 -13 -14 -14 -14 -13 -13 -13 -13 -13 -13 -12 -12 -12 -11 -11 -11 -11 -11 -11 -12 -11 -11 -10 -11 -11 -11 -10 -10 -10
-15 -15 -15 -14 -15 -15 -14 -15 -14 -14 -14 -13 -13 -13 -13 -13 -13 -14 -13 -13 -13 -13 -13 -13 -13 -13 -13 -12 -12 -12 -11 -11 -11 -12 -12 -13 -10 -10 -11 -11 -12 -11 -10 -11 -11
-15 -15 -15 -15 -15 -15 -15 -15 -14 -14 -14 -14 -14 -14 -14 -13 -14 -13 -13 -13 -13 -13 -13 -13 -13 -13 -13 -13 -13 -13 -12 -12 -12 -13 -13 -13 -10 -10 -11 -11 -11 -11 -11 -11 -12
-16 -16 -16 -15 -15 -15 -15 -15 -14 -14 -14 -14 -14 -14 -14 -14 -14 -13 -14 -14 -14 -14 -13 -13 -13 -13 -13 -13 -13 -13 -13 -12 -12 -13 -13 -12 -10 -10 -11 -11 -11 -10 -11 -12 -11
-16 -16 -16 -16 -15 -15 -15 -15 -15 -15 -14 -14 -14 -14 -14 -14 -14 -14 -14 -14 -14 -14 -14 -13 -13 -13 -13 -13 -13 -13 -13 -13 -13 -13 -13 -12 -11 -11 -11 -11 -10 -10 -10 -10 -10
-16 -15 -16 -16 -16 -15 -15 -15 -15 -15 -15 -15 -14 -15 -14 -14 -15 -14 -14 -14 -14 -14 -13 -13 -14 -14 -13 -14 -14 -13 -13 -13 -13 -13 -13 -13 -12 -11 -11 -11 -11 -11 -10 -10 -10
-16 -15 -15 -15 -15 -15 -15 -15 -15 -15 -15 -15 -15 -15 -15 -15 -15 -15 -15 -15 -14 -14 -14 -14 -14 -14 -14 -14 -14 -14 -14 -13 -13 -13 -13 -13 -12 -11 -11 -11 -11 -11 -11 -11 -11
-15 -15 -15 -15 -15 -15 -16 -16 -16 -16 -16 -15 -15 -15 -15 -15 -15 -15 -15 -15 -15 -15 -14 -14 -14 -14 -15 -15 -15 -15 -16 -15 -15 -14 -13 -15 -12 -11 -11 -11 -11 -11 -11 -11 -11
-15 -15 -15 -15 -15 -15 -16 -16 -16 -16 -16 -16 -16 -15 -16 -16 -16 -15 -15 -15 -14 -15 -14 -16 -16 -16 -17 -17 -18 -17 -17 -17 -17 -15 -15 -13 -14 -11 -12 -11 -11 -12 -12 -12 -12
-14 -15 -15 -15 -15 -15 -16 -16 -16 -16 -16 -16 -15 -16 -17 -16 -15 -15 -15 -15 -15 -15 -16 -17 -18 -18 -19 -19 -19 -19 -18 -17 -18 -17 -18 -15 -18 -11 -12 -12 -13 -14 -13 -13 -13
-15 -15 -15 -15 -15 -15 -16 -16 -17 -17 -17 -16 -17 -18 -17 -16 -17 -17 -17 -17 -17 -16 -18 -19 -19 -19 -20 -20 -20 -20 -20 -19 -19 -20 -19 -19 -19 -13 -13 -14 -13 -13 -13 -13 -13
-14 -14 -14 -15 -15 -15 -15 -16 -16 -17 -17 -17 -19 -19 -19 -17 -18 -18 -18 -19 -19 -18 -18 -19 -18 -20 -21 -20 -20 -20 -22 -22 -22 -21 -20 -21 -18 -16 -17 -17 -15 -15 -14 -14 -13
-14 -14 -14 -15 -15 -15 -16 -16 -17 -18 -18 -18 -19 -18 -19 -18 -18 -19 -19 -20 -19 -19 -19 -19 -19 -20 -21 -20 -21 -20 -21 -22 -21 -21 -21 -20 -20 -19 -18 -20 -18 -17 -14 -13 -14
-15 -15 -15 -15 -16 -16 -16 -17 -18 -18 -18 -18 -18 -18 -18 -19 -18 -18 -19 -20 -19 -19 -19 -19 -19 -19 -20 -21 -22 -22 -21 -21 -21 -21 -21 -20 -20 -19 -19 -20 -20 -19 -16 -14 -13
-15 -15 -15 -16 -16 -16 -16 -17 -17 -18 -18 -18 -18 -18 -18 -18 -18 -19 -20 -20 -20 -19 -20 -20 -19 -19 -20 -21 -21 -21 -21 -21 -21 -21 -21 -21 -20 -20 -19 -20 -20 -19 -18 -14 -14
-15 -15 -15 -16 -16 -16 -17 -17 -17 -17 -17 -18 -17 -18 -18 -18 -19 -19 -20 -19 -19 -19 -19 -19 -19 -19 -19 -20 -21 -21 -21 -21 -22 -21 -22 -22 -20 -20 -21 -20 -20 -19 -19 -17 -15
-15 -15 -16 -16 -16 -16 -17 -17 -17 -17 -17 -18 -18 -18 -18 -19 -19 -20 -20 -20 -19 -19 -19 -19 -19 -19 -19 -20 -20 -20 -21 -21 -21 -21 -21 -22 -20 -21 -21 -21 -21 -19 -19 -19 -17
-15 -15 -16 -16 -16 -16 -17 -17 -17 -17 -17 -18 -18 -19 -19 -19 -20 -20 -20 -20 -19 -19 -19 -19 -20 -20 -20 -20 -20 -20 -21 -21 -22 -22 -21 -20 -21 -21 -22 -21 -20 -19 -19 -19 -19
-15 -16 -16 -16 -16 -17 -17 -17 -17 -18 -17 -18 -19 -19 -19 -19 -20 -20 -20 -20 -20 -20 -20 -20 -20 -19 -20 -20 -20 -20 -21 -22 -21 -21 -21 -20 -21 -21 -21 -20 -19 -19 -19 -18 -19
-15 -16 -16 -16 -16 -17 -17 -17 -17 -18 -18 -18 -18 -19 -20 -19 -19 -20 -20 -20 -20 -20 -20 -20 -20 -19 -20 -20 -20 -20 -20 -21 -21 -21 -21 -20 -20 -21 -21 -20 -20 -20 -18 -18 -18
-16 -16 -16 -16 -16 -17 -17 -17 -18 -17 -18 -18 -19 -19 -20 -20 -20 -20 -20 -20 -20 -20 -20 -20 -20 -19 -20 -20 -20 -20 -21 -21 -21 -21 -21 -21 -21 -20 -20 -20 -20 -20 -19 -18 -16

GFSSW_500_temp_045.txt.gz
Temp
-13 -13 -13 -13 -13 -14 -14 -13 -13 -13 -13 -13 -13 -13 -13 -13 -13 -13 -13 -13 -12 -13 -13 -12 -13 -12 -12 -11 -11 -11 -10 -9 -9 -10 -10 -11 -9 -9 -9 -10 -10 -9 -9 -8 -8
-13 -13 -13 -13 -13 -13 -14 -14 -14 -14 -13 -13 -13 -13 -13 -13 -13 -13 -13 -13 -13 -13 -13 -13 -13 -13 -12 -12 -12 -11 -10 -9 -10 -11 -12 -11 -10 -9 -8 -10 -10 -9 -9 -8 -9
-13 -14 -14 -14 -14 -14 -14 -14 -14 -14 -14 -14 -14 -14 -14 -14 -14 -14 -14 -13 -14 -14 -13 -13 -13 -12 -12 -12 -12 -11 -9 -10 -10 -11 -12 -11 -10 -10 -9 -9 -10 -9 -9 -9 -9
-14 -14 -14 -14 -14 -14 -14 -14 -14 -14 -14 -14 -14 -14 -14 -14 -14 -14 -14 -13 -14 -14 -13 -13 -13 -13 -12 -12 -12 -11 -10 -10 -11 -11 -11 -12 -12 -11 -9 -9 -10 -10 -9 -9 -9
-14 -14 -14 -14 -14 -14 -14 -14 -14 -14 -14 -14 -14 -14 -14 -14 -14 -14 -14 -14 -14 -14 -13 -13 -13 -13 -12 -12 -12 -11 -11 -11 -11 -11 -11 -11 -11 -12 -10 -9 -10 -10 -10 -9 -8
-15 -15 -15 -14 -14 -14 -14 -14 -14 -14 -14 -14 -14 -14 -15 -15 -15 -14 -14 -14 -14 -14 -13 -13 -13 -13 -13 -12 -12 -12 -11 -11 -11 -11 -11 -11 -11 -12 -9 -10 -11 -10 -11 -10 -9
-16 -15 -15 -15 -15 -15 -15 -14 -14 -14 -14 -14 -14 -14 -14 -14 -15 -15 -15 -14 -14 -14 -14 -13 -13 -13 -13 -13 -12 -12 -11 -11 -12 -12 -12 -11 -10 -9 -11 -12 -11 -12 -11 -11 -10
-16 -16 -16 -15 -15 -15 -15 -15 -14 -14 -14 -14 -14 -14 -14 -14 -15 -14 -14 -14 -14 -14 -14 -14 -13 -13 -13 -13 -12 -12 -12 -12 -12 -12 -12 -12 -9 -10 -12 -12 -11 -12 -12 -11 -11
-16 -16 -16 -16 -16 -15 -15 -15 -15 -15 -14 -14 -14 -14 -14 -15 -15 -14 -14 -14 -14 -14 -14 -14 -14 -14 -13 -13 -13 -13 -13 -12 -12 -13 -12 -11 -9 -10 -11 -12 -11 -11 -12 -12 -12
-16 -16 -16 -16 -16 -16 -15 -15 -15 -15 -15 -15 -15 -15 -15 -15 -15 -14 -15 -14 -14 -14 -14 -14 -14 -14 -14 -13 -13 -13 -13 -12 -12 -12 -12 -12 -10 -10 -11 -11 -11 -11 -11 -12 -11
-15 -15 -15 -16 -15 -16 -16 -15 -15 -15 -15 -15 -15 -15 -15 -14 -15 -15 -15 -15 -15 -14 -14 -14 -14 -14 -14 -14 -13 -13 -13 -13 -13 -13 -12 -12 -11 -11 -11 -11 -11 -11 -11 -11 -12
-15 -15 -15 -15 -16 -15 -15 -15 -15 -15 -15 -15 -15 -15 -15 -15 -15 -15 -15 -15 -15 -14 -15 -14 -14 -14 -14 -14 -14 -14 -13 -13 -13 -13 -13 -12 -11 -11 -12 -11 -11 -11 -11 -11 -11
-14 -14 -14 -14 -15 -15 -16 -16 -16 -16 -16 -15 -15 -15 -15 -15 -15 -15 -15 -15 -15 -14 -14 -14 -14 -14 -14 -14 -14 -14 -14 -14 -14 -14 -14 -13 -12 -12 -12 -12 -11 -11 -11 -11 -11
-14 -14 -14 -14 -14 -15 -16 -16 -16 -16 -17 -16 -16 -16 -16 -16 -16 -16 -16 -16 -15 -15 -15 -15 -15 -15 -15 -15 -15 -15 -15 -14 -14 -14 -14 -15 -12 -12 -12 -12 -12 -12 -11 -11 -11
-14 -14 -15 -15 -15 -15 -15 -15 -16 -17 -17 -17 -17 -17 -17 -17 -16 -16 -16 -16 -16 -16 -15 -16 -16 -16 -17 -17 -17 -16 -16 -16 -16 -16 -15 -14 -15 -10 -12 -12 -12 -12 -12 -12 -11
-14 -14 -15 -15 -15 -15 -15 -16 -16 -16 -17 -17 -17 -17 -17 -17 -17 -17 -17 -16 -16 -15 -15 -17 -17 -18 -18 -18 -18 -18 -18 -18 -18 -18 -16 -16 -17 -12 -12 -12 -13 -13 -13 -12 -12
-14 -14 -15 -15 -15 -15 -15 -16 -16 -17 -17 -17 -18 -18 -18 -18 -18 -17 -17 -16 -16 -16 -17 -18 -18 -19 -19 -19 -19 -19 -19 -19 -19 -18 -18 -18 -19 -13 -12 -13 -13 -13 -14 -13 -12
-14 -14 -15 -15 -15 -16 -16 -16 -16 -17 -18 -18 -18 -19 -18 -18 -18 -18 -18 -17 -17 -17 -18 -18 -18 -19 -20 -19 -19 -19 -20 -20 -20 -19 -19 -20 -19 -16 -15 -15 -14 -14 -14 -14 -14
-14 -14 -15 -15 -15 -16 -16 -16 -17 -17 -18 -18 -19 -19 -18 -18 -18 -18 -18 -17 -17 -18 -18 -18 -18 -19 -19 -19 -19 -19 -19 -20 -20 -20 -19 -19 -20 -20 -20 -19 -18 -17 -16 -15 -14
-15 -15 -15 -15 -16 -16 -16 -16 -16 -17 -17 -18 -18 -18 -18 -18 -18 -18 -18 -18 -18 -19 -19 -19 -18 -18 -19 -20 -20 -19 -19 -19 -21 -20 -20 -19 -20 -20 -20 -20 -21 -20 -20 -17 -15
-15 -15 -15 -15 -16 -16 -16 -16 -17 -17 -17 -17 -17 -17 -17 -18 -18 -18 -18 -19 -19 -19 -19 -19 -19 -19 -19 -20 -19 -20 -21 -21 -21 -21 -20 -20 -20 -20 -20 -20 -20 -20 -20 -19 -17
-15 -15 -15 -15 -16 -16 -16 -17 -17 -17 -17 -17 -17 -17 -18 -18 -18 -18 -19 -19 -19 -19 -19 -19 -19 -19 -19 -20 -19 -20 -20 -21 -21 -21 -21 -21 -20 -20 -21 -21 -20 -20 -20 -20 -19
-15 -15 -15 -15 -16 -16 -16 -16 -17 -17 -17 -17 -18 -18 -18 -18 -19 -19 -19 -19 -20 -19 -19 -19 -19 -19 -19 -20 -20 -20 -20 -21 -21 -21 -21 -22 -20 -21 -21 -21 -21 -20 -20 -20 -19
-15 -15 -15 -15 -16 -16 -16 -17 -17 -17 -17 -18 -18 -18 -18 -19 -19 -19 -20 -20 -20 -20 -19 -20 -20 -19 -19 -20 -20 -20 -20 -20 -21 -21 -21 -21 -21 -21 -22 -21 -21 -21 -20 -19 -19
-15 -15 -16 -16 -16 -16 -16 -17 -17 -18 -18 -18 -18 -18 -19 -19 -19 -19 -20 -20 -20 -20 -20 -20 -19 -20 -20 -20 -20 -20 -20 -21 -21 -21 -21 -21 -20 -21 -22 -20 -21 -21 -20 -20 -19
-15 -15 -16 -16 -16 -17 -17 -17 -17 -18 -18 -18 -18 -19 -19 -19 -19 -20 -20 -20 -20 -21 -20 -20 -20 -20 -20 -20 -20 -20 -20 -20 -21 -21 -20 -21 -20 -22 -21 -21 -21 -21 -20 -19 -18
-15 -15 -16 -16 -16 -17 -17 -17 -17 -17 -18 -18 -18 -19 -20 -20 -20 -20 -20 -21 -21 -21 -21 -20 -20 -20 -20 -20 -20 -21 -21 -20 -20 -21 -21 -21 -21 -22 -21 -21 -21 -20 -19 -19 -18

GFSSW_500_temp_048.txt.gz
Temp
-13 -13 -14 -14 -14 -13 -13 -14 -14 -14 -14 -13 -13 -13 -13 -13 -13 -13 -13 -13 -12 -13 -13 -12 -12 -13 -12 -12 -12 -12 -12 -10 -10 -12 -12 -12 -11 -9 -8 -9 -10 -9 -9 -9 -9
-14 -14 -14 -14 -14 -14 -14 -14 -14 -14 -14 -14 -14 -14 -14 -14 -13 -13 -13 -13 -13 -13 -13 -13 -12 -12 -14 -13 -13 -12 -12 -11 -12 -12 -12 -11 -11 -10 -9 -8 -10 -10 -10 -9 -9
-14 -14 -14 -14 -14 -14 -14 -14 -14 -14 -15 -15 -14 -14 -14 -14 -14 -13 -13 -13 -13 -13 -13 -13 -13 -12 -13 -14 -13 -12 -12 -12 -12 -12 -12 -12 -11 -11 -10 -10 -10 -10 -10 -10 -10
-15 -15 -15 -14 -14 -14 -14 -14 -14 -14 -14 -15 -15 -15 -14 -14 -14 -14 -14 -14 -14 -13 -13 -13 -14 -13 -13 -13 -14 -13 -12 -12 -12 -13 -12 -12 -12 -11 -10 -10 -11 -11 -10 -10 -9
-16 -16 -15 -15 -14 -14 -14 -14 -14 -14 -14 -14 -14 -15 -15 -14 -14 -14 -14 -14 -14 -14 -14 -13 -14 -13 -13 -13 -13 -13 -13 -12 -12 -12 -13 -13 -11 -11 -10 -10 -11 -11 -11 -10 -10
-16 -16 -16 -15 -15 -15 -14 -14 -14 -15 -14 -14 -14 -14 -14 -15 -15 -15 -14 -14 -14 -14 -14 -14 -13 -14 -13 -13 -14 -13 -13 -12 -12 -12 -13 -14 -13 -11 -11 -11 -12 -12 -11 -11 -10
-16 -16 -16 -16 -15 -15 -15 -15 -15 -15 -15 -15 -14 -14 -14 -14 -15 -15 -15 -14 -14 -14 -14 -14 -14 -14 -13 -13 -13 -13 -13 -13 -13 -12 -12 -12 -11 -10 -12 -12 -12 -12 -12 -11 -11
-16 -16 -16 -16 -16 -16 -15 -15 -15 -15 -15 -15 -15 -14 -14 -14 -14 -14 -14 -14 -14 -14 -14 -14 -14 -14 -14 -14 -14 -14 -13 -13 -12 -12 -13 -12 -11 -11 -12 -12 -12 -12 -12 -12 -12
-15 -15 -16 -15 -15 -15 -16 -16 -15 -15 -15 -15 -15 -15 -15 -15 -14 -14 -15 -14 -14 -14 -14 -14 -14 -14 -14 -14 -14 -14 -13 -13 -13 -13 -12 -12 -11 -11 -12 -12 -12 -12 -11 -12 -12
-14 -15 -15 -15 -15 -16 -15 -16 -16 -15 -15 -15 -15 -15 -15 -15 -15 -15 -15 -14 -15 -15 -14 -14 -14 -14 -14 -14 -14 -14 -13 -13 -13 -13 -13 -12 -11 -11 -11 -12 -11 -12 -12 -11 -12
-14 -14 -14 -14 -15 -15 -15 -15 -15 -16 -16 -15 -15 -15 -15 -15 -15 -15 -15 -15 -15 -15 -15 -15 -15 -15 -14 -14 -14 -14 -13 -13 -13 -13 -13 -13 -12 -12 -12 -12 -12 -12 -12 -11 -11
-14 -14 -14 -15 -15 -15 -15 -15 -15 -16 -16 -16 -16 -15 -15 -15 -15 -15 -15 -15 -15 -15 -15 -15 -15 -15 -15 -14 -14 -14 -14 -13 -13 -13 -13 -12 -12 -12 -12 -12 -12 -12 -12 -12 -12
-14 -14 -14 -15 -15 -15 -15 -15 -15 -16 -16 -16 -16 -16 -16 -16 -16 -15 -15 -15 -15 -16 -16 -15 -15 -15 -15 -15 -15 -15 -14 -14 -14 -14 -13 -13 -12 -12 -12 -12 -12 -12 -12 -12 -12
-14 -14 -14 -14 -15 -15 -15 -15 -16 -16 -16 -16 -17 -16 -16 -16 -16 -16 -16 -16 -16 -16 -16 -15 -15 -15 -15 -15 -15 -15 -14 -14 -14 -14 -13 -13 -12 -12 -12 -12 -12 -12 -12 -12 -12
-14 -14 -14 -14 -15 -15 -15 -15 -16 -16 -17 -17 -17 -17 -17 -17 -17 -17 -17 -17 -17 -17 -17 -16 -16 -16 -16 -16 -15 -15 -15 -15 -15 -15 -14 -14 -14 -12 -12 -13 -13 -12 -12 -12 -12
-14 -14 -14 -14 -14 -15 -15 -16 -16 -16 -17 -17 -18 -18 -18 -18 -18 -18 -18 -18 -17 -17 -17 -18 -17 -17 -16 -16 -17 -17 -17 -17 -17 -16 -15 -16 -16 -12 -13 -13 -13 -13 -13 -12 -12
-14 -14 -14 -14 -15 -15 -15 -15 -16 -16 -17 -17 -18 -18 -19 -18 -18 -18 -18 -18 -17 -17 -17 -17 -17 -17 -17 -18 -18 -18 -18 -18 -17 -17 -17 -17 -17 -14 -14 -14 -13 -13 -13 -13 -13
-14 -15 -15 -15 -15 -15 -15 -16 -16 -16 -17 -17 -18 -18 -18 -19 -19 -18 -18 -18 -17 -17 -17 -17 -18 -19 -19 -19 -19 -18 -18 -18 -18 -18 -18 -18 -17 -17 -17 -16 -16 -14 -14 -13 -14
-14 -15 -15 -15 -15 -15 -15 -16 -16 -16 -16 -17 -17 -18 -18 -18 -18 -18 -18 -18 -18 -17 -17 -18 -18 -19 -19 -19 -19 -18 -19 -18 -18 -18 -18 -17 -18 -18 -18 -19 -19 -19 -18 -16 -15
-14 -15 -15 -15 -15 -15 -16 -16 -16 -16 -16 -17 -17 -17 -18 -18 -18 -18 -18 -18 -18 -18 -18 -18 -18 -19 -20 -20 -20 -18 -18 -19 -19 -18 -18 -17 -17 -17 -18 -19 -20 -20 -21 -21 -20
-14 -15 -15 -15 -16 -16 -16 -16 -16 -16 -16 -17 -17 -17 -18 -18 -18 -18 -18 -19 -18 -19 -19 -19 -19 -19 -19 -20 -19 -19 -19 -19 -19 -19 -19 -18 -16 -18 -19 -20 -21 -21 -21 -21 -21
-14 -15 -15 -15 -16 -16 -16 -16 -17 -17 -17 -17 -17 -17 -18 -18 -18 -18 -18 -19 -19 -19 -19 -19 -19 -19 -19 -19 -19 -19 -19 -20 -19 -19 -19 -20 -17 -20 -20 -21 -22 -22 -22 -21 -21
-14 -15 -15 -15 -16 -16 -16 -16 -17 -17 -17 -17 -17 -18 -18 -18 -18 -19 -19 -20 -20 -20 -20 -20 -19 -19 -20 -20 -19 -19 -19 -20 -20 -20 -19 -21 -18 -20 -21 -21 -22 -22 -22 -21 -20
-14 -14 -15 -15 -16 -16 -16 -17 -17 -17 -17 -17 -18 -18 -18 -19 -19 -19 -20 -20 -20 -20 -20 -20 -20 -20 -19 -20 -19 -19 -20 -21 -20 -20 -20 -20 -19 -21 -22 -21 -21 -20 -21 -20 -20
-14 -14 -14 -14 -15 -15 -16 -17 -17 -17 -18 -18 -18 -18 -18 -19 -19 -19 -20 -20 -21 -21 -20 -20 -20 -20 -20 -20 -19 -19 -20 -21 -20 -20 -20 -20 -21 -21 -21 -21 -20 -20 -20 -20 -20
-15 -14 -15 -15 -15 -16 -16 -17 -17 -18 -18 -18 -19 -19 -19 -19 -19 -20 -20 -21 -21 -21 -21 -21 -20 -20 -20 -20 -20 -20 -20 -20 -21 -21 -21 -21 -21 -21 -21 -21 -20 -20 -20 -20 -20
-15 -16 -15 -15 -15 -16 -16 -17 -17 -17 -18 -18 -19 -19 -20 -20 -20 -21 -21 -21 -21 -21 -21 -21 -21 -21 -20 -21 -20 -20 -20 -20 -21 -21 -21 -21 -21 -21 -21 -21 -21 -20 -20 -20 -20

GFSSW_500_temp_051.txt.gz
Temp
-14 -14 -14 -14 -14 -13 -14 -14 -13 -14 -14 -14 -13 -13 -13 -12 -12 -12 -12 -12 -12 -12 -12 -13 -13 -13 -13 -13 -13 -13 -12 -12 -12 -12 -11 -11 -11 -9 -9 -9 -8 -9 -9 -9 -9
-15 -15 -14 -14 -14 -14 -14 -14 -14 -14 -14 -14 -14 -14 -13 -13 -13 -13 -12 -12 -12 -12 -13 -13 -13 -13 -13 -13 -13 -13 -12 -12 -12 -12 -11 -12 -11 -10 -10 -10 -9 -9 -9 -9 -9
-16 -16 -15 -15 -14 -14 -14 -14 -14 -14 -14 -14 -14 -14 -14 -14 -13 -13 -13 -13 -13 -12 -13 -13 -13 -13 -13 -13 -12 -12 -12 -12 -12 -12 -11 -12 -12 -11 -11 -10 -10 -10 -10 -10 -9
-16 -16 -16 -15 -15 -14 -14 -14 -14 -14 -14 -14 -14 -14 -14 -14 -14 -14 -14 -13 -13 -13 -13 -13 -13 -13 -13 -13 -13 -13 -12 -12 -13 -12 -11 -12 -12 -11 -11 -11 -11 -11 -11 -11 -10
-16 -16 -16 -16 -15 -15 -15 -14 -14 -15 -15 -14 -14 -14 -14 -14 -15 -14 -14 -14 -13 -13 -13 -13 -13 -13 -13 -13 -13 -13 -12 -12 -12 -12 -12 -12 -12 -12 -11 -12 -12 -11 -11 -11 -11
-15 -16 -16 -16 -16 -15 -15 -15 -15 -15 -15 -15 -14 -14 -14 -14 -15 -14 -14 -14 -14 -14 -14 -14 -14 -14 -14 -13 -14 -14 -13 -13 -13 -13 -12 -12 -13 -14 -12 -12 -13 -11 -12 -12 -11
-15 -15 -16 -16 -15 -15 -15 -15 -15 -15 -15 -15 -15 -15 -15 -14 -14 -14 -14 -14 -14 -14 -14 -14 -14 -14 -14 -14 -13 -14 -14 -14 -13 -13 -13 -13 -12 -13 -13 -12 -13 -12 -11 -12 -11
-14 -14 -15 -15 -15 -15 -15 -15 -15 -15 -15 -15 -15 -15 -15 -15 -14 -14 -14 -14 -14 -14 -14 -14 -14 -14 -14 -14 -14 -14 -14 -14 -13 -13 -13 -13 -12 -13 -13 -12 -12 -12 -12 -12 -12
-14 -14 -14 -14 -15 -15 -15 -15 -15 -15 -15 -15 -15 -15 -15 -15 -15 -15 -14 -14 -14 -14 -15 -15 -15 -14 -14 -14 -14 -14 -14 -14 -14 -13 -13 -13 -12 -13 -13 -13 -13 -13 -12 -12 -12
-14 -14 -14 -14 -14 -15 -15 -15 -15 -15 -15 -15 -15 -15 -15 -15 -15 -15 -15 -15 -15 -15 -15 -15 -15 -15 -14 -15 -14 -14 -14 -14 -14 -13 -13 -13 -13 -13 -13 -12 -13 -14 -13 -12 -12
-14 -14 -14 -14 -14 -15 -15 -15 -15 -15 -15 -15 -15 -16 -15 -15 -15 -15 -15 -15 -15 -15 -15 -15 -15 -15 -15 -15 -15 -14 -14 -14 -14 -14 -13 -13 -13 -13 -13 -12 -12 -12 -14 -13 -12
-14 -14 -14 -14 -14 -15 -15 -15 -15 -15 -15 -16 -16 -16 -16 -16 -16 -16 -15 -16 -15 -15 -15 -15 -15 -15 -15 -15 -15 -15 -14 -14 -14 -14 -14 -13 -13 -13 -13 -13 -12 -12 -12 -12 -13
-14 -14 -14 -14 -14 -15 -15 -15 -15 -15 -16 -16 -16 -17 -17 -16 -16 -16 -16 -16 -16 -16 -16 -16 -16 -15 -15 -15 -15 -15 -15 -14 -14 -14 -14 -13 -13 -13 -13 -13 -13 -13 -13 -12 -12
-14 -14 -14 -14 -14 -14 -15 -15 -15 -15 -15 -16 -16 -17 -17 -17 -17 -17 -17 -17 -17 -16 -16 -16 -16 -16 -16 -15 -15 -15 -15 -14 -14 -14 -14 -14 -13 -13 -13 -14 -13 -13 -12 -12 -12
-14 -14 -14 -14 -14 -14 -15 -15 -15 -15 -15 -16 -17 -17 -17 -18 -18 -18 -18 -18 -17 -17 -17 -16 -16 -16 -16 -16 -16 -15 -15 -15 -14 -14 -14 -14 -14 -13 -13 -13 -13 -13 -13 -12 -12
-14 -14 -14 -14 -15 -15 -15 -15 -15 -15 -16 -16 -17 -17 -18 -18 -18 -18 -19 -18 -18 -18 -18 -18 -17 -17 -17 -16 -16 -16 -15 -15 -15 -15 -14 -14 -14 -12 -13 -14 -13 -13 -13 -13 -13
-14 -14 -14 -14 -15 -15 -15 -15 -15 -15 -16 -16 -16 -17 -18 -18 -18 -18 -18 -18 -18 -18 -18 -18 -18 -18 -18 -17 -17 -16 -17 -16 -16 -16 -16 -16 -14 -13 -15 -14 -14 -13 -13 -13 -13
-14 -14 -14 -14 -15 -15 -15 -15 -15 -16 -16 -16 -16 -16 -17 -18 -18 -18 -17 -17 -18 -18 -18 -18 -18 -18 -19 -19 -18 -18 -18 -18 -17 -17 -17 -17 -15 -16 -16 -16 -17 -17 -15 -14 -13
-14 -14 -14 -15 -15 -15 -15 -15 -16 -16 -16 -16 -16 -17 -17 -17 -17 -18 -18 -18 -17 -18 -18 -18 -18 -19 -19 -19 -19 -19 -19 -18 -18 -18 -18 -17 -16 -16 -17 -17 -18 -18 -18 -18 -18
-14 -14 -14 -14 -15 -15 -15 -16 -16 -16 -16 -16 -17 -17 -17 -17 -17 -17 -18 -18 -18 -18 -18 -18 -18 -19 -20 -20 -20 -19 -18 -19 -19 -18 -18 -17 -17 -16 -16 -18 -18 -18 -19 -19 -19
-14 -14 -14 -14 -15 -15 -16 -16 -16 -16 -17 -17 -17 -17 -17 -18 -18 -18 -18 -18 -19 -18 -19 -19 -18 -19 -20 -20 -20 -19 -19 -19 -19 -19 -18 -17 -16 -16 -18 -18 -18 -18 -18 -18 -18
-15 -14 -14 -14 -15 -15 -16 -16 -17 -17 -17 -17 -17 -18 -18 -18 -18 -18 -19 -19 -19 -19 -19 -19 -19 -20 -20 -20 -20 -20 -20 -20 -19 -19 -18 -19 -16 -18 -19 -19 -19 -18 -17 -19 -20
-15 -15 -14 -14 -15 -15 -16 -16 -17 -17 -17 -18 -18 -18 -18 -18 -19 -19 -19 -19 -19 -20 -20 -20 -20 -20 -20 -20 -20 -20 -20 -20 -20 -19 -19 -19 -17 -19 -19 -19 -19 -19 -19 -20 -20
-14 -15 -15 -14 -14 -15 -16 -16 -16 -17 -18 -18 -18 -18 -18 -19 -19 -19 -20 -20 -20 -21 -21 -21 -20 -20 -20 -21 -21 -20 -20 -20 -20 -19 -20 -19 -18 -19 -20 -20 -20 -20 -20 -20 -20
-14 -15 -15 -15 -14 -15 -15 -16 -17 -17 -18 -18 -18 -19 -19 -19 -20 -20 -21 -21 -22 -21 -21 -21 -21 -21 -21 -21 -21 -20 -20 -21 -20 -20 -20 -19 -19 -20 -20 -20 -20 -21 -20 -20 -20
-14 -15 -15 -15 -14 -14 -15 -16 -17 -17 -18 -18 -18 -19 -20 -21 -21 -21 -22 -22 -22 -22 -22 -22 -21 -21 -21 -21 -21 -20 -20 -21 -21 -21 -21 -20 -19 -20 -20 -20 -21 -20 -21 -20 -21
-15 -15 -15 -15 -15 -15 -15 -16 -16 -17 -17 -18 -17 -19 -21 -22 -22 -22 -22 -22 -22 -22 -22 -22 -22 -22 -21 -21 -21 -20 -21 -21 -21 -21 -20 -20 -20 -20 -20 -21 -21 -21 -20 -21 -21

GFSSW_500_temp_057.txt.gz
Temp
-14 -15 -15 -16 -15 -15 -14 -14 -14 -13 -13 -13 -13 -13 -13 -13 -12 -12 -12 -12 -11 -11 -11 -11 -11 -11 -11 -10 -11 -12 -11 -10 -12 -13 -12 -12 -13 -10 -11 -11 -11 -10 -9 -9 -8
-14 -15 -15 -16 -15 -15 -14 -14 -14 -14 -13 -13 -13 -13 -13 -13 -13 -13 -12 -12 -12 -12 -11 -11 -11 -11 -11 -11 -11 -12 -11 -10 -13 -13 -12 -12 -12 -12 -11 -10 -11 -11 -10 -10 -9
-14 -14 -15 -15 -16 -15 -15 -14 -14 -14 -14 -14 -13 -13 -13 -13 -13 -12 -13 -13 -12 -12 -12 -12 -12 -12 -12 -12 -12 -11 -10 -12 -13 -14 -13 -13 -12 -12 -12 -11 -11 -12 -12 -11 -10
-13 -14 -14 -15 -15 -16 -15 -14 -14 -14 -14 -14 -14 -14 -14 -13 -13 -13 -13 -13 -13 -13 -13 -12 -12 -12 -12 -12 -12 -12 -12 -12 -13 -14 -14 -14 -13 -13 -13 -13 -11 -11 -11 -11 -10
-13 -14 -14 -14 -15 -15 -15 -15 -14 -14 -14 -14 -14 -14 -14 -14 -13 -13 -13 -13 -13 -13 -13 -13 -13 -13 -13 -13 -13 -12 -12 -12 -12 -13 -12 -12 -12 -13 -12 -12 -12 -11 -11 -11 -11
-13 -13 -14 -14 -14 -14 -15 -15 -15 -14 -14 -14 -14 -14 -14 -14 -14 -13 -13 -13 -13 -14 -14 -14 -13 -13 -13 -13 -13 -13 -13 -13 -12 -13 -13 -12 -12 -12 -12 -12 -12 -11 -11 -11 -11
-13 -13 -13 -14 -14 -14 -14 -14 -15 -14 -14 -14 -14 -14 -14 -14 -14 -14 -14 -14 -13 -14 -14 -14 -14 -14 -13 -13 -13 -13 -13 -13 -13 -13 -13 -13 -12 -12 -12 -12 -12 -11 -11 -11 -11
-13 -13 -13 -13 -14 -14 -14 -14 -14 -14 -14 -14 -14 -14 -14 -14 -14 -14 -14 -14 -14 -14 -14 -14 -14 -14 -14 -14 -13 -14 -13 -13 -13 -13 -13 -13 -12 -12 -13 -12 -11 -12 -12 -10 -12
-13 -13 -13 -13 -13 -14 -14 -14 -14 -14 -14 -14 -14 -15 -14 -14 -14 -14 -14 -14 -14 -14 -14 -14 -14 -14 -14 -14 -14 -14 -14 -14 -14 -13 -13 -13 -13 -13 -13 -12 -12 -12 -11 -12 -12
-13 -13 -13 -13 -13 -13 -14 -14 -14 -14 -14 -14 -14 -15 -15 -15 -14 -14 -14 -14 -14 -14 -14 -14 -14 -14 -15 -15 -14 -16 -16 -14 -16 -16 -13 -14 -13 -13 -12 -12 -13 -12 -12 -11 -11
-13 -13 -13 -13 -13 -13 -13 -14 -14 -14 -14 -14 -14 -15 -15 -15 -15 -15 -15 -15 -15 -15 -15 -15 -15 -15 -15 -16 -15 -14 -15 -15 -17 -15 -14 -13 -14 -13 -13 -12 -13 -13 -13 -12 -12
-12 -13 -13 -13 -13 -13 -13 -13 -14 -14 -14 -14 -14 -14 -15 -15 -15 -15 -15 -15 -15 -15 -15 -15 -15 -16 -15 -15 -15 -15 -15 -15 -15 -15 -14 -14 -13 -13 -13 -13 -13 -13 -13 -13 -13
-12 -12 -12 -13 -13 -13 -13 -13 -14 -14 -14 -14 -14 -14 -15 -15 -15 -15 -16 -16 -16 -16 -16 -16 -18 -15 -15 -15 -15 -16 -16 -16 -16 -15 -14 -14 -14 -14 -14 -13 -13 -13 -13 -13 -13
-13 -12 -12 -13 -13 -13 -13 -13 -14 -14 -14 -14 -14 -15 -15 -15 -15 -16 -16 -16 -16 -17 -17 -16 -17 -15 -16 -16 -16 -16 -17 -16 -15 -15 -15 -15 -14 -15 -14 -13 -13 -13 -13 -13 -13
-13 -13 -13 -13 -13 -13 -13 -13 -14 -14 -14 -15 -15 -15 -15 -15 -15 -15 -16 -16 -17 -17 -18 -18 -19 -17 -17 -17 -16 -16 -16 -15 -15 -15 -15 -15 -15 -14 -15 -15 -14 -14 -13 -13 -13
-13 -13 -13 -13 -13 -13 -13 -13 -14 -14 -15 -14 -15 -15 -15 -15 -16 -16 -16 -17 -17 -17 -18 -18 -18 -19 -18 -18 -17 -16 -16 -16 -16 -16 -15 -15 -15 -16 -16 -16 -15 -14 -14 -14 -13
-13 -13 -13 -14 -13 -13 -14 -14 -14 -15 -15 -15 -15 -15 -16 -16 -16 -16 -17 -18 -18 -20 -19 -19 -19 -19 -19 -18 -18 -17 -17 -17 -18 -18 -16 -17 -16 -17 -17 -16 -15 -14 -14 -14 -14
-13 -13 -13 -14 -14 -14 -14 -14 -14 -15 -15 -15 -16 -16 -16 -17 -17 -18 -18 -19 -20 -20 -20 -20 -19 -19 -19 -18 -18 -19 -19 -19 -18 -17 -16 -18 -17 -17 -17 -16 -15 -15 -15 -14 -14
-13 -13 -13 -14 -14 -14 -14 -14 -15 -15 -15 -16 -16 -16 -17 -17 -17 -17 -19 -20 -20 -20 -20 -20 -20 -19 -19 -19 -19 -19 -20 -20 -19 -18 -18 -17 -18 -18 -17 -17 -17 -16 -16 -16 -15
-13 -13 -13 -14 -14 -15 -14 -15 -15 -15 -15 -16 -16 -17 -17 -18 -20 -20 -20 -20 -19 -19 -19 -19 -20 -21 -20 -20 -19 -19 -20 -20 -20 -20 -20 -19 -18 -17 -17 -18 -18 -16 -17 -17 -16
-13 -13 -14 -14 -14 -15 -15 -15 -15 -15 -15 -16 -16 -17 -17 -18 -18 -21 -20 -21 -20 -20 -21 -20 -20 -20 -21 -20 -21 -21 -20 -20 -20 -19 -19 -19 -18 -18 -17 -18 -18 -18 -17 -17 -17
-13 -13 -14 -14 -14 -15 -15 -15 -15 -15 -15 -16 -16 -17 -17 -18 -19 -20 -21 -21 -20 -21 -21 -22 -21 -20 -21 -21 -21 -21 -21 -20 -20 -20 -20 -20 -19 -18 -18 -18 -19 -19 -18 -18 -17
-13 -14 -14 -14 -15 -15 -15 -15 -15 -15 -15 -16 -16 -17 -17 -18 -19 -20 -22 -22 -22 -21 -22 -22 -21 -21 -20 -20 -21 -22 -22 -21 -21 -20 -19 -20 -17 -19 -18 -19 -20 -21 -21 -20 -18
-13 -14 -14 -14 -15 -15 -15 -15 -15 -15 -16 -16 -16 -17 -17 -18 -19 -21 -23 -22 -22 -23 -22 -22 -22 -21 -21 -20 -20 -20 -20 -21 -21 -20 -20 -19 -19 -20 -20 -20 -20 -21 -21 -21 -21
-13 -14 -14 -15 -15 -15 -15 -15 -15 -15 -16 -16 -16 -16 -16 -17 -18 -20 -22 -23 -23 -23 -23 -23 -22 -22 -21 -21 -21 -21 -21 -21 -20 -20 -20 -19 -19 -21 -21 -21 -20 -21 -20 -20 -18
-14 -14 -14 -15 -15 -15 -15 -16 -16 -16 -16 -16 -16 -16 -17 -18 -19 -19 -20 -21 -22 -23 -23 -22 -22 -22 -21 -21 -21 -21 -20 -22 -22 -22 -22 -20 -20 -21 -21 -21 -20 -20 -21 -19 -19
-14 -14 -15 -15 -15 -15 -15 -15 -16 -16 -16 -16 -16 -16 -18 -19 -19 -20 -20 -21 -22 -22 -22 -22 -22 -22 -21 -21 -21 -20 -22 -22 -22 -22 -22 -21 -21 -21 -20 -20 -20 -19 -20 -19 -19

GFSSW_500_temp_060.txt.gz
Temp
-13 -13 -14 -15 -16 -16 -15 -14 -14 -13 -13 -13 -13 -12 -12 -12 -12 -12 -12 -11 -11 -11 -11 -11 -11 -11 -10 -10 -10 -11 -9 -8 -8 -10 -12 -12 -11 -11 -11 -10 -11 -12 -11 -10 -9
-13 -13 -14 -14 -15 -16 -15 -14 -14 -14 -13 -13 -13 -13 -13 -12 -12 -12 -12 -12 -12 -12 -11 -11 -11 -11 -11 -11 -11 -10 -9 -8 -9 -10 -12 -12 -12 -12 -11 -11 -10 -11 -10 -10 -10
-13 -13 -13 -14 -14 -15 -15 -15 -14 -14 -14 -13 -13 -13 -13 -13 -13 -12 -12 -12 -12 -12 -12 -12 -12 -11 -11 -11 -11 -11 -9 -10 -10 -11 -12 -12 -12 -12 -11 -11 -10 -10 -11 -11 -12
-13 -13 -13 -13 -14 -14 -15 -15 -14 -14 -14 -14 -14 -13 -13 -13 -12 -13 -13 -13 -13 -13 -13 -12 -12 -12 -12 -12 -12 -11 -11 -11 -11 -12 -13 -13 -13 -12 -12 -11 -12 -11 -11 -11 -11
-13 -13 -13 -13 -13 -14 -14 -15 -15 -14 -14 -14 -14 -14 -14 -13 -13 -14 -13 -13 -13 -13 -13 -13 -13 -13 -12 -12 -13 -12 -12 -12 -12 -12 -12 -13 -13 -13 -13 -12 -12 -11 -11 -10 -9
-13 -13 -13 -13 -13 -13 -13 -14 -14 -15 -14 -14 -14 -14 -14 -13 -13 -13 -13 -13 -13 -13 -13 -14 -13 -13 -13 -12 -12 -13 -12 -12 -12 -12 -12 -12 -12 -12 -11 -12 -12 -12 -10 -10 -11
-12 -13 -13 -13 -13 -13 -13 -13 -14 -14 -14 -14 -14 -14 -13 -13 -13 -13 -14 -13 -13 -13 -14 -14 -13 -14 -14 -13 -13 -13 -12 -12 -11 -12 -12 -12 -12 -11 -12 -12 -12 -12 -12 -13 -11
-12 -13 -13 -13 -13 -13 -13 -13 -13 -13 -13 -14 -14 -14 -14 -14 -14 -14 -14 -14 -14 -14 -14 -13 -14 -14 -14 -14 -14 -13 -13 -13 -12 -13 -13 -13 -11 -12 -12 -12 -12 -12 -12 -12 -12
-12 -12 -12 -13 -13 -13 -13 -13 -13 -13 -13 -13 -13 -14 -14 -15 -14 -14 -14 -14 -14 -14 -14 -14 -14 -14 -14 -14 -14 -14 -14 -14 -13 -13 -13 -13 -12 -12 -13 -13 -12 -12 -12 -12 -12
-12 -12 -12 -12 -12 -13 -13 -13 -13 -13 -13 -13 -13 -13 -14 -14 -14 -14 -14 -14 -14 -14 -14 -14 -14 -14 -14 -14 -14 -15 -14 -15 -14 -14 -15 -15 -13 -13 -13 -13 -13 -12 -12 -12 -12
-12 -12 -12 -12 -12 -12 -13 -13 -13 -13 -13 -13 -14 -14 -13 -14 -14 -14 -15 -15 -15 -14 -14 -14 -14 -14 -15 -15 -15 -15 -16 -16 -16 -16 -16 -15 -13 -13 -13 -13 -13 -12 -12 -13 -12
-13 -12 -12 -12 -12 -12 -13 -13 -13 -13 -13 -13 -13 -14 -14 -14 -14 -14 -15 -15 -15 -15 -15 -15 -15 -15 -15 -16 -18 -16 -15 -15 -15 -16 -16 -16 -14 -13 -13 -13 -13 -13 -12 -13 -13
-13 -13 -12 -13 -12 -12 -12 -13 -13 -13 -13 -13 -13 -13 -14 -14 -14 -14 -15 -15 -15 -15 -15 -16 -16 -18 -17 -16 -15 -15 -16 -16 -16 -16 -17 -16 -14 -13 -13 -14 -14 -13 -13 -13 -13
-13 -13 -13 -13 -13 -13 -13 -13 -13 -13 -13 -13 -14 -14 -14 -14 -14 -15 -15 -15 -15 -16 -16 -17 -17 -18 -18 -16 -16 -16 -17 -17 -17 -17 -16 -17 -14 -14 -14 -14 -13 -13 -13 -13 -13
-13 -13 -13 -13 -13 -13 -13 -13 -13 -14 -13 -14 -13 -14 -14 -15 -14 -14 -15 -15 -16 -16 -18 -18 -18 -19 -19 -18 -18 -18 -19 -19 -18 -16 -16 -15 -16 -14 -15 -15 -16 -14 -14 -13 -13
-12 -13 -13 -13 -13 -13 -13 -13 -13 -14 -15 -15 -14 -14 -14 -15 -15 -15 -15 -15 -16 -17 -17 -17 -18 -19 -18 -19 -19 -19 -19 -18 -19 -17 -16 -15 -16 -14 -15 -16 -16 -16 -13 -13 -13
-12 -13 -13 -13 -13 -14 -14 -14 -14 -14 -16 -17 -15 -15 -15 -16 -16 -17 -17 -17 -17 -18 -18 -19 -19 -18 -19 -19 -19 -19 -19 -19 -19 -19 -15 -16 -17 -15 -16 -16 -17 -16 -14 -14 -14
-12 -13 -13 -13 -13 -14 -14 -14 -14 -15 -16 -16 -15 -15 -16 -16 -17 -18 -18 -18 -18 -18 -18 -18 -18 -18 -17 -18 -18 -19 -19 -19 -19 -18 -17 -16 -15 -16 -17 -17 -17 -16 -15 -15 -15
-12 -13 -13 -13 -14 -14 -14 -15 -15 -15 -15 -15 -15 -15 -16 -18 -18 -18 -18 -19 -19 -18 -19 -18 -18 -18 -19 -18 -18 -18 -19 -19 -19 -18 -18 -16 -17 -16 -17 -17 -17 -16 -17 -16 -15
-12 -13 -13 -13 -14 -14 -14 -15 -15 -16 -15 -15 -16 -16 -16 -17 -18 -19 -18 -18 -18 -18 -19 -19 -20 -19 -19 -19 -18 -19 -19 -19 -19 -18 -18 -17 -17 -18 -17 -17 -17 -16 -17 -16 -16
-12 -12 -13 -13 -14 -14 -14 -15 -15 -16 -15 -16 -16 -16 -16 -17 -17 -18 -20 -20 -19 -19 -19 -20 -19 -19 -20 -20 -19 -20 -19 -20 -19 -19 -19 -18 -17 -18 -17 -17 -17 -17 -18 -17 -17
-13 -13 -13 -14 -14 -14 -14 -15 -15 -15 -15 -16 -16 -16 -16 -16 -17 -18 -21 -21 -20 -20 -19 -20 -20 -20 -21 -20 -20 -19 -20 -19 -20 -19 -19 -19 -17 -17 -17 -17 -18 -17 -18 -18 -18
-13 -13 -14 -15 -15 -15 -15 -15 -15 -15 -16 -16 -16 -16 -16 -16 -17 -17 -18 -21 -21 -21 -21 -21 -21 -20 -20 -20 -21 -19 -19 -18 -19 -19 -19 -19 -16 -19 -18 -18 -18 -18 -18 -18 -19
-13 -14 -13 -14 -14 -15 -15 -15 -15 -15 -16 -16 -16 -16 -16 -16 -17 -18 -18 -19 -20 -21 -21 -21 -22 -22 -21 -20 -21 -20 -20 -20 -20 -19 -19 -19 -18 -19 -19 -18 -18 -19 -18 -19 -19
-13 -13 -14 -14 -15 -15 -15 -15 -15 -16 -16 -16 -16 -16 -16 -16 -17 -18 -19 -19 -20 -20 -21 -22 -22 -22 -21 -20 -21 -21 -20 -20 -20 -20 -20 -20 -19 -19 -19 -19 -20 -20 -19 -19 -19
-13 -13 -14 -14 -15 -15 -15 -15 -15 -16 -16 -16 -16 -16 -16 -17 -18 -19 -19 -19 -20 -20 -21 -21 -21 -21 -21 -21 -20 -20 -20 -20 -20 -21 -21 -20 -18 -21 -20 -20 -19 -19 -19 -19 -19
-14 -14 -14 -15 -15 -15 -15 -15 -16 -16 -16 -16 -16 -16 -16 -17 -18 -19 -19 -20 -20 -20 -21 -21 -21 -21 -21 -21 -20 -19 -21 -20 -21 -20 -21 -21 -21 -20 -20 -19 -19 -19 -19 -18 -19

GFSSW_500_temp_063.txt.gz
Temp
-12 -13 -13 -14 -15 -16 -16 -15 -14 -14 -13 -13 -13 -13 -12 -12 -11 -11 -11 -11 -11 -11 -11 -11 -11 -11 -11 -10 -10 -10 -9 -8 -8 -8 -8 -10 -11 -11 -11 -11 -11 -11 -11 -9 -9
-12 -12 -13 -13 -14 -15 -15 -15 -14 -14 -13 -13 -13 -13 -13 -12 -12 -12 -12 -12 -12 -12 -11 -11 -11 -11 -11 -11 -11 -10 -9 -8 -9 -9 -9 -10 -11 -11 -12 -10 -11 -11 -11 -12 -10
-12 -12 -12 -13 -13 -14 -15 -15 -14 -14 -14 -13 -13 -13 -13 -13 -12 -12 -12 -12 -12 -12 -12 -12 -12 -11 -11 -11 -11 -11 -9 -9 -9 -10 -10 -11 -11 -12 -12 -10 -11 -11 -12 -12 -11
-12 -12 -12 -13 -13 -13 -14 -14 -14 -14 -14 -14 -13 -13 -13 -13 -12 -13 -13 -12 -12 -12 -12 -12 -12 -12 -12 -12 -12 -11 -10 -10 -10 -10 -11 -10 -12 -11 -12 -13 -10 -11 -11 -11 -11
-12 -12 -12 -12 -13 -13 -13 -14 -14 -14 -14 -14 -14 -13 -13 -13 -13 -13 -13 -13 -13 -13 -13 -13 -13 -12 -12 -12 -12 -11 -11 -11 -11 -11 -11 -11 -10 -11 -12 -11 -13 -11 -11 -12 -11
-12 -12 -12 -12 -12 -13 -13 -13 -13 -13 -14 -14 -14 -14 -14 -13 -13 -14 -13 -13 -13 -13 -13 -13 -13 -13 -12 -12 -12 -12 -12 -12 -12 -11 -11 -12 -12 -12 -10 -12 -13 -12 -10 -11 -11
-12 -12 -12 -12 -12 -12 -12 -13 -13 -13 -13 -13 -14 -14 -14 -14 -13 -14 -14 -13 -13 -13 -13 -13 -13 -13 -13 -13 -13 -13 -13 -12 -11 -11 -11 -12 -11 -10 -11 -12 -12 -12 -12 -10 -10
-12 -12 -12 -12 -12 -12 -12 -12 -13 -13 -13 -13 -13 -13 -14 -14 -14 -14 -14 -14 -14 -13 -13 -13 -13 -14 -14 -14 -14 -13 -13 -13 -12 -13 -12 -13 -11 -11 -13 -13 -12 -11 -12 -12 -12
-12 -12 -12 -12 -12 -12 -12 -12 -12 -12 -13 -13 -13 -13 -13 -13 -14 -14 -14 -14 -14 -14 -14 -14 -13 -14 -14 -14 -14 -14 -13 -14 -13 -14 -14 -14 -12 -12 -13 -13 -13 -13 -13 -12 -12
-12 -12 -12 -12 -12 -12 -12 -12 -12 -12 -12 -13 -13 -13 -13 -13 -13 -14 -14 -14 -14 -14 -14 -14 -14 -14 -14 -14 -13 -14 -14 -14 -14 -14 -15 -15 -13 -13 -13 -13 -13 -13 -12 -12 -12
-12 -12 -12 -12 -12 -12 -12 -12 -12 -13 -12 -12 -13 -13 -13 -13 -13 -13 -14 -14 -14 -14 -14 -14 -14 -14 -14 -14 -15 -15 -15 -15 -15 -15 -16 -16 -15 -15 -14 -13 -13 -13 -12 -12 -13
-12 -12 -13 -13 -12 -12 -12 -12 -12 -12 -13 -12 -12 -13 -13 -13 -13 -13 -13 -13 -14 -14 -15 -15 -14 -15 -15 -15 -15 -15 -16 -15 -15 -15 -16 -16 -16 -16 -16 -13 -13 -13 -13 -13 -13
-12 -12 -12 -13 -13 -13 -13 -12 -12 -12 -12 -13 -13 -13 -13 -13 -13 -13 -14 -14 -14 -14 -15 -15 -15 -15 -16 -17 -17 -17 -17 -15 -15 -15 -16 -16 -16 -16 -13 -13 -14 -14 -14 -13 -13
-12 -12 -12 -13 -13 -13 -13 -13 -13 -13 -12 -13 -13 -14 -13 -14 -14 -14 -13 -14 -14 -14 -15 -15 -16 -17 -18 -18 -19 -17 -17 -17 -17 -17 -16 -17 -16 -14 -14 -14 -15 -13 -14 -14 -13
-11 -12 -12 -13 -13 -13 -13 -13 -13 -13 -13 -13 -13 -13 -13 -14 -14 -13 -14 -15 -15 -15 -16 -16 -16 -17 -18 -18 -18 -17 -18 -19 -18 -18 -16 -15 -16 -13 -14 -15 -14 -14 -14 -14 -14
-12 -11 -12 -12 -13 -13 -13 -14 -14 -14 -14 -15 -14 -14 -14 -14 -14 -15 -14 -14 -15 -15 -16 -16 -18 -18 -18 -18 -18 -18 -18 -18 -18 -19 -17 -15 -17 -15 -15 -15 -15 -16 -15 -14 -14
-12 -12 -12 -12 -13 -13 -13 -14 -14 -15 -15 -16 -17 -15 -15 -16 -16 -16 -16 -17 -17 -18 -17 -17 -17 -18 -18 -18 -18 -19 -19 -19 -19 -18 -17 -17 -18 -15 -15 -16 -17 -16 -16 -14 -14
-12 -12 -12 -12 -13 -13 -13 -14 -15 -15 -16 -16 -16 -16 -16 -16 -16 -17 -18 -18 -18 -17 -17 -17 -16 -18 -18 -18 -18 -18 -18 -18 -18 -18 -18 -18 -18 -16 -17 -17 -16 -17 -17 -16 -14
-12 -13 -12 -12 -13 -13 -14 -14 -15 -15 -15 -14 -15 -16 -16 -16 -16 -17 -17 -18 -18 -18 -17 -18 -17 -18 -18 -19 -18 -19 -19 -19 -19 -19 -18 -17 -18 -17 -17 -17 -17 -17 -17 -16 -16
-12 -13 -13 -14 -13 -14 -14 -14 -15 -15 -15 -15 -16 -16 -15 -16 -16 -17 -18 -18 -18 -18 -18 -18 -18 -18 -19 -19 -19 -19 -19 -19 -19 -19 -18 -17 -17 -17 -17 -16 -17 -17 -17 -17 -17
-12 -12 -13 -13 -14 -14 -14 -14 -14 -15 -15 -15 -15 -16 -16 -16 -16 -16 -17 -18 -18 -18 -19 -19 -20 -19 -19 -20 -20 -20 -20 -19 -19 -19 -18 -18 -17 -18 -18 -17 -17 -17 -17 -17 -17
-12 -12 -13 -13 -13 -14 -14 -15 -14 -15 -16 -15 -15 -16 -16 -16 -16 -16 -17 -17 -18 -18 -19 -20 -20 -20 -20 -20 -20 -20 -20 -19 -19 -19 -18 -19 -16 -18 -18 -18 -18 -17 -17 -17 -17
-12 -12 -13 -14 -14 -14 -14 -15 -15 -15 -15 -15 -15 -15 -16 -16 -16 -16 -17 -18 -18 -18 -19 -19 -20 -20 -20 -20 -20 -21 -21 -19 -20 -19 -19 -19 -17 -18 -18 -17 -18 -17 -17 -17 -17
-13 -13 -13 -13 -14 -14 -15 -15 -16 -16 -15 -15 -16 -16 -16 -16 -16 -16 -17 -18 -19 -19 -19 -19 -20 -21 -21 -22 -22 -21 -21 -21 -20 -19 -19 -19 -19 -19 -19 -19 -19 -18 -18 -18 -18
-13 -13 -13 -14 -14 -14 -15 -15 -15 -16 -15 -16 -15 -16 -16 -16 -16 -17 -18 -19 -19 -19 -19 -20 -20 -21 -21 -22 -22 -20 -20 -20 -20 -20 -20 -20 -20 -20 -20 -19 -19 -18 -19 -19 -18
-14 -14 -14 -15 -15 -15 -15 -15 -15 -16 -16 -16 -16 -16 -16 -16 -16 -17 -18 -19 -20 -20 -20 -20 -20 -20 -21 -21 -21 -21 -20 -20 -20 -20 -20 -20 -19 -20 -19 -20 -20 -20 -20 -18 -17
-14 -14 -14 -15 -15 -15 -15 -15 -16 -16 -16 -16 -16 -16 -16 -16 -17 -17 -18 -19 -20 -20 -20 -20 -20 -20 -21 -20 -21 -21 -20 -20 -20 -20 -19 -19 -19 -19 -19 -19 -19 -18 -19 -19 -18

GFSSW_500_temp_069.txt.gz
Temp
-11 -11 -11 -11 -12 -12 -13 -14 -15 -15 -15 -15 -14 -13 -13 -12 -12 -12 -11 -11 -11 -11 -11 -11 -11 -11 -11 -11 -11 -10 -9 -8 -8 -9 -9 -10 -9 -10 -9 -10 -11 -9 -9 -9 -8
-11 -11 -11 -12 -12 -12 -13 -14 -15 -15 -14 -14 -14 -14 -13 -13 -12 -11 -11 -11 -10 -11 -10 -11 -11 -10 -11 -11 -10 -10 -10 -9 -9 -10 -10 -10 -10 -10 -10 -10 -11 -10 -9 -9 -9
-11 -11 -11 -12 -12 -12 -13 -13 -14 -14 -14 -14 -14 -14 -13 -13 -12 -12 -12 -12 -11 -11 -11 -11 -10 -11 -11 -11 -10 -10 -10 -10 -10 -10 -10 -10 -10 -11 -10 -10 -11 -11 -11 -10 -11
-12 -12 -12 -12 -12 -12 -12 -13 -13 -13 -14 -14 -14 -14 -13 -13 -13 -13 -12 -12 -12 -11 -11 -11 -10 -10 -11 -10 -11 -10 -10 -10 -10 -11 -10 -10 -11 -11 -11 -10 -11 -10 -11 -11 -10
-11 -12 -12 -12 -12 -12 -12 -12 -13 -13 -13 -14 -14 -14 -14 -14 -13 -13 -13 -13 -13 -12 -12 -12 -12 -11 -10 -10 -10 -9 -10 -10 -10 -11 -11 -11 -10 -11 -10 -10 -11 -11 -11 -11 -11
-11 -11 -12 -12 -12 -12 -12 -12 -12 -13 -13 -13 -13 -14 -14 -14 -14 -14 -13 -13 -13 -13 -13 -12 -12 -12 -12 -11 -11 -11 -10 -11 -10 -11 -11 -11 -11 -11 -10 -11 -11 -11 -12 -11 -11
-11 -11 -11 -12 -12 -12 -12 -12 -12 -12 -13 -13 -13 -13 -13 -14 -14 -14 -14 -14 -13 -13 -13 -13 -12 -12 -12 -12 -12 -12 -11 -11 -11 -12 -12 -12 -11 -11 -11 -12 -12 -11 -12 -12 -11
-11 -11 -11 -11 -12 -12 -12 -12 -12 -12 -12 -12 -13 -13 -12 -13 -13 -14 -14 -14 -14 -14 -13 -13 -13 -12 -12 -13 -12 -12 -12 -11 -12 -13 -13 -14 -11 -12 -13 -13 -13 -12 -12 -12 -12
-11 -11 -11 -11 -11 -12 -12 -12 -12 -12 -12 -12 -12 -13 -13 -12 -13 -13 -14 -14 -14 -14 -14 -13 -13 -13 -13 -13 -13 -13 -12 -12 -13 -14 -14 -14 -11 -12 -14 -13 -13 -13 -13 -13 -12
-11 -11 -11 -11 -11 -12 -12 -12 -12 -12 -12 -12 -12 -13 -13 -12 -13 -13 -13 -13 -14 -14 -14 -14 -14 -13 -14 -14 -13 -14 -13 -13 -13 -14 -15 -14 -11 -12 -13 -14 -13 -12 -13 -13 -13
-11 -11 -11 -11 -11 -11 -12 -12 -12 -12 -12 -13 -12 -13 -13 -13 -13 -13 -13 -13 -14 -14 -14 -14 -14 -14 -14 -14 -14 -14 -14 -13 -13 -14 -15 -14 -12 -12 -14 -14 -13 -13 -12 -13 -13
-11 -11 -11 -11 -11 -11 -11 -12 -12 -13 -13 -12 -13 -13 -13 -13 -14 -13 -14 -13 -14 -14 -14 -14 -15 -15 -15 -15 -14 -14 -14 -14 -14 -14 -15 -14 -13 -13 -14 -15 -13 -13 -13 -13 -13
-11 -11 -11 -11 -11 -11 -11 -11 -12 -13 -13 -13 -13 -13 -13 -13 -13 -14 -14 -14 -14 -14 -14 -14 -15 -14 -15 -15 -15 -15 -15 -15 -15 -15 -15 -15 -14 -13 -14 -15 -15 -14 -14 -14 -13
-11 -12 -11 -11 -11 -11 -12 -12 -12 -12 -13 -13 -13 -13 -13 -13 -13 -13 -14 -14 -14 -14 -13 -14 -15 -15 -15 -15 -16 -15 -16 -16 -16 -16 -16 -16 -15 -14 -15 -16 -16 -15 -15 -15 -14
-11 -12 -11 -11 -11 -12 -12 -12 -13 -13 -13 -13 -13 -13 -13 -14 -14 -13 -13 -14 -14 -15 -14 -15 -14 -14 -15 -16 -16 -16 -17 -17 -17 -17 -17 -17 -17 -15 -15 -16 -16 -16 -15 -15 -15
-11 -11 -11 -12 -12 -12 -12 -12 -13 -13 -13 -13 -13 -13 -14 -14 -14 -14 -14 -14 -14 -14 -14 -14 -15 -15 -16 -17 -17 -17 -18 -18 -18 -18 -18 -16 -18 -15 -15 -16 -16 -17 -17 -17 -16
-12 -12 -11 -12 -12 -13 -13 -13 -13 -13 -13 -13 -13 -13 -13 -14 -14 -14 -14 -14 -14 -14 -14 -14 -14 -15 -16 -16 -17 -18 -18 -18 -18 -18 -17 -18 -18 -16 -16 -17 -17 -17 -17 -17 -16
-11 -12 -12 -12 -12 -12 -13 -13 -14 -13 -13 -14 -13 -14 -14 -15 -14 -14 -14 -14 -14 -14 -15 -14 -14 -16 -17 -18 -18 -19 -18 -18 -18 -18 -18 -18 -17 -16 -17 -17 -18 -18 -16 -16 -16
-11 -11 -11 -12 -13 -12 -13 -13 -14 -14 -13 -14 -15 -15 -15 -16 -15 -16 -16 -16 -16 -16 -16 -15 -15 -16 -17 -18 -19 -19 -19 -19 -19 -19 -18 -17 -16 -16 -17 -17 -18 -17 -16 -16 -16
-11 -11 -11 -12 -13 -13 -13 -13 -14 -14 -15 -15 -15 -15 -15 -16 -16 -16 -16 -16 -16 -16 -16 -16 -16 -17 -18 -18 -18 -19 -19 -19 -20 -19 -18 -18 -17 -17 -18 -18 -18 -18 -18 -17 -16
-11 -12 -12 -12 -13 -13 -14 -14 -14 -14 -15 -15 -15 -15 -15 -16 -16 -16 -16 -16 -16 -16 -16 -17 -17 -18 -18 -19 -18 -19 -20 -20 -21 -20 -19 -19 -19 -18 -18 -18 -18 -18 -17 -17 -17
-12 -12 -12 -12 -13 -14 -14 -14 -15 -14 -14 -14 -15 -15 -16 -16 -16 -16 -16 -16 -16 -16 -16 -17 -18 -19 -19 -19 -19 -20 -20 -21 -21 -20 -20 -19 -18 -19 -19 -18 -18 -18 -19 -18 -18
-12 -12 -12 -13 -14 -14 -14 -14 -15 -15 -15 -15 -16 -16 -16 -16 -16 -16 -16 -16 -16 -16 -16 -17 -18 -19 -19 -19 -20 -20 -20 -21 -21 -21 -20 -21 -20 -20 -19 -19 -19 -18 -18 -18 -18
-13 -13 -13 -13 -14 -15 -15 -15 -16 -16 -16 -16 -16 -16 -16 -16 -16 -16 -16 -16 -16 -16 -17 -18 -19 -20 -20 -20 -20 -21 -21 -21 -21 -21 -21 -21 -21 -21 -19 -19 -19 -19 -18 -19 -19
-13 -13 -14 -15 -15 -16 -15 -15 -16 -16 -16 -16 -16 -16 -16 -16 -16 -17 -17 -17 -17 -17 -17 -19 -19 -20 -20 -20 -20 -20 -20 -21 -21 -22 -22 -21 -21 -20 -19 -20 -19 -20 -20 -19 -19
-13 -14 -14 -15 -15 -16 -16 -16 -16 -16 -16 -16 -16 -16 -16 -16 -16 -17 -17 -17 -17 -17 -18 -19 -20 -20 -20 -20 -21 -21 -21 -21 -21 -21 -21 -21 -21 -20 -19 -20 -20 -20 -19 -19 -19
-14 -14 -14 -15 -16 -16 -16 -16 -16 -16 -17 -17 -16 -16 -16 -16 -17 -17 -17 -17 -17 -18 -18 -20 -20 -20 -20 -20 -21 -21 -21 -20 -21 -21 -21 -21 -21 -20 -20 -20 -20 -19 -19 -19 -18

GFSSW_500_temp_072.txt.gz
Temp
-11 -11 -11 -11 -11 -11 -11 -12 -13 -14 -14 -15 -15 -15 -15 -14 -14 -12 -12 -12 -12 -12 -12 -11 -11 -11 -10 -10 -10 -10 -9 -8 -8 -8 -9 -10 -9 -10 -11 -10 -10 -9 -9 -9 -9
-10 -11 -11 -11 -11 -11 -12 -12 -13 -14 -14 -14 -14 -15 -14 -14 -13 -12 -11 -11 -12 -12 -12 -11 -11 -11 -11 -11 -10 -10 -9 -9 -10 -10 -10 -10 -10 -10 -10 -10 -10 -10 -10 -9 -9
-10 -11 -11 -11 -11 -11 -12 -12 -12 -13 -14 -14 -14 -14 -14 -14 -13 -12 -12 -11 -11 -11 -11 -11 -11 -11 -11 -11 -11 -10 -10 -10 -10 -10 -10 -10 -10 -10 -10 -10 -10 -10 -10 -10 -9
-11 -11 -11 -11 -11 -11 -11 -12 -12 -13 -13 -14 -14 -14 -14 -13 -13 -13 -12 -12 -11 -11 -11 -11 -11 -11 -11 -11 -11 -10 -10 -10 -10 -11 -10 -10 -10 -10 -10 -9 -11 -10 -11 -10 -9
-11 -11 -11 -11 -11 -11 -11 -12 -12 -12 -13 -13 -14 -14 -14 -14 -14 -13 -13 -12 -12 -12 -11 -11 -11 -11 -11 -11 -11 -10 -11 -11 -11 -11 -11 -11 -10 -11 -9 -10 -11 -10 -11 -10 -10
-11 -11 -11 -11 -11 -11 -11 -12 -12 -12 -12 -13 -13 -13 -14 -14 -14 -14 -13 -13 -13 -12 -12 -12 -11 -11 -11 -12 -12 -11 -11 -11 -11 -12 -12 -12 -11 -10 -10 -11 -11 -11 -10 -11 -11
-11 -11 -11 -11 -11 -12 -11 -12 -12 -12 -12 -12 -13 -13 -13 -13 -13 -14 -13 -13 -13 -13 -13 -13 -12 -12 -12 -12 -11 -11 -11 -11 -12 -13 -13 -12 -11 -10 -11 -12 -11 -11 -11 -11 -11
-11 -11 -11 -11 -11 -11 -12 -12 -12 -12 -12 -12 -12 -13 -13 -13 -13 -13 -14 -14 -14 -13 -13 -13 -12 -12 -12 -12 -12 -11 -11 -11 -12 -13 -13 -13 -11 -12 -12 -12 -12 -12 -12 -12 -12
-11 -11 -11 -11 -11 -11 -12 -12 -12 -12 -12 -12 -12 -12 -13 -13 -13 -12 -12 -13 -14 -14 -14 -13 -13 -13 -13 -13 -13 -13 -12 -12 -12 -13 -13 -12 -11 -12 -12 -12 -11 -12 -12 -12 -12
-11 -10 -11 -11 -11 -11 -11 -12 -12 -12 -12 -12 -12 -12 -12 -12 -13 -13 -12 -13 -13 -14 -14 -14 -14 -14 -13 -14 -13 -13 -13 -12 -12 -13 -13 -12 -11 -12 -12 -13 -12 -11 -12 -12 -12
-11 -11 -11 -11 -11 -11 -11 -12 -12 -12 -12 -12 -12 -12 -12 -12 -12 -13 -13 -13 -13 -13 -14 -14 -14 -14 -14 -14 -14 -14 -13 -13 -13 -13 -13 -13 -12 -12 -13 -13 -13 -12 -12 -12 -12
-12 -11 -11 -11 -11 -11 -11 -11 -12 -12 -12 -12 -12 -13 -13 -13 -12 -12 -13 -13 -13 -13 -13 -13 -14 -13 -14 -14 -14 -14 -14 -14 -14 -14 -14 -14 -13 -13 -13 -13 -13 -13 -13 -13 -12
-12 -12 -11 -11 -11 -11 -12 -12 -12 -12 -13 -13 -13 -13 -13 -13 -13 -13 -13 -13 -13 -13 -14 -14 -14 -13 -13 -13 -13 -14 -13 -14 -14 -14 -15 -14 -12 -13 -14 -14 -14 -14 -14 -14 -13
-12 -12 -12 -12 -12 -12 -12 -12 -12 -12 -13 -13 -13 -13 -13 -13 -13 -13 -13 -14 -14 -13 -13 -14 -14 -14 -14 -14 -14 -14 -14 -14 -14 -14 -14 -15 -12 -13 -14 -15 -15 -14 -15 -14 -14
-11 -12 -12 -12 -12 -12 -12 -12 -12 -13 -13 -13 -13 -13 -13 -14 -14 -14 -14 -14 -14 -14 -14 -15 -14 -14 -15 -15 -15 -15 -15 -15 -16 -16 -16 -16 -16 -13 -14 -14 -15 -15 -16 -17 -16
-11 -11 -12 -13 -12 -12 -12 -12 -12 -14 -14 -14 -13 -14 -14 -14 -14 -15 -15 -15 -15 -15 -15 -15 -15 -15 -15 -16 -16 -16 -16 -16 -17 -17 -16 -17 -18 -14 -16 -16 -16 -16 -17 -17 -17
-11 -11 -11 -12 -13 -12 -13 -13 -13 -14 -14 -14 -14 -14 -15 -15 -15 -15 -15 -15 -15 -15 -14 -15 -15 -15 -15 -15 -16 -16 -16 -16 -16 -17 -17 -18 -18 -17 -16 -17 -17 -18 -18 -17 -17
-11 -11 -11 -11 -12 -13 -13 -13 -13 -13 -14 -14 -14 -15 -15 -16 -15 -15 -15 -15 -15 -15 -15 -15 -14 -15 -15 -16 -16 -16 -17 -18 -18 -17 -18 -18 -18 -17 -17 -18 -17 -18 -17 -17 -17
-12 -12 -12 -11 -12 -12 -13 -14 -14 -14 -14 -14 -15 -15 -15 -15 -16 -16 -16 -16 -16 -16 -16 -16 -15 -16 -16 -16 -16 -16 -17 -18 -18 -18 -19 -18 -18 -17 -18 -18 -17 -17 -17 -17 -17
-12 -12 -12 -12 -12 -12 -13 -14 -14 -14 -15 -14 -15 -15 -15 -15 -16 -17 -16 -16 -16 -16 -16 -16 -16 -16 -17 -16 -16 -17 -18 -18 -18 -19 -19 -19 -19 -18 -19 -19 -19 -19 -18 -17 -16
-13 -12 -12 -12 -12 -13 -13 -14 -15 -14 -15 -15 -15 -15 -15 -15 -16 -16 -16 -16 -16 -16 -16 -16 -16 -16 -17 -17 -17 -18 -19 -19 -19 -20 -21 -20 -19 -19 -19 -19 -19 -20 -18 -18 -18
-13 -13 -13 -13 -13 -13 -14 -15 -15 -15 -15 -15 -16 -16 -16 -16 -16 -16 -16 -16 -16 -16 -16 -16 -16 -16 -17 -17 -19 -19 -19 -19 -19 -20 -20 -21 -19 -20 -20 -19 -19 -19 -19 -18 -19
-13 -13 -13 -13 -13 -13 -14 -15 -15 -16 -16 -16 -16 -16 -16 -16 -16 -16 -16 -16 -16 -17 -17 -16 -16 -16 -17 -18 -19 -19 -20 -20 -20 -20 -20 -21 -21 -21 -21 -21 -20 -19 -19 -19 -19
-14 -14 -13 -13 -13 -14 -14 -15 -15 -16 -16 -16 -16 -16 -17 -16 -16 -17 -17 -16 -16 -17 -17 -16 -17 -18 -18 -19 -20 -19 -20 -20 -20 -20 -20 -20 -21 -21 -22 -21 -20 -20 -19 -19 -19
-14 -14 -14 -14 -14 -14 -14 -14 -15 -16 -16 -17 -17 -17 -17 -16 -17 -17 -17 -16 -17 -17 -17 -17 -17 -18 -19 -20 -20 -20 -20 -21 -21 -21 -20 -21 -21 -21 -21 -21 -20 -19 -19 -19 -18
-15 -15 -15 -14 -14 -14 -14 -15 -16 -16 -16 -17 -17 -17 -17 -17 -17 -17 -17 -17 -17 -17 -17 -17 -18 -18 -20 -20 -20 -20 -20 -20 -21 -20 -20 -21 -20 -21 -20 -20 -20 -20 -19 -19 -18
-15 -15 -15 -15 -15 -14 -15 -15 -16 -16 -16 -17 -17 -17 -17 -17 -17 -17 -17 -17 -17 -17 -17 -18 -18 -19 -20 -20 -20 -20 -20 -20 -21 -21 -21 -21 -21 -20 -20 -20 -20 -20 -20 -19 -19

GFSSW_500_temp_075.txt.gz
Temp
-10 -10 -10 -10 -11 -11 -11 -11 -11 -11 -12 -13 -14 -14 -15 -15 -15 -15 -15 -14 -13 -13 -12 -12 -12 -11 -11 -11 -10 -10 -9 -8 -8 -8 -9 -11 -11 -10 -10 -10 -9 -10 -10 -9 -8
-10 -10 -10 -10 -11 -11 -11 -11 -11 -11 -12 -13 -14 -14 -14 -14 -15 -15 -14 -14 -13 -12 -12 -12 -11 -11 -11 -11 -10 -10 -9 -9 -10 -9 -10 -10 -10 -11 -9 -9 -10 -10 -10 -10 -9
-10 -10 -10 -10 -11 -11 -11 -11 -11 -11 -12 -13 -13 -14 -14 -14 -14 -14 -14 -14 -13 -12 -12 -12 -11 -11 -11 -11 -11 -10 -10 -10 -10 -10 -10 -10 -10 -9 -9 -9 -9 -10 -10 -10 -10
-10 -10 -10 -10 -11 -11 -11 -11 -11 -11 -12 -12 -13 -13 -14 -14 -14 -14 -14 -14 -13 -13 -12 -11 -11 -11 -11 -11 -11 -10 -10 -10 -10 -10 -10 -10 -10 -10 -9 -9 -10 -10 -9 -8 -8
-10 -10 -10 -10 -10 -11 -11 -11 -11 -11 -12 -12 -12 -13 -13 -14 -14 -13 -13 -13 -13 -13 -13 -12 -11 -11 -11 -11 -11 -11 -10 -10 -10 -11 -11 -11 -10 -10 -10 -10 -10 -10 -10 -10 -10
-11 -10 -10 -10 -10 -11 -11 -12 -12 -12 -12 -12 -12 -12 -13 -13 -13 -13 -13 -13 -13 -13 -13 -12 -12 -12 -12 -12 -11 -11 -11 -11 -11 -11 -11 -11 -11 -10 -10 -11 -11 -11 -10 -10 -10
-11 -11 -10 -10 -10 -11 -11 -11 -12 -12 -12 -12 -12 -12 -12 -12 -13 -13 -13 -13 -13 -13 -13 -13 -13 -12 -13 -13 -12 -12 -12 -12 -12 -12 -11 -11 -10 -10 -11 -11 -11 -11 -11 -11 -11
-11 -11 -11 -11 -10 -10 -11 -11 -12 -12 -12 -12 -12 -12 -12 -12 -12 -12 -13 -13 -13 -13 -13 -13 -13 -13 -13 -13 -12 -12 -12 -12 -12 -12 -12 -11 -10 -11 -11 -11 -11 -11 -11 -11 -11
-12 -11 -11 -11 -11 -10 -11 -11 -12 -12 -12 -12 -12 -12 -12 -12 -12 -12 -12 -12 -13 -13 -14 -13 -13 -13 -13 -13 -13 -13 -12 -12 -12 -12 -12 -11 -11 -12 -12 -11 -11 -11 -11 -11 -11
-11 -11 -11 -11 -11 -11 -11 -11 -11 -12 -12 -12 -12 -12 -12 -12 -12 -12 -12 -12 -12 -12 -13 -14 -14 -13 -13 -13 -13 -12 -12 -12 -12 -12 -12 -12 -11 -11 -12 -12 -11 -11 -11 -12 -11
-11 -11 -11 -11 -11 -12 -11 -12 -12 -12 -12 -12 -12 -12 -12 -12 -12 -12 -12 -12 -12 -12 -12 -13 -14 -14 -14 -13 -13 -13 -13 -13 -13 -13 -12 -12 -11 -12 -12 -12 -12 -12 -12 -12 -12
-10 -11 -11 -11 -11 -12 -12 -12 -12 -12 -12 -12 -13 -13 -13 -13 -13 -13 -13 -13 -12 -12 -12 -13 -13 -13 -13 -13 -14 -14 -14 -13 -13 -13 -13 -12 -12 -13 -13 -12 -12 -12 -13 -12 -12
-10 -10 -11 -11 -12 -11 -12 -12 -12 -12 -13 -12 -13 -13 -13 -13 -13 -13 -13 -13 -13 -13 -13 -13 -13 -13 -13 -13 -13 -13 -13 -13 -13 -13 -13 -12 -12 -12 -13 -12 -12 -13 -13 -14 -14
-11 -11 -11 -11 -12 -12 -12 -12 -12 -12 -12 -13 -13 -13 -13 -13 -13 -13 -13 -14 -14 -14 -14 -14 -14 -14 -14 -14 -14 -13 -14 -14 -13 -13 -13 -13 -11 -12 -12 -13 -13 -13 -14 -14 -14
-11 -11 -11 -11 -11 -12 -12 -12 -13 -12 -13 -13 -13 -14 -15 -15 -14 -14 -14 -14 -14 -14 -14 -14 -14 -14 -14 -14 -14 -14 -14 -14 -14 -14 -13 -13 -12 -12 -13 -13 -14 -15 -15 -15 -15
-11 -11 -11 -11 -11 -11 -12 -12 -13 -13 -13 -13 -13 -14 -14 -15 -15 -15 -15 -15 -15 -15 -15 -15 -15 -15 -15 -15 -15 -15 -15 -15 -15 -15 -14 -15 -14 -13 -14 -15 -15 -15 -15 -15 -16
-12 -12 -12 -12 -11 -11 -11 -12 -13 -13 -13 -13 -14 -14 -15 -15 -15 -16 -16 -16 -16 -16 -16 -15 -15 -16 -15 -16 -15 -16 -16 -15 -15 -14 -14 -14 -14 -13 -15 -16 -15 -16 -17 -17 -17
-12 -12 -12 -12 -12 -12 -12 -12 -13 -13 -14 -14 -14 -14 -15 -16 -16 -16 -16 -16 -16 -16 -16 -15 -15 -15 -15 -16 -15 -15 -15 -16 -15 -15 -14 -16 -14 -16 -16 -17 -17 -17 -18 -17 -17
-13 -13 -13 -12 -12 -12 -12 -13 -13 -13 -14 -15 -15 -15 -15 -16 -16 -16 -16 -16 -16 -16 -16 -16 -15 -15 -15 -15 -15 -15 -15 -17 -17 -17 -16 -16 -16 -17 -18 -18 -18 -18 -18 -18 -17
-13 -13 -13 -13 -13 -13 -13 -13 -13 -13 -15 -15 -15 -15 -15 -16 -16 -16 -16 -16 -16 -16 -16 -16 -16 -16 -16 -16 -16 -16 -17 -17 -18 -18 -18 -18 -18 -18 -19 -19 -19 -20 -18 -18 -18
-14 -13 -13 -13 -13 -13 -13 -13 -13 -13 -14 -15 -15 -15 -16 -16 -16 -16 -16 -17 -17 -17 -17 -16 -16 -16 -17 -17 -16 -17 -17 -18 -19 -19 -19 -19 -18 -19 -20 -19 -20 -20 -19 -19 -18
-14 -14 -14 -14 -14 -14 -14 -14 -14 -14 -14 -15 -16 -15 -16 -16 -16 -16 -17 -17 -17 -17 -17 -16 -16 -17 -17 -16 -17 -17 -18 -19 -20 -19 -20 -20 -18 -20 -20 -19 -20 -19 -19 -19 -19
-15 -14 -14 -14 -14 -14 -14 -14 -14 -14 -15 -15 -16 -16 -16 -16 -17 -17 -17 -17 -17 -17 -16 -17 -17 -17 -16 -17 -17 -18 -19 -20 -20 -19 -20 -20 -20 -20 -21 -20 -21 -20 -20 -19 -19
-15 -15 -15 -14 -14 -14 -14 -14 -14 -15 -15 -15 -16 -16 -17 -17 -17 -17 -17 -17 -17 -17 -17 -17 -17 -17 -17 -17 -17 -19 -20 -20 -20 -20 -20 -20 -20 -20 -20 -20 -21 -21 -20 -20 -20
-16 -15 -15 -15 -15 -15 -15 -15 -15 -15 -15 -15 -16 -16 -17 -17 -17 -17 -17 -17 -17 -17 -17 -17 -17 -17 -17 -18 -18 -19 -20 -20 -20 -20 -20 -20 -20 -20 -20 -20 -20 -20 -20 -20 -19
-16 -16 -16 -16 -15 -15 -15 -15 -15 -15 -16 -16 -16 -17 -17 -17 -17 -17 -17 -17 -17 -17 -17 -17 -17 -17 -18 -18 -19 -19 -20 -20 -20 -20 -20 -20 -20 -20 -20 -20 -20 -20 -20 -20 -20
-16 -16 -16 -16 -16 -15 -15 -16 -16 -16 -16 -16 -17 -17 -17 -17 -17 -17 -17 -17 -17 -17 -17 -17 -17 -17 -18 -19 -19 -19 -20 -20 -20 -20 -20 -21 -21 -21 -21 -21 -20 -20 -20 -20 -20

GFSSW_500_temp_078.txt.gz
Temp
-9 -9 -9 -9 -9 -9 -9 -10 -10 -10 -10 -10 -11 -11 -13 -14 -14 -14 -15 -16 -15 -15 -14 -13 -13 -12 -12 -11 -11 -11 -10 -9 -10 -10 -11 -11 -10 -10 -10 -9 -9 -8 -8 -8 -8
-10 -10 -9 -9 -9 -9 -9 -10 -10 -10 -11 -11 -11 -11 -13 -14 -14 -14 -15 -15 -15 -15 -14 -13 -13 -12 -12 -12 -11 -11 -10 -10 -10 -10 -10 -11 -11 -11 -10 -10 -10 -9 -10 -9 -9
-10 -10 -10 -10 -9 -9 -9 -10 -10 -11 -11 -11 -11 -12 -12 -14 -14 -14 -14 -15 -15 -15 -15 -13 -13 -12 -12 -12 -11 -11 -10 -11 -10 -10 -10 -10 -10 -11 -10 -9 -10 -10 -10 -10 -9
-10 -10 -10 -10 -10 -10 -9 -10 -10 -11 -11 -11 -11 -12 -12 -13 -14 -14 -14 -14 -14 -15 -15 -14 -12 -12 -12 -11 -11 -11 -11 -10 -10 -10 -10 -10 -10 -10 -10 -10 -10 -9 -9 -9 -9
-11 -10 -10 -10 -10 -10 -10 -10 -10 -11 -11 -11 -11 -11 -12 -12 -13 -14 -14 -14 -14 -14 -14 -14 -13 -12 -11 -11 -11 -11 -10 -10 -11 -11 -11 -10 -10 -10 -10 -9 -10 -10 -10 -10 -9
-11 -11 -11 -11 -10 -11 -11 -10 -10 -11 -11 -12 -12 -11 -12 -12 -13 -13 -14 -14 -14 -14 -13 -13 -13 -13 -12 -12 -12 -11 -11 -11 -11 -11 -11 -11 -11 -11 -10 -10 -10 -10 -10 -10 -10
-11 -11 -11 -11 -11 -11 -11 -11 -10 -11 -11 -12 -12 -12 -12 -12 -12 -12 -13 -13 -14 -14 -14 -13 -13 -12 -13 -12 -12 -12 -11 -11 -11 -11 -10 -10 -10 -10 -11 -10 -10 -9 -10 -10 -10
-11 -11 -11 -11 -11 -11 -11 -11 -11 -11 -11 -12 -12 -12 -12 -12 -12 -12 -12 -12 -13 -13 -14 -14 -13 -13 -13 -12 -12 -12 -12 -12 -11 -11 -11 -11 -10 -11 -10 -10 -10 -10 -10 -10 -10
-11 -11 -11 -11 -11 -11 -11 -11 -12 -11 -11 -12 -12 -12 -12 -12 -12 -12 -12 -12 -12 -13 -14 -14 -14 -14 -13 -13 -13 -12 -12 -12 -11 -12 -11 -11 -11 -11 -11 -11 -10 -10 -11 -10 -10
-10 -10 -10 -11 -11 -11 -11 -11 -12 -12 -12 -12 -12 -12 -12 -12 -12 -12 -12 -12 -12 -12 -12 -13 -14 -14 -14 -14 -14 -13 -13 -12 -12 -12 -12 -12 -11 -11 -11 -11 -11 -10 -11 -11 -11
-10 -11 -10 -10 -11 -11 -11 -12 -12 -12 -13 -13 -12 -13 -13 -13 -13 -13 -12 -12 -12 -12 -12 -13 -13 -13 -13 -13 -13 -13 -13 -13 -12 -12 -12 -12 -12 -12 -12 -11 -11 -12 -11 -11 -11
-10 -11 -10 -10 -11 -10 -11 -12 -12 -12 -12 -13 -13 -13 -13 -13 -13 -13 -13 -13 -13 -13 -13 -13 -13 -12 -13 -13 -13 -13 -13 -13 -12 -12 -12 -12 -12 -12 -12 -13 -13 -13 -12 -12 -12
-11 -11 -11 -11 -11 -11 -11 -11 -12 -12 -13 -12 -13 -14 -14 -13 -13 -13 -13 -13 -13 -13 -13 -13 -13 -13 -13 -13 -13 -13 -13 -13 -13 -13 -13 -13 -12 -12 -12 -12 -13 -13 -13 -13 -13
-11 -11 -11 -11 -11 -11 -11 -11 -12 -12 -13 -12 -12 -13 -14 -14 -15 -14 -14 -14 -14 -14 -14 -14 -14 -13 -13 -13 -13 -13 -12 -13 -12 -12 -12 -13 -12 -12 -13 -12 -13 -13 -13 -13 -13
-11 -11 -11 -11 -11 -11 -11 -11 -12 -12 -13 -13 -13 -13 -14 -14 -14 -15 -15 -15 -15 -14 -15 -14 -14 -14 -14 -14 -14 -14 -13 -13 -13 -12 -12 -12 -13 -12 -12 -12 -13 -12 -13 -13 -13
-12 -12 -12 -12 -12 -12 -12 -12 -12 -12 -13 -13 -14 -14 -14 -14 -14 -15 -15 -16 -16 -15 -15 -16 -15 -15 -15 -14 -14 -14 -14 -14 -13 -13 -13 -13 -13 -13 -13 -13 -13 -13 -13 -13 -13
-13 -12 -12 -12 -12 -12 -12 -12 -12 -13 -13 -13 -14 -14 -15 -14 -15 -15 -16 -16 -16 -16 -16 -16 -16 -16 -16 -16 -15 -15 -15 -15 -16 -17 -16 -17 -14 -14 -14 -14 -15 -14 -14 -14 -14
-13 -13 -13 -13 -13 -13 -12 -12 -13 -13 -13 -13 -14 -15 -15 -15 -15 -15 -16 -16 -16 -16 -16 -16 -16 -16 -16 -16 -16 -16 -15 -16 -15 -15 -15 -15 -14 -15 -15 -14 -16 -15 -15 -15 -16
-14 -13 -13 -13 -13 -13 -13 -13 -13 -13 -13 -14 -14 -15 -15 -15 -15 -16 -16 -16 -16 -16 -16 -16 -16 -16 -16 -16 -16 -17 -16 -16 -16 -15 -15 -16 -15 -15 -18 -17 -17 -17 -17 -17 -16
-14 -14 -14 -14 -14 -14 -13 -13 -13 -14 -14 -14 -14 -15 -16 -15 -15 -16 -16 -16 -16 -16 -16 -16 -16 -16 -16 -16 -16 -16 -16 -16 -16 -15 -16 -17 -17 -18 -20 -20 -19 -18 -18 -18 -18
-14 -15 -14 -14 -14 -14 -14 -14 -14 -14 -14 -14 -14 -15 -16 -16 -16 -16 -16 -16 -16 -16 -16 -17 -16 -16 -16 -16 -16 -16 -16 -16 -17 -17 -18 -17 -17 -20 -19 -20 -19 -19 -19 -19 -19
-15 -15 -15 -15 -15 -15 -15 -14 -14 -14 -14 -14 -14 -15 -16 -16 -16 -16 -16 -16 -16 -17 -17 -16 -16 -16 -17 -16 -17 -16 -16 -17 -17 -18 -19 -19 -17 -19 -20 -20 -19 -19 -19 -20 -20
-15 -15 -15 -15 -15 -15 -15 -15 -15 -15 -15 -15 -15 -15 -16 -16 -16 -16 -16 -16 -17 -17 -16 -16 -16 -17 -17 -17 -17 -16 -17 -18 -19 -19 -19 -20 -19 -20 -20 -19 -19 -20 -19 -20 -21
-16 -16 -16 -16 -16 -15 -15 -15 -15 -15 -15 -15 -15 -15 -16 -16 -16 -17 -17 -17 -17 -17 -17 -16 -17 -17 -17 -17 -16 -16 -17 -19 -19 -19 -19 -19 -19 -20 -20 -20 -20 -20 -20 -20 -20
-16 -16 -16 -16 -16 -16 -16 -15 -15 -15 -15 -15 -16 -16 -16 -17 -17 -17 -17 -17 -17 -17 -17 -16 -17 -17 -17 -17 -17 -17 -19 -19 -19 -19 -19 -19 -19 -20 -20 -20 -20 -20 -20 -20 -20
-16 -16 -16 -16 -16 -16 -16 -16 -16 -16 -16 -16 -16 -16 -17 -18 -18 -17 -17 -17 -17 -17 -17 -17 -17 -17 -17 -17 -17 -18 -19 -19 -19 -19 -19 -19 -19 -20 -20 -19 -19 -20 -20 -20 -20
-17 -17 -17 -17 -17 -17 -16 -16 -16 -16 -16 -16 -17 -18 -18 -18 -18 -18 -17 -17 -17 -17 -17 -17 -17 -17 -17 -17 -18 -18 -19 -19 -19 -19 -19 -19 -19 -19 -19 -19 -19 -19 -19 -19 -19

GFSSW_500_temp_084.txt.gz
Temp
-9 -9 -9 -9 -9 -9 -9 -9 -9 -9 -9 -9 -9 -9 -9 -9 -9 -9 -9 -9 -10 -11 -12 -13 -14 -15 -15 -15 -15 -14 -14 -12 -10 -11 -11 -11 -11 -11 -11 -10 -9 -11 -8 -10 -9
-10 -10 -10 -9 -9 -9 -9 -9 -9 -9 -9 -9 -9 -9 -9 -9 -9 -10 -10 -10 -11 -12 -12 -13 -15 -16 -16 -16 -15 -15 -15 -13 -12 -12 -13 -12 -11 -11 -11 -10 -10 -9 -7 -9 -9
-11 -11 -10 -10 -10 -10 -10 -9 -9 -9 -9 -9 -9 -9 -10 -10 -10 -10 -10 -10 -11 -12 -12 -14 -15 -16 -16 -16 -15 -15 -14 -13 -12 -13 -14 -14 -14 -13 -11 -10 -8 -10 -9 -9 -9
-11 -11 -11 -11 -11 -11 -10 -10 -10 -9 -9 -9 -10 -10 -10 -10 -10 -11 -11 -11 -12 -12 -13 -14 -14 -16 -16 -16 -15 -16 -14 -13 -13 -14 -14 -14 -13 -12 -10 -10 -11 -12 -9 -10 -9
-11 -11 -11 -11 -11 -11 -11 -11 -10 -10 -10 -10 -10 -10 -10 -10 -10 -11 -11 -11 -12 -13 -13 -14 -15 -15 -16 -16 -15 -15 -14 -13 -13 -14 -13 -11 -11 -11 -11 -11 -11 -12 -12 -11 -10
-10 -11 -11 -11 -11 -11 -11 -11 -10 -10 -10 -10 -10 -10 -11 -11 -11 -11 -11 -12 -12 -13 -13 -15 -14 -15 -15 -17 -16 -16 -14 -13 -13 -12 -11 -11 -11 -10 -10 -10 -10 -10 -10 -11 -11
-10 -11 -11 -11 -11 -11 -11 -11 -11 -11 -10 -10 -10 -11 -11 -11 -12 -11 -12 -12 -12 -13 -13 -14 -14 -14 -15 -15 -16 -16 -14 -13 -12 -12 -12 -12 -11 -10 -10 -11 -11 -10 -10 -10 -10
-10 -10 -10 -10 -10 -10 -11 -11 -11 -11 -11 -11 -11 -11 -11 -12 -12 -12 -12 -12 -12 -13 -13 -14 -14 -14 -14 -14 -14 -14 -13 -12 -12 -13 -12 -12 -11 -11 -12 -11 -10 -10 -11 -11 -10
-10 -10 -10 -10 -10 -10 -10 -11 -11 -11 -11 -11 -11 -11 -12 -13 -13 -12 -12 -13 -12 -13 -13 -14 -14 -14 -14 -14 -14 -14 -13 -13 -13 -14 -12 -11 -11 -12 -12 -10 -10 -10 -11 -11 -11
-10 -10 -10 -10 -10 -10 -10 -10 -11 -11 -11 -11 -11 -11 -12 -13 -13 -13 -13 -13 -13 -13 -13 -14 -14 -14 -14 -14 -14 -14 -15 -14 -14 -14 -14 -13 -12 -12 -11 -11 -10 -10 -10 -10 -10
-11 -11 -10 -10 -10 -10 -10 -10 -11 -11 -11 -12 -12 -12 -12 -13 -14 -14 -13 -13 -13 -13 -13 -14 -14 -14 -14 -14 -15 -16 -15 -15 -14 -14 -15 -15 -12 -11 -11 -11 -11 -10 -11 -10 -10
-11 -11 -11 -11 -11 -11 -11 -11 -11 -11 -11 -12 -12 -12 -12 -13 -13 -13 -14 -14 -14 -14 -13 -13 -14 -14 -15 -16 -16 -16 -15 -15 -15 -15 -14 -13 -12 -12 -12 -11 -12 -11 -11 -11 -11
-11 -11 -11 -11 -11 -11 -11 -11 -11 -11 -11 -12 -12 -12 -12 -13 -13 -14 -14 -14 -15 -14 -14 -14 -16 -16 -15 -15 -15 -14 -14 -14 -15 -16 -16 -13 -12 -13 -13 -13 -12 -12 -12 -11 -12
-12 -12 -12 -12 -12 -12 -12 -12 -12 -12 -12 -11 -12 -13 -13 -13 -13 -14 -14 -14 -15 -16 -14 -14 -16 -16 -15 -15 -15 -15 -15 -15 -15 -14 -14 -15 -13 -13 -13 -13 -13 -13 -13 -13 -13
-12 -12 -13 -12 -13 -12 -12 -12 -12 -12 -13 -13 -12 -13 -14 -14 -14 -14 -14 -14 -15 -15 -16 -16 -16 -16 -17 -16 -17 -16 -17 -16 -14 -14 -14 -13 -13 -13 -14 -14 -15 -15 -13 -12 -11
-13 -13 -13 -13 -13 -13 -13 -13 -13 -13 -14 -14 -13 -13 -14 -14 -14 -14 -15 -15 -15 -15 -16 -17 -16 -16 -17 -17 -17 -15 -15 -15 -14 -14 -14 -13 -14 -14 -14 -14 -14 -14 -13 -12 -13
-13 -13 -13 -13 -13 -13 -13 -13 -13 -14 -14 -15 -14 -14 -14 -15 -16 -15 -14 -15 -15 -16 -16 -17 -16 -16 -16 -17 -16 -16 -15 -15 -16 -15 -14 -14 -14 -14 -14 -14 -14 -14 -14 -14 -15
-13 -14 -14 -14 -14 -14 -13 -13 -14 -15 -15 -14 -14 -15 -17 -17 -16 -17 -17 -16 -16 -16 -16 -16 -16 -16 -15 -16 -16 -16 -16 -16 -15 -15 -14 -14 -14 -15 -14 -14 -14 -14 -14 -14 -14
-14 -14 -14 -14 -14 -14 -14 -14 -15 -14 -14 -14 -14 -14 -16 -16 -16 -17 -17 -16 -16 -16 -16 -16 -15 -15 -16 -16 -16 -16 -16 -16 -16 -15 -15 -14 -14 -14 -15 -14 -14 -14 -14 -15 -16
-14 -14 -14 -14 -14 -14 -14 -14 -15 -14 -15 -14 -14 -14 -16 -16 -15 -16 -16 -15 -16 -16 -16 -16 -15 -16 -15 -16 -16 -16 -16 -16 -16 -16 -16 -16 -15 -16 -17 -17 -16 -14 -15 -15 -16
-15 -14 -14 -15 -15 -15 -15 -15 -15 -15 -15 -15 -15 -15 -15 -15 -15 -15 -15 -16 -15 -16 -16 -16 -15 -16 -16 -16 -16 -16 -16 -16 -16 -16 -16 -15 -15 -17 -17 -17 -15 -16 -16 -17 -17
-15 -15 -15 -15 -15 -15 -15 -15 -16 -15 -15 -15 -15 -15 -15 -15 -15 -15 -16 -16 -16 -16 -16 -16 -16 -16 -16 -16 -16 -16 -17 -17 -17 -16 -16 -15 -14 -16 -17 -17 -16 -16 -17 -16 -15
-16 -16 -15 -15 -16 -16 -16 -16 -16 -16 -15 -15 -15 -15 -15 -15 -15 -15 -15 -16 -16 -16 -16 -16 -16 -16 -16 -16 -16 -17 -17 -17 -17 -17 -15 -16 -15 -17 -18 -17 -18 -18 -15 -14 -14
-16 -16 -15 -16 -16 -16 -16 -16 -16 -16 -16 -16 -16 -15 -15 -15 -15 -15 -15 -16 -16 -16 -16 -17 -17 -17 -16 -16 -16 -17 -17 -17 -16 -16 -16 -16 -17 -18 -18 -18 -18 -14 -13 -14 -15
-17 -17 -16 -16 -16 -16 -17 -17 -17 -17 -16 -16 -16 -16 -16 -16 -16 -15 -16 -16 -16 -16 -17 -17 -17 -17 -16 -17 -17 -17 -16 -16 -16 -16 -16 -17 -18 -18 -17 -16 -13 -14 -14 -14 -15
-18 -17 -17 -16 -16 -16 -17 -17 -17 -17 -17 -17 -16 -16 -16 -16 -16 -16 -16 -16 -17 -18 -17 -17 -17 -17 -17 -17 -17 -17 -17 -17 -17 -17 -17 -17 -16 -16 -13 -15 -14 -14 -15 -15 -14
-17 -19 -17 -17 -16 -16 -16 -17 -17 -17 -17 -17 -17 -16 -16 -16 -16 -17 -17 -18 -18 -18 -18 -17 -17 -17 -17 -17 -17 -16 -17 -17 -17 -18 -16 -16 -15 -14 -15 -15 -15 -14 -14 -13 -13

GFSSW_500_temp_087.txt.gz
Temp
-10 -10 -10 -10 -10 -10 -10 -9 -9 -9 -9 -9 -9 -9 -9 -9 -9 -9 -9 -9 -9 -9 -9 -9 -10 -10 -11 -12 -13 -14 -13 -11 -11 -11 -9 -10 -11 -10 -9 -10 -11 -11 -11 -11 -10
-10 -10 -10 -10 -11 -10 -10 -10 -10 -10 -9 -9 -9 -9 -9 -9 -9 -10 -9 -9 -9 -9 -9 -10 -10 -11 -11 -13 -14 -15 -14 -14 -13 -13 -12 -13 -12 -11 -10 -10 -11 -11 -11 -11 -10
-10 -10 -10 -10 -11 -11 -11 -11 -11 -10 -10 -9 -9 -9 -9 -9 -9 -10 -10 -10 -9 -9 -9 -10 -11 -11 -12 -14 -16 -16 -16 -16 -15 -14 -14 -14 -12 -12 -12 -10 -10 -11 -11 -10 -9
-10 -10 -10 -11 -11 -11 -11 -11 -11 -11 -10 -10 -10 -9 -9 -10 -10 -10 -10 -10 -10 -10 -10 -10 -11 -12 -13 -14 -16 -16 -16 -16 -15 -15 -14 -14 -15 -13 -13 -11 -11 -11 -11 -9 -10
-10 -10 -10 -10 -11 -11 -11 -11 -11 -11 -10 -10 -10 -10 -10 -10 -10 -11 -10 -11 -11 -10 -10 -11 -12 -12 -14 -15 -16 -16 -16 -16 -15 -15 -15 -15 -15 -15 -14 -11 -12 -12 -12 -11 -11
-10 -10 -10 -10 -11 -10 -10 -10 -10 -10 -10 -10 -10 -10 -10 -10 -10 -11 -11 -11 -11 -11 -11 -12 -12 -13 -14 -15 -16 -16 -16 -16 -16 -15 -15 -15 -13 -13 -12 -11 -11 -11 -10 -10 -10
-10 -10 -10 -10 -10 -10 -10 -10 -10 -11 -11 -10 -11 -11 -11 -10 -11 -11 -11 -11 -12 -11 -11 -12 -13 -13 -14 -14 -15 -16 -16 -16 -16 -15 -14 -14 -11 -11 -12 -12 -11 -11 -10 -10 -10
-10 -10 -10 -10 -10 -10 -10 -10 -10 -11 -11 -11 -11 -11 -11 -11 -11 -11 -12 -12 -12 -12 -12 -12 -13 -14 -15 -14 -14 -15 -16 -16 -16 -15 -14 -14 -12 -12 -12 -12 -12 -11 -10 -10 -10
-10 -10 -10 -10 -10 -10 -10 -10 -10 -10 -11 -11 -11 -11 -11 -12 -12 -12 -12 -12 -12 -12 -12 -12 -13 -14 -14 -14 -14 -14 -14 -15 -14 -14 -14 -14 -13 -13 -13 -11 -11 -11 -11 -11 -10
-11 -11 -11 -11 -11 -10 -10 -10 -10 -10 -11 -11 -11 -11 -12 -12 -12 -13 -13 -13 -12 -13 -13 -13 -13 -14 -14 -14 -14 -14 -15 -16 -15 -15 -15 -15 -14 -13 -12 -12 -11 -11 -11 -11 -11
-11 -11 -11 -11 -11 -11 -11 -11 -11 -11 -11 -11 -11 -12 -12 -13 -13 -13 -13 -13 -14 -13 -13 -13 -13 -14 -14 -15 -15 -16 -16 -16 -16 -15 -15 -15 -15 -14 -14 -12 -11 -10 -10 -11 -11
-11 -11 -11 -11 -11 -11 -11 -11 -11 -11 -11 -11 -12 -12 -12 -12 -13 -13 -14 -14 -14 -14 -13 -13 -13 -14 -15 -14 -16 -16 -16 -15 -15 -16 -16 -16 -16 -16 -13 -13 -13 -12 -12 -11 -11
-12 -12 -12 -12 -12 -12 -12 -12 -12 -11 -11 -11 -12 -12 -12 -12 -13 -13 -14 -14 -14 -15 -14 -13 -14 -15 -15 -15 -15 -16 -15 -15 -15 -15 -15 -16 -15 -14 -14 -13 -13 -12 -12 -12 -12
-12 -12 -12 -12 -13 -13 -12 -12 -12 -12 -12 -12 -12 -13 -13 -13 -13 -13 -14 -14 -15 -15 -15 -14 -14 -15 -16 -16 -16 -15 -15 -15 -15 -15 -15 -15 -13 -13 -13 -13 -14 -13 -12 -11 -11
-13 -13 -12 -13 -13 -13 -13 -13 -12 -12 -13 -12 -13 -13 -13 -13 -14 -14 -15 -14 -15 -15 -15 -16 -15 -16 -16 -16 -16 -16 -16 -16 -15 -14 -14 -14 -14 -13 -14 -14 -14 -15 -14 -12 -11
-13 -13 -13 -13 -13 -13 -13 -13 -13 -13 -14 -14 -13 -14 -14 -14 -14 -14 -15 -15 -15 -15 -15 -16 -16 -16 -16 -16 -17 -17 -16 -16 -15 -15 -14 -15 -15 -14 -14 -14 -14 -14 -14 -14 -13
-13 -13 -13 -13 -14 -14 -14 -13 -14 -14 -14 -15 -14 -13 -13 -13 -15 -14 -14 -15 -15 -15 -15 -16 -16 -16 -16 -16 -16 -16 -16 -15 -16 -15 -14 -14 -14 -13 -14 -14 -14 -14 -14 -14 -15
-14 -14 -14 -14 -14 -14 -14 -14 -14 -14 -14 -14 -15 -15 -16 -16 -16 -16 -16 -16 -15 -15 -16 -16 -16 -16 -16 -16 -16 -16 -16 -15 -15 -15 -14 -14 -14 -14 -14 -15 -15 -15 -15 -14 -14
-15 -15 -14 -15 -14 -15 -14 -14 -14 -15 -15 -15 -15 -15 -16 -16 -16 -16 -16 -16 -17 -17 -16 -16 -16 -16 -16 -16 -16 -16 -16 -16 -15 -15 -15 -15 -15 -16 -15 -14 -15 -15 -13 -13 -13
-15 -15 -15 -15 -15 -15 -15 -15 -15 -15 -15 -15 -15 -15 -15 -15 -16 -16 -16 -16 -16 -17 -16 -16 -15 -16 -16 -15 -16 -16 -16 -16 -16 -16 -16 -15 -16 -16 -16 -16 -15 -14 -14 -14 -14
-15 -15 -16 -15 -15 -15 -15 -15 -15 -16 -15 -16 -15 -15 -15 -15 -15 -15 -15 -15 -15 -15 -16 -16 -15 -16 -15 -16 -16 -16 -16 -16 -16 -16 -16 -16 -16 -15 -15 -15 -15 -15 -15 -14 -13
-16 -15 -16 -16 -16 -15 -15 -16 -15 -16 -16 -15 -15 -15 -15 -15 -15 -15 -15 -15 -15 -15 -14 -14 -16 -16 -16 -16 -16 -16 -16 -16 -16 -16 -16 -16 -14 -16 -17 -17 -16 -15 -14 -13 -13
-16 -16 -16 -16 -16 -16 -16 -16 -16 -16 -16 -16 -16 -16 -16 -15 -15 -16 -15 -15 -15 -15 -15 -14 -16 -16 -17 -17 -16 -16 -16 -17 -17 -17 -17 -16 -15 -16 -16 -16 -15 -13 -12 -12 -14
-17 -17 -16 -17 -17 -17 -16 -17 -16 -16 -16 -16 -16 -16 -16 -16 -16 -15 -16 -15 -15 -15 -15 -15 -16 -17 -17 -17 -17 -16 -17 -17 -17 -17 -16 -16 -16 -16 -16 -15 -13 -12 -14 -15 -14
-17 -17 -17 -18 -18 -17 -17 -17 -17 -17 -17 -17 -17 -17 -16 -16 -16 -16 -16 -15 -16 -15 -15 -16 -17 -17 -17 -17 -17 -17 -17 -17 -17 -17 -17 -17 -17 -16 -14 -13 -13 -15 -15 -14 -13
-17 -18 -18 -18 -18 -18 -17 -16 -17 -17 -17 -17 -17 -17 -17 -16 -16 -16 -16 -16 -16 -17 -17 -17 -18 -18 -17 -17 -17 -17 -17 -17 -17 -17 -17 -17 -16 -14 -13 -15 -15 -15 -13 -13 -13
-18 -18 -18 -18 -19 -19 -18 -17 -17 -17 -17 -17 -17 -17 -17 -17 -16 -16 -16 -16 -16 -17 -18 -18 -19 -18 -18 -17 -17 -17 -17 -17 -18 -16 -16 -15 -15 -15 -16 -14 -14 -15 -14 -14 -13

GFSSW_500_temp_093.txt.gz
Temp
-9 -9 -9 -9 -10 -9 -9 -10 -10 -10 -10 -10 -10 -10 -9 -9 -9 -9 -9 -9 -9 -9 -9 -9 -8 -8 -8 -8 -8 -7 -7 -7 -7 -7 -6 -6 -7 -8 -9 -10 -8 -7 -9 -9 -8
-8 -9 -10 -10 -9 -9 -9 -10 -10 -11 -11 -10 -10 -10 -10 -9 -9 -9 -9 -9 -9 -9 -9 -9 -9 -9 -9 -8 -8 -8 -7 -8 -7 -7 -6 -5 -6 -9 -9 -9 -8 -9 -9 -10 -9
-8 -9 -9 -9 -9 -9 -9 -10 -10 -10 -11 -11 -11 -10 -10 -10 -10 -10 -9 -9 -10 -9 -10 -9 -9 -9 -9 -9 -8 -8 -8 -7 -7 -6 -5 -5 -6 -9 -9 -8 -9 -10 -9 -10 -11
-8 -9 -9 -10 -10 -10 -10 -10 -10 -10 -11 -11 -11 -11 -10 -10 -10 -10 -10 -10 -10 -10 -10 -10 -10 -9 -9 -9 -8 -8 -8 -8 -8 -7 -6 -6 -7 -10 -10 -9 -11 -11 -10 -11 -11
-9 -9 -10 -10 -10 -10 -10 -10 -10 -10 -10 -11 -11 -11 -11 -11 -10 -10 -10 -10 -10 -10 -10 -10 -10 -10 -10 -9 -9 -9 -9 -9 -8 -9 -8 -8 -10 -12 -11 -12 -13 -12 -11 -10 -11
-9 -9 -10 -10 -10 -10 -10 -10 -10 -10 -10 -10 -10 -11 -11 -11 -10 -11 -11 -11 -11 -11 -11 -11 -10 -10 -10 -10 -10 -10 -11 -11 -11 -12 -12 -12 -13 -14 -14 -15 -14 -13 -12 -11 -11
-9 -10 -10 -10 -10 -10 -10 -10 -11 -10 -10 -10 -11 -11 -11 -11 -11 -11 -11 -11 -11 -11 -11 -11 -11 -11 -10 -11 -10 -11 -11 -13 -13 -14 -15 -14 -14 -15 -15 -15 -15 -14 -13 -12 -11
-10 -10 -10 -11 -11 -10 -10 -10 -10 -11 -11 -11 -11 -11 -12 -11 -12 -12 -11 -11 -11 -12 -12 -11 -11 -11 -11 -11 -11 -11 -13 -14 -13 -14 -15 -16 -14 -15 -16 -15 -14 -14 -13 -13 -13
-9 -10 -10 -11 -11 -11 -11 -11 -11 -11 -11 -11 -11 -11 -11 -12 -12 -11 -12 -12 -12 -12 -12 -12 -12 -12 -11 -11 -11 -12 -14 -14 -14 -14 -15 -16 -15 -15 -15 -15 -15 -15 -13 -13 -12
-10 -10 -10 -11 -11 -11 -11 -11 -11 -11 -11 -11 -11 -11 -11 -11 -12 -12 -12 -12 -13 -13 -13 -12 -12 -12 -12 -12 -13 -14 -15 -14 -14 -14 -14 -14 -14 -14 -15 -15 -15 -14 -13 -13 -12
-9 -10 -11 -11 -11 -12 -12 -12 -12 -12 -12 -12 -12 -11 -12 -12 -12 -13 -13 -13 -13 -13 -13 -13 -13 -13 -13 -13 -14 -14 -14 -15 -14 -14 -14 -14 -13 -13 -15 -15 -14 -14 -13 -12 -12
-10 -10 -11 -12 -12 -12 -12 -12 -12 -12 -12 -12 -12 -12 -12 -12 -13 -13 -13 -13 -13 -14 -14 -14 -14 -14 -14 -13 -13 -14 -14 -14 -14 -15 -14 -14 -14 -14 -14 -15 -15 -14 -14 -14 -14
-10 -11 -11 -12 -12 -12 -12 -13 -13 -13 -12 -12 -12 -12 -12 -13 -13 -13 -13 -13 -14 -14 -15 -15 -14 -14 -14 -14 -14 -15 -14 -14 -15 -15 -15 -13 -13 -14 -14 -14 -14 -13 -13 -14 -14
-11 -11 -12 -12 -13 -13 -13 -13 -13 -13 -13 -13 -13 -13 -13 -14 -14 -14 -14 -14 -14 -15 -15 -16 -15 -14 -14 -14 -14 -14 -14 -15 -15 -15 -15 -15 -14 -14 -15 -14 -13 -14 -14 -14 -14
-11 -11 -12 -13 -13 -13 -13 -13 -13 -14 -13 -13 -13 -14 -14 -14 -14 -14 -14 -15 -15 -15 -15 -16 -15 -15 -15 -15 -14 -14 -15 -15 -15 -14 -15 -15 -15 -14 -15 -14 -14 -15 -15 -14 -15
-12 -12 -13 -13 -14 -14 -14 -14 -14 -14 -14 -14 -14 -14 -14 -14 -14 -15 -15 -15 -15 -15 -15 -16 -16 -16 -16 -15 -15 -15 -16 -15 -15 -14 -14 -15 -15 -15 -15 -15 -15 -15 -15 -15 -14
-12 -13 -14 -14 -14 -15 -15 -15 -15 -15 -14 -14 -14 -14 -15 -15 -15 -16 -16 -16 -16 -16 -16 -16 -17 -17 -17 -17 -16 -16 -16 -16 -16 -15 -14 -15 -15 -15 -15 -14 -15 -15 -14 -15 -14
-13 -14 -14 -15 -15 -15 -16 -15 -15 -15 -15 -15 -15 -15 -15 -14 -15 -16 -16 -16 -16 -17 -16 -16 -16 -17 -17 -17 -17 -16 -16 -16 -16 -15 -15 -15 -15 -15 -15 -15 -15 -14 -14 -15 -15
-14 -15 -15 -15 -15 -16 -16 -16 -16 -15 -15 -15 -15 -16 -15 -15 -15 -15 -15 -16 -16 -16 -16 -17 -17 -17 -17 -17 -17 -17 -17 -17 -16 -16 -16 -15 -15 -15 -15 -15 -15 -15 -14 -15 -15
-16 -16 -16 -16 -16 -16 -16 -16 -16 -16 -16 -16 -16 -16 -16 -16 -15 -15 -15 -15 -16 -16 -16 -16 -16 -17 -17 -17 -16 -16 -17 -17 -16 -17 -16 -16 -16 -15 -15 -15 -15 -15 -15 -15 -15
-16 -17 -17 -17 -16 -16 -16 -16 -16 -16 -16 -16 -16 -16 -16 -16 -16 -15 -16 -16 -16 -16 -16 -16 -15 -16 -17 -17 -17 -17 -16 -16 -17 -16 -16 -16 -16 -15 -15 -15 -15 -15 -14 -14 -14
-17 -18 -17 -17 -17 -17 -17 -17 -16 -17 -16 -16 -16 -17 -17 -17 -16 -16 -16 -16 -16 -16 -16 -16 -16 -16 -17 -17 -17 -16 -16 -16 -16 -16 -16 -16 -15 -15 -15 -16 -15 -15 -15 -15 -14
-17 -18 -18 -18 -18 -17 -17 -17 -17 -17 -17 -17 -17 -17 -17 -17 -16 -16 -16 -16 -16 -16 -16 -16 -16 -16 -16 -17 -17 -17 -17 -16 -16 -17 -16 -16 -16 -16 -16 -16 -16 -16 -16 -15 -14
-18 -19 -18 -18 -18 -18 -18 -18 -18 -18 -17 -18 -17 -18 -18 -17 -17 -16 -16 -16 -16 -16 -16 -16 -16 -16 -16 -17 -17 -17 -17 -16 -16 -16 -17 -16 -16 -16 -16 -16 -16 -16 -15 -15 -15
-19 -19 -19 -19 -19 -18 -18 -18 -18 -18 -18 -19 -19 -18 -17 -17 -17 -17 -17 -17 -17 -17 -16 -16 -16 -16 -16 -16 -16 -16 -17 -17 -16 -17 -16 -17 -17 -16 -16 -16 -16 -16 -17 -16 -15
-20 -20 -20 -20 -20 -19 -19 -19 -19 -19 -18 -18 -19 -18 -18 -18 -17 -17 -17 -17 -17 -17 -16 -16 -16 -16 -16 -16 -16 -16 -17 -17 -17 -17 -17 -17 -16 -16 -17 -17 -16 -16 -16 -15 -14
-21 -20 -20 -20 -20 -20 -20 -19 -19 -19 -19 -19 -19 -19 -18 -18 -18 -18 -17 -17 -17 -17 -17 -16 -16 -16 -17 -17 -16 -15 -17 -17 -18 -18 -18 -17 -17 -17 -17 -17 -16 -16 -15 -14 -14

GFSSW_500_temp_096.txt.gz
Temp
-7 -8 -8 -8 -9 -9 -9 -9 -9 -9 -9 -10 -10 -10 -10 -10 -10 -9 -9 -8 -9 -9 -9 -9 -9 -9 -9 -9 -8 -8 -7 -8 -9 -8 -7 -7 -7 -7 -7 -7 -8 -7 -8 -8 -9
-8 -8 -8 -8 -8 -9 -9 -9 -9 -10 -10 -10 -10 -11 -11 -10 -10 -10 -9 -9 -9 -9 -9 -9 -9 -9 -9 -8 -8 -8 -8 -9 -8 -8 -7 -7 -6 -7 -6 -6 -7 -8 -7 -6 -9
-8 -8 -8 -8 -9 -9 -9 -9 -9 -9 -10 -10 -10 -11 -11 -11 -10 -10 -9 -9 -9 -9 -9 -9 -9 -9 -9 -9 -8 -8 -9 -8 -8 -8 -7 -7 -6 -6 -6 -6 -6 -7 -9 -8 -8
-8 -8 -8 -9 -9 -9 -10 -10 -10 -10 -10 -10 -10 -11 -11 -11 -11 -10 -9 -9 -10 -10 -10 -10 -10 -10 -9 -9 -9 -9 -9 -9 -9 -8 -8 -7 -6 -6 -6 -5 -6 -7 -8 -10 -8
-8 -8 -9 -9 -9 -9 -9 -10 -10 -10 -10 -10 -10 -10 -11 -11 -11 -11 -11 -10 -10 -10 -10 -10 -10 -10 -10 -9 -9 -10 -9 -10 -9 -8 -8 -7 -7 -6 -5 -5 -7 -7 -8 -12 -9
-7 -7 -9 -9 -9 -10 -10 -10 -10 -10 -10 -10 -10 -10 -11 -11 -11 -11 -11 -11 -10 -11 -11 -11 -10 -10 -10 -10 -10 -10 -10 -9 -9 -9 -8 -7 -7 -6 -7 -8 -8 -9 -9 -13 -11
-8 -8 -9 -9 -10 -10 -10 -10 -10 -10 -11 -10 -10 -10 -10 -10 -12 -11 -11 -12 -11 -11 -11 -11 -10 -10 -10 -10 -10 -10 -10 -10 -10 -10 -9 -8 -9 -8 -9 -10 -10 -10 -13 -14 -13
-8 -8 -9 -10 -10 -10 -10 -11 -11 -11 -11 -11 -11 -10 -11 -11 -12 -12 -11 -11 -11 -12 -11 -11 -11 -11 -11 -11 -11 -10 -10 -11 -10 -10 -9 -8 -11 -11 -12 -12 -12 -13 -15 -15 -14
-8 -8 -9 -9 -10 -11 -11 -11 -11 -11 -11 -11 -11 -11 -11 -11 -11 -12 -12 -12 -12 -12 -12 -11 -11 -11 -11 -12 -11 -11 -11 -11 -11 -11 -10 -11 -12 -13 -13 -13 -14 -15 -15 -15 -15
-8 -9 -9 -9 -9 -11 -11 -11 -11 -12 -11 -12 -12 -12 -11 -11 -11 -12 -12 -12 -12 -12 -12 -12 -12 -12 -12 -12 -12 -12 -12 -11 -11 -12 -11 -12 -12 -13 -14 -14 -15 -15 -15 -15 -15
-9 -9 -9 -9 -10 -10 -11 -12 -12 -12 -12 -12 -12 -12 -12 -12 -12 -12 -12 -13 -13 -12 -12 -13 -13 -13 -13 -13 -13 -12 -12 -12 -12 -13 -12 -13 -13 -13 -13 -14 -15 -15 -15 -15 -15
-9 -10 -10 -10 -10 -11 -11 -12 -12 -12 -12 -12 -12 -12 -12 -12 -12 -12 -12 -13 -13 -14 -14 -14 -14 -14 -14 -14 -13 -13 -12 -13 -13 -13 -13 -13 -13 -13 -13 -13 -14 -15 -15 -15 -14
-10 -10 -11 -10 -11 -11 -12 -13 -13 -13 -13 -12 -12 -12 -12 -13 -13 -13 -13 -13 -14 -14 -14 -15 -15 -15 -15 -14 -14 -13 -13 -13 -13 -14 -13 -13 -13 -14 -14 -14 -15 -15 -15 -15 -15
-10 -10 -11 -11 -11 -12 -12 -13 -14 -13 -14 -13 -13 -13 -13 -13 -13 -13 -13 -14 -14 -14 -14 -14 -15 -15 -15 -15 -14 -14 -14 -14 -14 -14 -14 -14 -14 -14 -14 -14 -15 -14 -14 -15 -15
-11 -11 -12 -12 -13 -13 -13 -13 -14 -14 -14 -14 -13 -13 -14 -14 -14 -14 -14 -14 -14 -15 -14 -15 -15 -16 -15 -15 -15 -14 -14 -14 -14 -14 -14 -15 -15 -15 -15 -15 -15 -15 -15 -15 -15
-12 -12 -12 -13 -13 -14 -14 -15 -15 -15 -14 -14 -14 -14 -14 -14 -14 -14 -14 -14 -14 -15 -15 -15 -15 -16 -16 -16 -16 -15 -15 -15 -15 -15 -14 -15 -15 -14 -15 -15 -15 -15 -14 -14 -14
-13 -13 -13 -14 -14 -14 -15 -15 -15 -15 -15 -15 -15 -15 -15 -15 -15 -15 -15 -15 -16 -16 -16 -16 -16 -16 -17 -17 -17 -17 -16 -16 -16 -15 -15 -15 -15 -15 -14 -15 -15 -15 -15 -15 -15
-13 -14 -14 -14 -14 -15 -15 -15 -15 -15 -16 -16 -15 -16 -15 -16 -16 -16 -16 -16 -16 -16 -16 -16 -16 -16 -16 -17 -18 -18 -18 -17 -17 -16 -16 -16 -15 -15 -15 -15 -15 -14 -14 -15 -14
-14 -14 -14 -15 -15 -15 -16 -15 -16 -16 -16 -16 -16 -16 -16 -16 -16 -16 -16 -17 -17 -17 -16 -16 -16 -17 -17 -17 -17 -17 -17 -17 -17 -17 -16 -16 -16 -16 -15 -15 -15 -15 -15 -15 -15
-15 -16 -16 -16 -16 -16 -16 -16 -16 -16 -17 -16 -16 -16 -16 -16 -16 -16 -16 -16 -17 -16 -17 -17 -17 -17 -17 -17 -17 -17 -17 -17 -17 -17 -17 -16 -16 -16 -16 -15 -16 -15 -15 -15 -16
-16 -16 -17 -17 -16 -16 -16 -17 -17 -17 -17 -17 -17 -17 -17 -17 -17 -17 -16 -16 -16 -17 -17 -16 -16 -17 -17 -18 -18 -17 -17 -16 -17 -17 -16 -16 -16 -16 -16 -16 -16 -16 -16 -15 -15
-16 -16 -17 -17 -17 -17 -17 -17 -17 -17 -17 -17 -17 -17 -17 -17 -16 -16 -16 -16 -16 -16 -16 -17 -16 -16 -16 -17 -17 -16 -16 -17 -17 -17 -16 -16 -15 -16 -16 -16 -15 -16 -16 -15 -16
-17 -18 -18 -18 -18 -18 -18 -18 -18 -18 -18 -17 -17 -17 -18 -18 -17 -17 -17 -16 -16 -16 -16 -17 -16 -16 -16 -17 -17 -16 -16 -17 -17 -16 -16 -16 -16 -16 -16 -16 -16 -16 -16 -16 -16
-19 -20 -20 -20 -19 -19 -19 -19 -18 -18 -18 -18 -18 -18 -18 -18 -17 -18 -17 -17 -17 -17 -17 -17 -17 -16 -16 -16 -16 -16 -16 -16 -16 -15 -16 -16 -16 -16 -17 -17 -16 -16 -16 -16 -16
-22 -21 -21 -21 -20 -20 -20 -20 -19 -19 -18 -19 -18 -18 -18 -18 -18 -18 -18 -17 -17 -17 -17 -17 -16 -16 -16 -16 -16 -16 -16 -15 -15 -16 -15 -16 -17 -17 -17 -17 -16 -16 -16 -17 -16
-22 -22 -22 -22 -21 -21 -20 -20 -20 -20 -19 -19 -19 -18 -18 -19 -18 -19 -18 -18 -17 -17 -17 -17 -17 -16 -16 -16 -16 -16 -16 -16 -16 -15 -16 -16 -16 -17 -17 -16 -16 -16 -16 -17 -16
-22 -22 -22 -22 -22 -21 -21 -21 -21 -21 -20 -19 -19 -19 -18 -18 -19 -19 -18 -18 -18 -18 -17 -17 -17 -17 -16 -17 -16 -15 -16 -17 -17 -17 -16 -16 -17 -18 -17 -17 -17 -16 -16 -16 -16

GFSSW_500_temp_102.txt.gz
Temp
-7 -7 -7 -7 -7 -7 -7 -7 -8 -8 -8 -8 -8 -8 -8 -9 -9 -9 -9 -9 -9 -9 -9 -9 -9 -9 -9 -9 -9 -9 -9 -9 -9 -9 -9 -8 -8 -7 -7 -7 -7 -7 -8 -8 -7
-7 -7 -7 -7 -7 -7 -7 -7 -8 -8 -8 -8 -9 -9 -9 -9 -9 -10 -10 -10 -10 -10 -9 -9 -9 -9 -9 -9 -9 -9 -9 -9 -9 -9 -9 -8 -8 -8 -7 -8 -8 -8 -8 -8 -8
-7 -7 -7 -7 -7 -7 -7 -7 -8 -8 -8 -9 -9 -9 -9 -9 -9 -9 -10 -11 -11 -10 -10 -10 -10 -9 -9 -9 -9 -9 -9 -9 -9 -9 -9 -8 -8 -8 -8 -8 -8 -8 -8 -7 -7
-7 -7 -7 -7 -7 -7 -8 -8 -8 -8 -8 -9 -9 -9 -9 -9 -9 -9 -10 -11 -11 -11 -11 -10 -10 -10 -10 -10 -9 -9 -9 -9 -9 -9 -9 -9 -8 -8 -7 -8 -8 -8 -8 -7 -7
-7 -7 -7 -8 -8 -8 -8 -8 -8 -8 -9 -9 -9 -10 -10 -10 -10 -10 -10 -11 -11 -11 -11 -11 -11 -11 -10 -10 -10 -9 -10 -9 -9 -9 -9 -9 -9 -8 -8 -8 -8 -8 -8 -7 -7
-8 -8 -8 -8 -8 -8 -8 -8 -9 -9 -9 -9 -9 -10 -10 -10 -10 -10 -10 -10 -11 -11 -11 -11 -11 -11 -11 -10 -10 -10 -10 -10 -10 -10 -9 -9 -8 -8 -8 -8 -8 -7 -7 -7 -7
-8 -8 -8 -8 -8 -8 -9 -9 -9 -9 -9 -9 -10 -10 -10 -10 -10 -10 -10 -10 -11 -11 -11 -11 -11 -11 -11 -11 -11 -10 -10 -10 -10 -10 -9 -9 -9 -9 -8 -8 -7 -7 -7 -7 -7
-8 -8 -8 -8 -8 -9 -9 -9 -9 -9 -10 -10 -10 -10 -10 -11 -11 -11 -11 -11 -11 -11 -11 -12 -11 -12 -12 -11 -12 -12 -11 -11 -11 -10 -9 -9 -10 -9 -9 -8 -8 -7 -8 -7 -7
-8 -9 -9 -8 -9 -9 -9 -10 -9 -10 -10 -10 -10 -11 -11 -11 -11 -11 -11 -11 -11 -11 -12 -12 -12 -12 -12 -12 -12 -12 -12 -12 -11 -10 -10 -10 -10 -10 -9 -8 -9 -9 -8 -8 -7
-9 -9 -9 -9 -9 -9 -9 -10 -10 -10 -10 -10 -10 -11 -11 -11 -12 -11 -11 -12 -12 -12 -12 -12 -12 -13 -13 -13 -13 -13 -13 -12 -12 -11 -11 -10 -11 -10 -9 -10 -10 -9 -9 -9 -9
-9 -9 -9 -9 -9 -9 -10 -10 -10 -10 -10 -10 -10 -11 -11 -11 -12 -12 -12 -12 -12 -12 -12 -13 -13 -13 -14 -15 -15 -14 -13 -13 -12 -12 -11 -11 -11 -11 -10 -11 -10 -10 -11 -11 -11
-9 -9 -9 -10 -10 -10 -10 -11 -11 -11 -11 -11 -10 -12 -12 -12 -12 -12 -12 -12 -12 -13 -13 -13 -13 -14 -14 -15 -15 -14 -13 -13 -13 -13 -12 -12 -12 -12 -12 -12 -11 -11 -11 -12 -12
-9 -10 -10 -11 -10 -11 -11 -11 -11 -11 -11 -11 -11 -11 -12 -12 -12 -12 -12 -13 -13 -13 -13 -13 -14 -14 -14 -14 -15 -15 -14 -14 -14 -13 -13 -12 -12 -13 -12 -12 -12 -12 -12 -12 -12
-9 -10 -11 -12 -12 -12 -12 -12 -12 -12 -11 -11 -12 -12 -12 -13 -13 -13 -13 -13 -13 -13 -14 -14 -14 -14 -14 -14 -14 -14 -15 -15 -14 -14 -14 -14 -14 -14 -13 -13 -12 -13 -12 -12 -12
-10 -11 -12 -12 -13 -13 -12 -13 -13 -13 -13 -12 -12 -13 -13 -14 -13 -13 -14 -13 -14 -14 -14 -14 -15 -14 -14 -14 -15 -15 -15 -15 -16 -15 -15 -15 -14 -15 -13 -13 -13 -14 -13 -13 -14
-11 -12 -13 -13 -14 -13 -13 -13 -13 -13 -12 -13 -13 -14 -14 -14 -14 -14 -14 -14 -15 -15 -14 -15 -15 -14 -14 -15 -15 -15 -16 -16 -16 -17 -16 -15 -15 -15 -15 -15 -14 -14 -15 -15 -14
-12 -13 -13 -13 -14 -14 -15 -15 -14 -13 -13 -13 -15 -15 -15 -15 -15 -15 -15 -15 -15 -15 -15 -15 -15 -15 -15 -15 -15 -15 -15 -16 -16 -17 -16 -16 -16 -15 -16 -15 -15 -15 -15 -15 -15
-13 -13 -14 -15 -15 -16 -16 -16 -15 -14 -14 -16 -17 -17 -16 -16 -16 -16 -16 -15 -15 -15 -16 -15 -15 -15 -15 -16 -16 -15 -16 -16 -16 -16 -16 -16 -16 -16 -15 -15 -15 -15 -15 -15 -15
-13 -13 -15 -17 -18 -17 -18 -18 -16 -17 -17 -19 -19 -18 -17 -17 -17 -17 -16 -16 -16 -16 -17 -16 -17 -15 -16 -16 -16 -17 -16 -17 -16 -16 -16 -15 -16 -16 -16 -15 -15 -15 -15 -15 -15
-13 -15 -18 -20 -20 -18 -18 -16 -18 -20 -19 -20 -20 -19 -19 -19 -18 -18 -17 -17 -17 -16 -17 -17 -18 -17 -17 -17 -16 -16 -17 -17 -17 -17 -16 -16 -16 -17 -16 -15 -16 -16 -16 -15 -15
-16 -19 -19 -20 -21 -20 -19 -19 -20 -21 -21 -21 -20 -20 -19 -18 -18 -17 -17 -16 -17 -17 -17 -17 -17 -17 -17 -16 -17 -16 -17 -17 -17 -16 -16 -16 -16 -16 -16 -16 -16 -16 -16 -16 -16
-18 -20 -21 -21 -22 -22 -20 -20 -20 -20 -22 -21 -21 -20 -19 -19 -19 -18 -17 -17 -16 -16 -17 -17 -17 -17 -17 -17 -17 -17 -18 -18 -16 -17 -17 -17 -17 -16 -16 -16 -16 -16 -16 -16 -16
-20 -21 -22 -22 -22 -22 -21 -20 -20 -20 -21 -21 -21 -21 -20 -19 -18 -18 -17 -17 -17 -16 -17 -17 -17 -17 -17 -16 -17 -17 -17 -17 -16 -16 -16 -17 -17 -16 -16 -17 -17 -16 -16 -16 -16
-21 -22 -22 -23 -22 -22 -22 -21 -20 -20 -20 -21 -19 -19 -20 -19 -19 -18 -17 -17 -17 -16 -17 -17 -17 -17 -16 -17 -17 -17 -17 -17 -17 -16 -16 -17 -18 -17 -16 -16 -16 -16 -16 -16 -16
-22 -22 -23 -23 -23 -22 -22 -21 -21 -20 -19 -19 -19 -18 -18 -18 -18 -18 -18 -17 -17 -17 -17 -17 -17 -17 -17 -17 -17 -17 -17 -16 -16 -16 -16 -18 -17 -17 -16 -16 -16 -16 -17 -17 -16
-22 -23 -23 -23 -23 -22 -22 -22 -21 -20 -20 -20 -19 -18 -18 -18 -18 -18 -19 -18 -18 -18 -17 -17 -16 -17 -17 -17 -17 -17 -17 -16 -16 -16 -16 -16 -17 -16 -16 -16 -15 -16 -16 -16 -16
-23 -23 -23 -23 -23 -23 -22 -22 -21 -21 -20 -19 -19 -19 -18 -18 -18 -18 -18 -18 -17 -18 -17 -17 -17 -18 -17 -16 -17 -16 -16 -16 -16 -16 -16 -16 -18 -17 -16 -16 -16 -16 -16 -16 -16

GFSSW_500_temp_105.txt.gz
Temp
-6 -6 -7 -7 -7 -7 -7 -7 -7 -7 -7 -7 -8 -8 -8 -8 -8 -8 -8 -8 -8 -9 -9 -9 -9 -9 -9 -9 -9 -9 -9 -8 -9 -9 -9 -9 -7 -8 -7 -7 -6 -7 -7 -7 -6
-6 -7 -7 -7 -7 -7 -7 -7 -7 -7 -7 -7 -8 -8 -8 -8 -8 -9 -8 -9 -9 -9 -9 -10 -10 -9 -9 -9 -9 -9 -9 -9 -9 -10 -9 -9 -8 -8 -8 -8 -7 -7 -8 -8 -7
-7 -7 -7 -7 -7 -7 -7 -7 -7 -8 -8 -8 -8 -8 -8 -9 -9 -9 -9 -9 -9 -9 -10 -10 -10 -10 -9 -9 -9 -9 -9 -10 -10 -9 -9 -9 -8 -8 -8 -8 -8 -7 -8 -8 -8
-7 -7 -7 -7 -7 -8 -8 -8 -8 -8 -8 -8 -8 -8 -8 -8 -8 -9 -9 -9 -9 -9 -10 -10 -10 -10 -10 -10 -10 -10 -9 -10 -10 -9 -9 -9 -9 -8 -8 -8 -8 -8 -8 -8 -8
-7 -7 -7 -7 -7 -8 -8 -8 -8 -8 -8 -8 -9 -9 -9 -9 -9 -9 -9 -9 -9 -10 -10 -11 -11 -11 -11 -11 -10 -10 -10 -10 -10 -9 -10 -9 -9 -9 -8 -8 -8 -8 -8 -8 -7
-7 -8 -8 -8 -7 -7 -8 -8 -8 -8 -8 -8 -8 -9 -9 -9 -9 -9 -9 -10 -10 -10 -10 -11 -11 -11 -11 -11 -10 -11 -11 -10 -10 -10 -10 -9 -9 -8 -8 -8 -8 -8 -8 -8 -7
-8 -8 -8 -8 -8 -8 -7 -7 -8 -8 -8 -9 -9 -8 -8 -8 -9 -10 -10 -10 -10 -10 -10 -11 -11 -11 -11 -11 -11 -11 -11 -11 -10 -10 -10 -9 -9 -9 -9 -8 -8 -8 -8 -8 -8
-7 -7 -7 -7 -7 -8 -8 -8 -8 -8 -8 -9 -9 -9 -9 -9 -9 -10 -10 -10 -10 -11 -11 -11 -11 -11 -12 -12 -11 -12 -12 -12 -12 -11 -10 -10 -10 -10 -9 -9 -9 -8 -8 -8 -8
-8 -8 -8 -7 -7 -8 -8 -8 -9 -9 -9 -9 -9 -9 -9 -10 -9 -10 -10 -10 -10 -11 -11 -11 -12 -12 -12 -12 -12 -12 -12 -12 -12 -13 -11 -10 -11 -10 -9 -9 -9 -8 -8 -8 -8
-8 -8 -8 -7 -7 -7 -8 -8 -9 -9 -9 -10 -10 -10 -9 -9 -9 -10 -11 -11 -11 -11 -12 -12 -12 -12 -12 -12 -12 -12 -13 -13 -14 -15 -12 -11 -11 -11 -10 -10 -10 -9 -9 -9 -8
-7 -7 -8 -8 -8 -8 -9 -8 -9 -9 -10 -10 -10 -10 -10 -10 -10 -10 -11 -11 -11 -11 -12 -12 -12 -12 -12 -13 -13 -14 -15 -15 -15 -15 -15 -13 -12 -11 -13 -11 -10 -10 -10 -10 -9
-8 -7 -8 -8 -9 -9 -9 -9 -10 -9 -8 -10 -10 -10 -11 -10 -10 -11 -12 -12 -12 -12 -13 -12 -12 -13 -13 -13 -14 -14 -15 -15 -16 -15 -16 -13 -13 -12 -12 -12 -11 -10 -11 -10 -11
-7 -8 -8 -9 -8 -9 -10 -10 -11 -11 -10 -10 -11 -11 -12 -11 -11 -11 -12 -12 -12 -13 -13 -13 -13 -14 -13 -13 -13 -14 -15 -15 -15 -16 -15 -15 -15 -13 -13 -12 -11 -12 -12 -11 -11
-8 -8 -8 -9 -11 -12 -11 -12 -12 -12 -11 -10 -11 -11 -11 -12 -12 -12 -13 -13 -12 -13 -13 -13 -14 -14 -14 -13 -14 -14 -15 -16 -16 -16 -16 -15 -15 -14 -13 -13 -12 -12 -12 -12 -12
-9 -10 -10 -11 -12 -13 -12 -12 -13 -13 -13 -13 -11 -11 -12 -12 -13 -13 -13 -13 -13 -13 -14 -14 -14 -14 -14 -14 -14 -14 -16 -15 -16 -16 -16 -15 -15 -14 -15 -14 -13 -12 -12 -12 -12
-9 -10 -11 -12 -13 -13 -13 -13 -14 -14 -12 -15 -13 -13 -13 -14 -14 -14 -13 -14 -14 -14 -14 -15 -16 -15 -14 -15 -14 -15 -15 -15 -16 -16 -16 -15 -15 -14 -14 -14 -15 -13 -13 -13 -13
-10 -11 -13 -13 -13 -13 -15 -16 -16 -16 -17 -17 -16 -15 -16 -15 -15 -15 -14 -14 -14 -14 -14 -15 -16 -16 -15 -15 -15 -15 -15 -16 -16 -16 -15 -16 -15 -14 -14 -14 -14 -14 -14 -14 -14
-11 -13 -13 -13 -13 -16 -18 -19 -18 -17 -17 -17 -16 -15 -17 -17 -17 -18 -15 -15 -15 -15 -17 -17 -17 -17 -14 -15 -16 -16 -16 -16 -15 -15 -15 -15 -15 -15 -14 -14 -14 -14 -15 -14 -14
-13 -13 -13 -14 -17 -19 -20 -18 -18 -18 -18 -18 -16 -15 -16 -17 -17 -17 -17 -16 -15 -16 -16 -16 -17 -16 -17 -16 -17 -17 -17 -16 -15 -15 -14 -15 -14 -14 -14 -14 -15 -14 -15 -15 -14
-14 -14 -14 -18 -18 -18 -20 -19 -20 -20 -19 -20 -18 -17 -16 -16 -16 -17 -18 -18 -18 -16 -16 -16 -16 -16 -17 -16 -16 -16 -16 -16 -15 -15 -15 -14 -14 -15 -15 -15 -15 -16 -15 -15 -15
-15 -17 -17 -18 -19 -20 -21 -21 -21 -21 -21 -21 -19 -18 -17 -17 -16 -15 -16 -16 -17 -17 -16 -16 -17 -16 -17 -17 -17 -17 -17 -15 -15 -16 -15 -15 -14 -14 -14 -15 -15 -16 -16 -15 -15
-17 -19 -18 -19 -20 -21 -21 -22 -21 -21 -20 -20 -19 -18 -17 -16 -17 -16 -15 -15 -16 -17 -17 -17 -17 -16 -17 -17 -16 -16 -16 -16 -16 -16 -15 -15 -15 -15 -15 -15 -15 -15 -15 -15 -15
-19 -19 -20 -21 -21 -22 -21 -21 -21 -21 -20 -21 -20 -19 -19 -18 -18 -18 -14 -16 -15 -16 -16 -18 -16 -16 -15 -16 -16 -16 -16 -16 -16 -16 -16 -16 -16 -15 -15 -15 -15 -16 -15 -15 -15
-19 -20 -21 -21 -21 -22 -22 -22 -21 -21 -20 -20 -19 -19 -18 -18 -18 -18 -17 -17 -16 -16 -16 -17 -16 -16 -15 -15 -16 -16 -16 -17 -17 -16 -16 -16 -17 -16 -16 -15 -16 -16 -16 -16 -15
-20 -21 -22 -22 -22 -22 -22 -22 -21 -21 -20 -20 -19 -19 -19 -18 -18 -18 -17 -17 -17 -17 -16 -16 -16 -16 -15 -15 -16 -17 -17 -17 -17 -16 -16 -16 -17 -15 -15 -15 -15 -16 -16 -16 -15
-21 -22 -22 -23 -23 -22 -22 -22 -21 -21 -20 -20 -19 -19 -19 -18 -18 -17 -17 -17 -17 -17 -17 -16 -16 -17 -16 -16 -15 -16 -17 -16 -17 -17 -18 -18 -17 -17 -16 -16 -16 -15 -15 -16 -15
-23 -23 -23 -23 -23 -22 -22 -22 -21 -21 -20 -20 -19 -19 -19 -18 -18 -18 -17 -17 -17 -17 -17 -16 -16 -16 -16 -17 -17 -16 -17 -17 -17 -17 -18 -18 -17 -18 -17 -16 -16 -15 -15 -15 -15

GFSSW_500_temp_108.txt.gz
Temp
-6 -6 -6 -6 -6 -6 -7 -7 -7 -7 -7 -7 -7 -7 -7 -7 -7 -7 -8 -7 -8 -8 -8 -8 -8 -9 -9 -8 -9 -9 -9 -8 -8 -9 -9 -10 -10 -10 -9 -6 -7 -7 -7 -7 -7
-6 -6 -6 -6 -7 -7 -7 -7 -7 -7 -7 -7 -7 -8 -8 -8 -7 -7 -7 -8 -7 -8 -8 -8 -8 -9 -9 -9 -9 -9 -9 -8 -9 -9 -10 -11 -11 -10 -9 -7 -8 -7 -7 -7 -7
-7 -7 -7 -7 -7 -7 -7 -7 -7 -7 -7 -7 -8 -7 -7 -8 -7 -8 -7 -8 -8 -8 -8 -8 -8 -9 -9 -9 -9 -10 -9 -9 -10 -10 -11 -10 -10 -8 -8 -7 -8 -8 -8 -8 -7
-7 -7 -7 -7 -7 -7 -7 -7 -7 -7 -7 -7 -7 -7 -7 -8 -7 -8 -8 -8 -8 -8 -8 -9 -9 -9 -10 -10 -10 -10 -10 -9 -10 -10 -10 -9 -9 -9 -9 -9 -9 -8 -8 -8 -8
-6 -6 -6 -7 -7 -7 -7 -7 -7 -7 -7 -7 -7 -7 -7 -7 -7 -8 -8 -8 -8 -8 -9 -9 -9 -9 -9 -10 -10 -10 -10 -10 -10 -10 -10 -9 -9 -9 -9 -9 -8 -9 -8 -8 -8
-6 -6 -6 -6 -6 -6 -7 -7 -7 -7 -7 -7 -7 -7 -8 -8 -8 -7 -8 -8 -8 -9 -9 -9 -10 -10 -11 -11 -11 -11 -10 -10 -10 -10 -10 -9 -9 -9 -9 -9 -9 -9 -9 -8 -8
-6 -7 -7 -7 -6 -7 -7 -6 -7 -7 -7 -8 -8 -8 -7 -8 -8 -8 -8 -8 -9 -9 -9 -10 -10 -10 -11 -11 -11 -11 -11 -11 -10 -10 -10 -10 -10 -9 -9 -9 -9 -9 -9 -9 -8
-7 -7 -7 -7 -7 -6 -6 -6 -7 -7 -7 -7 -7 -8 -8 -9 -9 -9 -8 -8 -9 -9 -9 -10 -10 -10 -10 -11 -11 -12 -11 -11 -10 -11 -11 -11 -9 -9 -10 -10 -9 -9 -9 -9 -9
-7 -7 -7 -7 -7 -7 -7 -7 -7 -7 -7 -7 -7 -8 -8 -9 -9 -9 -9 -9 -9 -9 -10 -10 -11 -11 -11 -11 -12 -12 -11 -11 -11 -12 -11 -11 -10 -11 -11 -10 -9 -9 -9 -9 -9
-7 -7 -7 -7 -7 -7 -7 -7 -8 -8 -8 -8 -7 -8 -9 -9 -9 -9 -9 -9 -9 -10 -10 -10 -11 -11 -12 -12 -11 -11 -12 -12 -12 -12 -14 -13 -11 -12 -13 -11 -10 -10 -9 -9 -9
-7 -7 -7 -7 -7 -7 -7 -7 -7 -7 -7 -8 -9 -9 -9 -9 -10 -10 -10 -10 -10 -10 -10 -11 -11 -11 -12 -12 -12 -13 -14 -12 -13 -14 -15 -14 -14 -13 -13 -13 -11 -10 -10 -10 -9
-7 -7 -7 -7 -7 -8 -8 -8 -8 -9 -7 -7 -9 -9 -10 -10 -10 -10 -11 -10 -11 -11 -12 -11 -10 -12 -12 -13 -13 -13 -14 -15 -14 -14 -14 -15 -15 -14 -13 -14 -14 -11 -11 -11 -11
-7 -7 -7 -8 -8 -8 -9 -8 -9 -10 -8 -7 -8 -10 -11 -12 -10 -10 -11 -12 -11 -12 -11 -11 -12 -13 -13 -13 -13 -13 -13 -15 -15 -15 -15 -15 -15 -14 -13 -15 -14 -14 -12 -11 -11
-8 -8 -8 -8 -9 -9 -10 -9 -10 -11 -10 -8 -10 -10 -11 -12 -11 -12 -11 -12 -12 -12 -12 -12 -13 -13 -13 -13 -13 -14 -14 -15 -15 -15 -15 -15 -14 -14 -14 -13 -15 -15 -12 -12 -12
-8 -9 -9 -9 -9 -11 -11 -11 -12 -12 -13 -12 -14 -13 -12 -13 -13 -12 -14 -13 -13 -13 -13 -12 -13 -13 -13 -13 -14 -14 -16 -16 -16 -16 -15 -14 -16 -15 -15 -14 -14 -15 -12 -13 -13
-9 -10 -10 -11 -11 -12 -13 -13 -13 -14 -13 -13 -17 -16 -15 -16 -14 -15 -15 -13 -14 -15 -14 -14 -14 -14 -14 -16 -15 -16 -16 -16 -16 -16 -15 -14 -14 -15 -15 -14 -14 -14 -13 -14 -14
-10 -11 -11 -12 -13 -13 -13 -14 -15 -15 -16 -17 -17 -18 -16 -16 -16 -16 -15 -14 -14 -14 -15 -17 -15 -16 -16 -16 -16 -16 -16 -16 -16 -16 -15 -15 -15 -14 -13 -14 -14 -14 -13 -12 -13
-12 -13 -14 -14 -14 -14 -15 -16 -17 -17 -18 -18 -19 -17 -16 -15 -16 -16 -17 -15 -15 -15 -16 -16 -16 -16 -16 -16 -16 -16 -15 -15 -15 -16 -15 -15 -14 -13 -14 -14 -13 -13 -14 -13 -14
-14 -15 -15 -15 -15 -16 -18 -18 -18 -19 -20 -22 -21 -19 -17 -16 -15 -17 -16 -15 -15 -15 -15 -16 -16 -16 -16 -16 -16 -16 -16 -16 -15 -14 -14 -14 -15 -15 -15 -14 -14 -14 -13 -14 -14
-15 -16 -16 -16 -17 -18 -18 -18 -19 -21 -21 -22 -21 -20 -19 -18 -17 -16 -16 -14 -16 -16 -16 -16 -15 -15 -15 -16 -16 -16 -16 -16 -16 -15 -14 -14 -14 -14 -14 -14 -14 -14 -13 -14 -14
-17 -17 -17 -19 -19 -19 -19 -20 -20 -21 -21 -22 -21 -20 -21 -17 -17 -16 -16 -14 -16 -17 -17 -16 -15 -15 -15 -16 -15 -16 -15 -15 -15 -15 -15 -14 -14 -13 -14 -14 -14 -13 -14 -14 -14
-18 -19 -18 -20 -19 -21 -21 -21 -22 -21 -20 -21 -21 -21 -20 -19 -17 -17 -16 -15 -15 -16 -17 -16 -15 -16 -15 -16 -16 -16 -16 -15 -15 -14 -14 -14 -14 -14 -14 -14 -14 -14 -15 -14 -15
-19 -20 -20 -21 -21 -21 -21 -21 -21 -20 -21 -20 -21 -20 -21 -20 -19 -18 -16 -15 -15 -15 -15 -17 -16 -15 -15 -15 -16 -17 -16 -16 -15 -15 -14 -15 -14 -15 -15 -15 -14 -14 -14 -15 -16
-20 -21 -21 -21 -22 -22 -21 -21 -21 -21 -21 -20 -20 -20 -20 -19 -18 -17 -17 -16 -16 -15 -15 -16 -16 -15 -15 -15 -15 -16 -16 -16 -15 -15 -15 -15 -15 -15 -15 -15 -15 -14 -14 -15 -15
-22 -22 -23 -22 -22 -22 -22 -22 -21 -21 -20 -20 -20 -20 -19 -18 -18 -17 -16 -16 -16 -16 -16 -15 -15 -15 -15 -15 -16 -15 -16 -15 -15 -15 -15 -16 -15 -15 -15 -16 -15 -16 -14 -15 -15
-23 -23 -23 -22 -23 -23 -22 -22 -22 -21 -21 -20 -20 -19 -19 -18 -17 -17 -17 -17 -17 -16 -16 -16 -16 -16 -15 -15 -15 -15 -16 -15 -15 -14 -15 -15 -16 -16 -16 -15 -16 -15 -15 -15 -15
-25 -24 -24 -24 -23 -23 -23 -22 -21 -21 -21 -20 -20 -19 -19 -19 -18 -18 -17 -17 -16 -16 -16 -16 -16 -16 -16 -16 -16 -15 -15 -16 -16 -16 -16 -16 -15 -15 -16 -16 -15 -15 -16 -16 -15

GFSSW_500_temp_111.txt.gz
Temp
-7 -6 -7 -7 -7 -7 -7 -7 -7 -7 -7 -7 -7 -7 -7 -6 -7 -7 -7 -6 -7 -7 -7 -7 -7 -7 -7 -7 -8 -8 -7 -6 -7 -7 -8 -9 -10 -9 -10 -10 -10 -10 -9 -8 -7
-6 -6 -6 -6 -6 -6 -6 -6 -6 -7 -7 -7 -7 -7 -7 -7 -7 -7 -7 -7 -6 -6 -7 -7 -7 -7 -7 -8 -8 -8 -8 -7 -8 -9 -8 -10 -10 -9 -9 -10 -10 -10 -10 -9 -8
-6 -6 -6 -6 -6 -6 -6 -6 -6 -6 -6 -7 -7 -7 -7 -7 -7 -7 -7 -7 -7 -7 -7 -7 -7 -7 -7 -8 -8 -8 -7 -8 -9 -9 -10 -10 -9 -10 -10 -8 -9 -9 -8 -8 -7
-6 -6 -6 -6 -6 -6 -6 -6 -6 -6 -6 -6 -6 -6 -7 -7 -7 -7 -7 -7 -7 -7 -7 -7 -7 -7 -8 -8 -9 -8 -8 -9 -9 -9 -10 -9 -9 -8 -9 -8 -7 -8 -9 -9 -8
-6 -6 -6 -6 -6 -6 -6 -6 -6 -6 -6 -6 -6 -6 -6 -7 -8 -7 -8 -8 -7 -7 -8 -8 -7 -8 -8 -9 -9 -8 -9 -9 -10 -10 -10 -10 -9 -9 -9 -8 -9 -9 -8 -9 -8
-6 -6 -6 -6 -6 -6 -6 -6 -6 -6 -6 -6 -6 -6 -6 -7 -7 -7 -8 -8 -8 -8 -8 -8 -8 -9 -8 -9 -9 -10 -10 -10 -10 -10 -11 -10 -10 -10 -9 -10 -9 -9 -9 -9 -8
-7 -7 -7 -7 -7 -6 -6 -6 -6 -6 -6 -6 -6 -6 -6 -8 -7 -8 -8 -8 -8 -8 -8 -9 -8 -8 -9 -9 -10 -10 -10 -10 -10 -10 -11 -11 -10 -9 -10 -10 -10 -10 -10 -9 -9
-7 -7 -7 -7 -7 -7 -7 -7 -6 -7 -7 -7 -7 -6 -6 -9 -8 -8 -9 -8 -9 -9 -9 -9 -9 -9 -8 -9 -10 -10 -10 -10 -10 -11 -11 -12 -10 -10 -10 -10 -10 -10 -10 -9 -9
-6 -6 -6 -7 -7 -7 -7 -7 -6 -6 -6 -6 -7 -7 -6 -8 -8 -9 -9 -9 -9 -9 -9 -9 -9 -9 -9 -9 -10 -10 -10 -10 -11 -11 -11 -11 -10 -11 -11 -11 -10 -10 -10 -9 -9
-6 -6 -6 -6 -6 -6 -6 -6 -6 -6 -6 -7 -7 -6 -7 -7 -8 -8 -9 -9 -9 -10 -10 -9 -9 -9 -9 -9 -9 -10 -10 -11 -11 -12 -12 -12 -11 -12 -12 -11 -11 -11 -10 -10 -9
-7 -6 -7 -6 -7 -7 -7 -7 -7 -7 -7 -6 -6 -7 -8 -9 -8 -9 -10 -9 -10 -10 -10 -10 -10 -9 -10 -11 -11 -12 -12 -12 -12 -13 -13 -12 -13 -13 -13 -12 -11 -11 -10 -10 -10
-7 -7 -7 -7 -7 -8 -8 -8 -8 -8 -7 -7 -7 -7 -9 -11 -9 -9 -10 -10 -10 -10 -11 -11 -10 -10 -11 -11 -11 -12 -12 -12 -12 -14 -14 -14 -14 -14 -15 -13 -14 -14 -12 -11 -11
-8 -8 -8 -8 -8 -8 -9 -9 -9 -10 -9 -8 -8 -8 -10 -11 -10 -10 -10 -11 -11 -12 -11 -11 -11 -12 -12 -12 -11 -12 -12 -13 -13 -14 -15 -15 -14 -15 -15 -15 -15 -15 -14 -13 -12
-9 -9 -9 -9 -10 -10 -11 -10 -11 -11 -11 -8 -10 -10 -11 -11 -10 -12 -12 -12 -12 -12 -12 -12 -13 -13 -12 -12 -12 -12 -13 -13 -14 -15 -15 -15 -14 -14 -15 -15 -15 -14 -14 -14 -13
-9 -9 -10 -10 -9 -12 -11 -13 -13 -14 -13 -12 -13 -14 -14 -13 -14 -14 -15 -14 -13 -13 -14 -11 -13 -13 -12 -13 -13 -13 -14 -14 -15 -14 -15 -15 -15 -14 -15 -14 -15 -15 -15 -14 -14
-9 -10 -10 -10 -13 -13 -14 -15 -15 -15 -14 -14 -15 -17 -17 -16 -16 -17 -16 -16 -14 -16 -15 -14 -14 -14 -14 -14 -14 -15 -14 -15 -16 -15 -14 -15 -15 -13 -14 -14 -14 -15 -14 -14 -14
-10 -11 -12 -13 -15 -15 -15 -16 -16 -16 -17 -17 -17 -18 -19 -17 -15 -16 -17 -16 -15 -15 -14 -15 -15 -14 -15 -15 -15 -16 -16 -16 -16 -16 -15 -15 -15 -13 -14 -14 -13 -15 -14 -13 -13
-12 -13 -16 -16 -17 -17 -17 -18 -17 -18 -20 -18 -19 -19 -19 -19 -18 -16 -17 -16 -16 -16 -16 -15 -14 -15 -15 -15 -16 -16 -16 -15 -15 -15 -14 -14 -13 -13 -15 -15 -14 -14 -13 -12 -13
-14 -16 -17 -17 -18 -19 -19 -19 -19 -21 -21 -20 -19 -20 -19 -19 -19 -18 -17 -16 -17 -16 -16 -16 -15 -16 -16 -16 -16 -16 -16 -16 -16 -15 -15 -15 -14 -14 -15 -15 -14 -13 -13 -13 -14
-16 -17 -18 -19 -20 -20 -20 -21 -20 -22 -21 -21 -21 -21 -19 -20 -20 -19 -17 -16 -16 -16 -17 -17 -17 -16 -16 -16 -16 -16 -16 -16 -16 -16 -15 -14 -14 -14 -14 -15 -14 -14 -14 -14 -13
-18 -19 -19 -20 -21 -21 -21 -21 -21 -22 -21 -21 -21 -20 -20 -20 -21 -18 -17 -16 -16 -15 -16 -17 -17 -16 -15 -15 -15 -16 -16 -16 -16 -16 -15 -14 -14 -14 -14 -14 -13 -14 -15 -14 -13
-19 -20 -20 -22 -21 -21 -21 -21 -21 -21 -21 -21 -20 -20 -21 -20 -20 -18 -17 -17 -17 -17 -15 -16 -16 -16 -15 -15 -15 -16 -16 -16 -16 -16 -15 -14 -15 -14 -14 -14 -14 -13 -13 -14 -14
-20 -21 -21 -22 -22 -22 -21 -22 -21 -20 -21 -20 -20 -20 -21 -20 -20 -19 -18 -17 -17 -16 -16 -15 -16 -16 -15 -15 -15 -16 -16 -16 -15 -15 -15 -15 -15 -14 -14 -14 -14 -14 -14 -14 -14
-22 -22 -23 -23 -22 -22 -21 -22 -22 -21 -21 -21 -21 -21 -20 -20 -20 -19 -19 -18 -16 -16 -16 -15 -15 -15 -15 -15 -15 -15 -16 -16 -16 -15 -15 -15 -15 -15 -15 -14 -14 -14 -14 -14 -14
-23 -24 -24 -24 -23 -22 -22 -22 -22 -22 -21 -21 -21 -20 -20 -19 -20 -19 -18 -18 -17 -16 -15 -16 -16 -15 -15 -15 -15 -16 -16 -16 -16 -15 -16 -15 -15 -15 -15 -15 -15 -14 -14 -15 -15
-24 -25 -25 -24 -24 -23 -23 -23 -22 -22 -21 -21 -21 -20 -20 -20 -19 -19 -18 -17 -17 -16 -15 -16 -16 -15 -15 -15 -15 -16 -16 -16 -16 -15 -16 -15 -15 -15 -16 -15 -15 -15 -15 -15 -15
-26 -25 -25 -25 -25 -24 -23 -23 -21 -22 -21 -21 -21 -20 -20 -19 -19 -18 -18 -17 -17 -16 -16 -16 -15 -15 -15 -16 -16 -16 -16 -16 -15 -15 -15 -15 -15 -15 -15 -15 -15 -15 -15 -14 -14

GFSSW_500_temp_117.txt.gz
Temp
-7 -7 -7 -7 -7 -7 -6 -6 -6 -6 -6 -6 -6 -6 -6 -6 -6 -7 -7 -6 -6 -6 -6 -6 -6 -6 -6 -6 -6 -6 -5 -5 -6 -6 -8 -8 -8 -8 -7 -7 -7 -8 -8 -8 -8
-6 -6 -6 -6 -6 -7 -6 -6 -6 -6 -6 -6 -6 -6 -6 -6 -6 -7 -7 -7 -7 -6 -7 -6 -6 -6 -6 -6 -6 -6 -5 -5 -6 -7 -9 -8 -8 -8 -7 -7 -7 -8 -9 -8 -8
-7 -7 -7 -7 -7 -6 -7 -7 -6 -6 -7 -6 -6 -6 -6 -6 -7 -7 -7 -7 -7 -6 -7 -7 -6 -6 -6 -7 -6 -6 -6 -6 -7 -8 -9 -9 -8 -8 -7 -7 -7 -8 -8 -8 -8
-7 -7 -7 -7 -7 -7 -7 -7 -7 -7 -7 -7 -7 -7 -7 -7 -7 -7 -7 -7 -7 -7 -7 -7 -7 -6 -7 -6 -7 -6 -6 -7 -8 -8 -8 -9 -9 -8 -7 -8 -8 -8 -8 -9 -8
-7 -7 -7 -7 -7 -7 -7 -7 -7 -7 -6 -6 -6 -7 -6 -7 -8 -7 -7 -7 -7 -7 -7 -7 -7 -7 -7 -7 -7 -6 -6 -7 -7 -8 -8 -8 -8 -8 -7 -9 -9 -8 -8 -9 -9
-7 -7 -7 -7 -7 -7 -7 -7 -7 -7 -6 -6 -6 -6 -6 -6 -8 -8 -7 -7 -8 -8 -8 -8 -8 -8 -7 -7 -7 -7 -7 -7 -7 -7 -7 -7 -8 -8 -8 -9 -9 -9 -9 -9 -9
-7 -7 -7 -7 -7 -7 -7 -7 -7 -7 -6 -6 -6 -6 -5 -6 -7 -7 -8 -8 -8 -8 -8 -8 -8 -8 -8 -8 -8 -7 -7 -7 -7 -7 -8 -8 -7 -7 -9 -9 -9 -9 -10 -10 -10
-7 -7 -7 -7 -7 -7 -7 -7 -7 -7 -7 -6 -6 -6 -6 -6 -7 -8 -7 -7 -7 -8 -8 -9 -8 -8 -8 -8 -8 -8 -7 -7 -7 -7 -9 -9 -7 -9 -9 -10 -9 -10 -10 -10 -10
-7 -7 -7 -7 -7 -7 -7 -8 -8 -7 -7 -7 -7 -7 -6 -7 -7 -8 -9 -8 -8 -9 -9 -9 -9 -8 -8 -8 -8 -8 -7 -7 -8 -8 -9 -9 -8 -10 -10 -10 -10 -10 -10 -11 -10
-8 -8 -8 -8 -8 -8 -8 -8 -8 -8 -8 -8 -8 -8 -7 -7 -7 -8 -8 -10 -10 -10 -10 -9 -9 -8 -8 -8 -7 -7 -7 -8 -8 -9 -9 -9 -8 -10 -11 -10 -10 -11 -10 -11 -11
-9 -9 -9 -8 -9 -9 -9 -8 -8 -8 -8 -8 -9 -8 -9 -8 -8 -8 -9 -8 -10 -10 -9 -9 -9 -7 -8 -8 -9 -9 -9 -9 -9 -10 -10 -10 -9 -10 -12 -11 -11 -11 -11 -11 -11
-10 -10 -9 -9 -9 -9 -8 -8 -8 -8 -8 -8 -7 -8 -8 -10 -8 -9 -10 -10 -10 -10 -11 -11 -8 -9 -10 -10 -10 -10 -10 -9 -10 -10 -11 -10 -9 -10 -11 -11 -11 -11 -11 -11 -12
-10 -10 -9 -9 -9 -9 -9 -8 -9 -9 -9 -8 -8 -9 -12 -12 -11 -10 -13 -11 -10 -11 -11 -11 -10 -10 -10 -10 -10 -10 -10 -10 -10 -12 -12 -11 -10 -10 -10 -11 -11 -11 -12 -12 -11
-11 -10 -9 -9 -9 -9 -10 -11 -12 -14 -14 -13 -16 -16 -16 -17 -16 -13 -13 -13 -12 -10 -12 -12 -12 -11 -11 -11 -11 -11 -11 -11 -12 -13 -12 -12 -10 -11 -11 -12 -12 -11 -12 -12 -12
-11 -10 -10 -10 -10 -10 -12 -15 -17 -18 -18 -18 -19 -19 -19 -19 -19 -18 -16 -15 -14 -13 -14 -11 -12 -12 -11 -11 -12 -11 -12 -13 -13 -13 -13 -12 -11 -12 -12 -12 -13 -12 -12 -12 -12
-11 -11 -10 -10 -12 -15 -17 -18 -18 -19 -19 -20 -22 -21 -20 -20 -20 -19 -19 -18 -16 -16 -16 -13 -15 -15 -12 -13 -13 -13 -14 -14 -15 -14 -13 -12 -12 -12 -13 -14 -13 -12 -12 -12 -12
-11 -12 -12 -13 -15 -17 -18 -20 -20 -20 -22 -21 -21 -22 -21 -21 -20 -18 -18 -18 -18 -17 -17 -16 -16 -15 -16 -15 -15 -14 -15 -15 -15 -14 -11 -13 -13 -13 -14 -14 -13 -12 -13 -14 -13
-13 -13 -15 -17 -18 -19 -20 -21 -21 -21 -21 -22 -22 -22 -22 -22 -21 -20 -20 -19 -19 -18 -17 -17 -17 -16 -15 -14 -14 -15 -15 -15 -14 -14 -13 -14 -13 -14 -15 -14 -13 -14 -15 -14 -14
-14 -15 -17 -19 -20 -21 -21 -22 -22 -22 -22 -22 -22 -22 -22 -22 -21 -21 -21 -19 -18 -19 -18 -17 -16 -16 -17 -16 -17 -16 -16 -14 -15 -15 -14 -14 -14 -14 -15 -14 -14 -14 -15 -14 -14
-15 -18 -19 -20 -21 -22 -23 -22 -22 -22 -22 -22 -21 -21 -22 -22 -22 -22 -21 -21 -20 -20 -18 -17 -17 -17 -17 -17 -17 -17 -16 -17 -16 -15 -14 -14 -14 -14 -14 -14 -14 -14 -15 -14 -13
-17 -20 -21 -21 -22 -23 -23 -23 -22 -22 -22 -22 -21 -21 -21 -21 -21 -21 -21 -21 -21 -20 -19 -18 -17 -17 -17 -17 -17 -17 -17 -17 -16 -15 -15 -15 -15 -14 -14 -15 -15 -15 -14 -14 -14
-19 -21 -22 -22 -24 -24 -24 -23 -22 -22 -22 -22 -21 -21 -21 -21 -21 -21 -21 -21 -21 -20 -19 -19 -17 -16 -16 -16 -17 -17 -17 -16 -16 -15 -15 -16 -15 -15 -15 -15 -15 -14 -14 -14 -14
-20 -22 -24 -24 -24 -25 -24 -23 -22 -22 -22 -22 -21 -21 -21 -21 -21 -21 -21 -20 -20 -20 -19 -18 -17 -17 -16 -17 -17 -16 -17 -16 -16 -16 -15 -15 -15 -15 -15 -15 -15 -15 -14 -14 -14
-22 -23 -24 -26 -25 -25 -25 -24 -23 -22 -22 -22 -22 -21 -21 -21 -21 -20 -21 -20 -20 -19 -18 -18 -17 -17 -16 -16 -16 -16 -16 -16 -16 -16 -16 -16 -16 -15 -15 -15 -15 -14 -14 -14 -14
-23 -24 -26 -26 -26 -25 -25 -24 -23 -22 -22 -22 -22 -21 -21 -21 -21 -20 -20 -20 -20 -19 -17 -17 -17 -16 -16 -17 -16 -17 -17 -16 -16 -16 -15 -16 -16 -16 -16 -16 -15 -15 -15 -14 -14
-25 -26 -26 -27 -26 -26 -26 -24 -23 -23 -22 -21 -21 -21 -21 -21 -21 -20 -20 -20 -19 -18 -17 -17 -16 -16 -16 -16 -16 -16 -16 -16 -16 -16 -16 -17 -17 -17 -16 -16 -15 -15 -15 -14 -14
-26 -27 -27 -27 -27 -26 -25 -24 -22 -23 -22 -21 -21 -21 -21 -21 -20 -20 -19 -19 -19 -18 -17 -16 -16 -16 -16 -16 -16 -16 -16 -16 -15 -16 -16 -16 -16 -16 -16 -16 -15 -15 -15 -15 -15

GFSSW_500_temp_123.txt.gz
Temp
-8 -7 -7 -7 -7 -7 -7 -6 -6 -6 -6 -6 -6 -6 -6 -6 -6 -6 -7 -6 -6 -6 -7 -7 -7 -7 -6 -6 -6 -6 -5 -5 -5 -6 -8 -7 -7 -6 -6 -6 -7 -6 -6 -7 -7
-8 -8 -7 -7 -7 -7 -7 -7 -7 -7 -7 -6 -6 -6 -6 -6 -6 -6 -6 -6 -6 -6 -6 -7 -7 -7 -6 -6 -6 -6 -5 -5 -6 -7 -8 -7 -7 -7 -7 -6 -6 -7 -7 -7 -8
-8 -8 -8 -8 -8 -8 -8 -8 -7 -7 -7 -7 -7 -7 -7 -7 -7 -7 -7 -7 -7 -7 -7 -7 -7 -7 -7 -7 -6 -6 -6 -7 -7 -7 -7 -7 -7 -7 -7 -7 -6 -6 -6 -7 -7
-8 -8 -8 -8 -8 -8 -8 -8 -8 -7 -7 -7 -7 -7 -7 -7 -7 -7 -7 -7 -7 -7 -7 -7 -7 -6 -7 -7 -7 -7 -6 -7 -7 -8 -7 -7 -7 -6 -7 -7 -6 -6 -7 -7 -7
-7 -7 -7 -7 -7 -7 -7 -7 -7 -7 -7 -7 -7 -7 -7 -7 -8 -7 -7 -7 -8 -8 -8 -7 -7 -7 -7 -7 -7 -7 -6 -7 -8 -8 -7 -7 -6 -6 -6 -7 -6 -6 -6 -7 -7
-7 -7 -7 -7 -7 -7 -7 -7 -7 -7 -7 -7 -7 -7 -8 -9 -9 -8 -8 -8 -8 -8 -8 -8 -8 -8 -7 -7 -7 -6 -7 -7 -7 -7 -7 -7 -7 -6 -6 -7 -6 -6 -6 -6 -7
-8 -8 -8 -8 -8 -8 -7 -7 -7 -7 -7 -8 -7 -8 -7 -9 -9 -9 -9 -9 -9 -8 -8 -8 -8 -8 -7 -7 -7 -7 -7 -7 -7 -7 -7 -7 -6 -6 -7 -7 -7 -7 -7 -7 -7
-8 -8 -8 -8 -9 -9 -8 -8 -8 -8 -8 -8 -8 -8 -7 -8 -9 -9 -9 -9 -9 -9 -9 -9 -9 -9 -8 -8 -7 -7 -7 -7 -6 -7 -7 -7 -6 -7 -7 -8 -8 -7 -7 -7 -7
-9 -9 -9 -9 -10 -10 -10 -9 -9 -9 -9 -9 -9 -9 -8 -8 -8 -8 -8 -9 -9 -9 -9 -10 -9 -9 -9 -8 -8 -8 -7 -7 -7 -7 -7 -7 -7 -8 -8 -8 -8 -8 -7 -7 -7
-9 -9 -9 -10 -10 -11 -11 -11 -10 -10 -10 -10 -10 -10 -10 -9 -9 -9 -9 -9 -9 -9 -9 -9 -9 -9 -9 -9 -7 -7 -7 -7 -7 -7 -8 -7 -7 -8 -8 -8 -8 -8 -7 -7 -7
-9 -9 -9 -10 -11 -11 -10 -10 -10 -11 -10 -10 -10 -10 -10 -10 -10 -10 -10 -10 -10 -9 -9 -9 -10 -9 -9 -8 -9 -9 -8 -8 -8 -8 -8 -8 -8 -8 -9 -9 -8 -8 -8 -8 -8
-10 -10 -10 -11 -11 -11 -11 -11 -11 -11 -11 -11 -11 -11 -11 -11 -10 -11 -10 -10 -10 -10 -11 -10 -9 -8 -10 -9 -9 -9 -9 -9 -9 -9 -9 -9 -8 -9 -9 -9 -9 -8 -8 -8 -8
-11 -11 -11 -11 -11 -12 -12 -12 -12 -12 -12 -12 -13 -13 -14 -14 -14 -14 -14 -14 -13 -13 -12 -13 -10 -13 -12 -10 -10 -9 -9 -9 -10 -10 -9 -9 -9 -9 -9 -9 -9 -8 -8 -8 -8
-11 -11 -12 -12 -12 -12 -12 -12 -13 -14 -16 -17 -17 -18 -18 -19 -19 -19 -19 -19 -18 -17 -17 -17 -14 -14 -14 -12 -11 -10 -10 -10 -10 -10 -10 -10 -10 -9 -9 -9 -9 -9 -8 -8 -8
-12 -12 -13 -13 -13 -13 -13 -15 -16 -18 -19 -21 -21 -21 -21 -21 -22 -22 -22 -20 -20 -19 -20 -17 -16 -17 -16 -13 -13 -11 -11 -12 -12 -12 -12 -11 -11 -9 -9 -9 -9 -9 -9 -8 -9
-13 -13 -13 -13 -13 -14 -16 -17 -19 -21 -22 -23 -23 -22 -22 -23 -22 -22 -22 -22 -20 -20 -20 -19 -19 -19 -18 -16 -15 -15 -13 -14 -15 -15 -14 -11 -11 -9 -9 -9 -9 -9 -9 -9 -9
-14 -13 -13 -13 -14 -16 -18 -20 -22 -23 -23 -23 -23 -23 -22 -22 -22 -22 -22 -21 -21 -21 -20 -19 -19 -19 -19 -18 -17 -17 -16 -15 -16 -16 -11 -12 -11 -8 -9 -9 -10 -10 -10 -10 -10
-14 -13 -13 -14 -16 -19 -21 -23 -24 -24 -23 -23 -22 -22 -22 -22 -22 -21 -22 -21 -21 -21 -21 -20 -19 -19 -19 -19 -18 -17 -15 -15 -14 -13 -10 -11 -11 -9 -9 -10 -10 -10 -10 -10 -11
-14 -14 -14 -17 -19 -21 -24 -24 -24 -24 -23 -22 -22 -22 -22 -22 -21 -22 -22 -22 -22 -21 -21 -20 -19 -19 -19 -19 -19 -19 -19 -16 -16 -15 -14 -12 -10 -9 -10 -10 -10 -10 -10 -10 -11
-14 -14 -16 -19 -20 -24 -25 -25 -24 -24 -23 -23 -22 -22 -21 -21 -21 -21 -21 -21 -21 -20 -20 -20 -19 -18 -18 -19 -18 -19 -18 -19 -18 -16 -15 -12 -11 -10 -10 -11 -11 -10 -10 -11 -12
-15 -16 -18 -20 -23 -25 -25 -25 -25 -24 -23 -23 -22 -22 -22 -22 -21 -21 -21 -21 -21 -21 -20 -19 -19 -19 -18 -17 -18 -17 -18 -18 -17 -16 -15 -13 -12 -11 -11 -12 -12 -11 -11 -12 -12
-15 -18 -20 -23 -26 -26 -26 -25 -24 -23 -23 -23 -23 -22 -22 -21 -21 -21 -21 -21 -21 -21 -20 -20 -20 -19 -18 -18 -18 -17 -18 -17 -17 -16 -15 -13 -12 -12 -12 -12 -12 -13 -13 -13 -13
-16 -19 -22 -25 -26 -26 -25 -25 -24 -24 -23 -23 -22 -22 -22 -22 -21 -21 -21 -21 -21 -21 -20 -20 -19 -18 -18 -18 -17 -17 -17 -18 -17 -16 -15 -14 -13 -13 -13 -13 -13 -13 -13 -13 -13
-18 -21 -24 -25 -26 -26 -25 -25 -24 -24 -23 -23 -22 -22 -22 -22 -22 -21 -21 -21 -21 -21 -20 -20 -19 -18 -18 -17 -17 -17 -18 -17 -17 -16 -15 -15 -13 -13 -14 -14 -14 -14 -13 -13 -14
-19 -22 -25 -25 -26 -26 -24 -24 -24 -24 -23 -23 -23 -22 -22 -21 -21 -21 -21 -21 -20 -20 -20 -19 -18 -18 -17 -17 -16 -17 -17 -18 -17 -17 -16 -16 -16 -16 -15 -15 -14 -14 -14 -14 -15
-20 -22 -24 -25 -25 -24 -24 -23 -23 -23 -22 -22 -22 -22 -22 -21 -21 -20 -20 -20 -20 -20 -19 -19 -18 -17 -17 -16 -16 -17 -17 -17 -18 -18 -17 -17 -17 -17 -16 -16 -15 -15 -15 -15 -15
-21 -23 -24 -24 -24 -23 -23 -23 -23 -23 -23 -22 -21 -21 -21 -21 -20 -19 -19 -20 -19 -19 -19 -18 -18 -17 -17 -17 -17 -17 -17 -17 -17 -17 -17 -17 -17 -16 -16 -16 -16 -16 -16 -16 -15